Time,TemperatureF,DewpointF,PressureIn,WindDirection,WindDirectionDegrees,WindSpeedMPH,WindSpeedGustMPH,Humidity,HourlyPrecipIn,Conditions,Clouds,dailyrainin,SoftwareType,DateUTC
2013-06-02 00:00:00,74.6,64.2,30.03,SSW,202,5.8,5.8,70,0.00,,OVC023,0.00,VWS V14.01,2013-06-02 04:00:00,
2013-06-02 00:01:00,74.6,64.2,30.03,SW,225,4.5,4.5,70,0.00,,CLR,0.00,VWS V14.01,2013-06-02 04:01:00,
2013-06-02 00:02:00,74.6,64.2,30.03,SSW,202,5.8,5.8,70,0.00,,CLR,0.00,VWS V14.01,2013-06-02 04:02:00,
2013-06-02 00:03:00,74.6,64.2,30.03,SSW,202,5.4,5.4,70,0.00,,OVC023,0.00,VWS V14.01,2013-06-02 04:03:00,
2013-06-02 00:04:00,74.6,64.2,30.03,SSW,202,5.8,5.8,70,0.00,,OVC023,0.00,VWS V14.01,2013-06-02 04:04:00,
2013-06-02 00:05:00,74.6,64.2,30.03,South,180,3.6,3.6,70,0.00,,OVC023,0.00,VWS V14.01,2013-06-02 04:05:00,
2013-06-02 00:06:00,74.6,64.2,30.03,South,180,4.7,4.7,70,0.00,,OVC023,0.00,VWS V14.01,2013-06-02 04:06:00,
2013-06-02 00:07:00,74.6,64.2,30.03,SSW,202,5.8,5.8,70,0.00,,OVC023,0.00,VWS V14.01,2013-06-02 04:07:00,
2013-06-02 00:08:00,74.6,64.2,30.03,SSW,202,2.7,2.7,70,0.00,,CLR,0.00,VWS V14.01,2013-06-02 04:08:00,
2013-06-02 00:09:00,74.6,64.2,30.03,SSW,202,2.9,2.9,70,0.00,,OVC023,0.00,VWS V14.01,2013-06-02 04:09:00,
2013-06-02 00:10:00,74.6,64.2,30.03,South,180,3.1,3.1,70,0.00,,OVC023,0.00,VWS V14.01,2013-06-02 04:10:00,
2013-06-02 00:11:00,74.6,64.2,30.03,SW,225,1.6,1.6,70,0.00,,OVC023,0.00,VWS V14.01,2013-06-02 04:11:00,
2013-06-02 00:12:00,74.5,64.0,30.03,SSW,202,7.2,7.2,70,0.00,,OVC023,0.00,VWS V14.01,2013-06-02 04:12:00,
2013-06-02 00:13:00,74.3,63.9,30.03,SSW,202,2.9,2.9,70,0.00,,CLR,0.00,VWS V14.01,2013-06-02 04:13:00,
2013-06-02 00:14:00,74.5,64.0,30.03,WSW,248,3.6,3.6,70,0.00,,OVC023,0.00,VWS V14.01,2013-06-02 04:14:00,
2013-06-02 00:15:00,74.3,63.9,30.03,SSW,202,2.5,2.5,70,0.00,,OVC023,0.00,VWS V14.01,2013-06-02 04:15:00,
2013-06-02 00:16:00,74.3,63.9,30.03,SSW,202,4.5,4.5,70,0.00,,OVC023,0.00,VWS V14.01,2013-06-02 04:16:00,
2013-06-02 00:17:00,74.3,63.9,30.03,SW,225,4.3,4.3,70,0.00,,OVC023,0.00,VWS V14.01,2013-06-02 04:17:00,
2013-06-02 00:18:00,74.3,64.3,30.03,South,180,3.1,3.1,71,0.00,,CLR,0.00,VWS V14.01,2013-06-02 04:18:00,
2013-06-02 00:19:00,74.3,63.9,30.03,SSW,202,6.5,6.5,70,0.00,,OVC023,0.00,VWS V14.01,2013-06-02 04:19:00,
2013-06-02 00:20:00,74.3,64.3,30.03,SE,135,3.8,3.8,71,0.00,,OVC023,0.00,VWS V14.01,2013-06-02 04:20:00,
2013-06-02 00:21:00,74.3,64.3,30.03,WSW,248,8.7,8.7,71,0.00,,OVC023,0.00,VWS V14.01,2013-06-02 04:21:00,
2013-06-02 00:22:00,74.3,64.3,30.03,SSW,202,4.5,4.5,71,0.00,,OVC023,0.00,VWS V14.01,2013-06-02 04:22:00,
2013-06-02 00:23:00,74.1,64.1,30.03,SSW,202,5.8,5.8,71,0.00,,CLR,0.00,VWS V14.01,2013-06-02 04:23:00,
2013-06-02 00:24:00,74.3,64.3,30.03,SSW,202,6.0,6.0,71,0.00,,OVC023,0.00,VWS V14.01,2013-06-02 04:24:00,
2013-06-02 00:25:00,74.1,64.1,30.03,SSW,202,5.8,5.8,71,0.00,,OVC023,0.00,VWS V14.01,2013-06-02 04:25:00,
2013-06-02 00:26:00,74.1,64.1,30.03,SE,135,2.9,2.9,71,0.00,,OVC023,0.00,VWS V14.01,2013-06-02 04:26:00,
2013-06-02 00:27:00,74.1,64.1,30.03,South,180,4.0,4.0,71,0.00,,OVC023,0.00,VWS V14.01,2013-06-02 04:27:00,
2013-06-02 00:28:00,74.1,64.1,30.03,SSW,202,6.0,6.0,71,0.00,,CLR,0.00,VWS V14.01,2013-06-02 04:28:00,
2013-06-02 00:29:00,74.1,63.7,30.03,SSW,202,2.7,2.7,70,0.00,,OVC023,0.00,VWS V14.01,2013-06-02 04:29:00,
2013-06-02 00:30:00,74.1,64.1,30.03,SSW,202,6.0,6.0,71,0.00,,OVC023,0.00,VWS V14.01,2013-06-02 04:30:00,
2013-06-02 00:31:00,74.1,64.1,30.03,SSE,158,3.4,3.4,71,0.00,,OVC023,0.00,VWS V14.01,2013-06-02 04:31:00,
2013-06-02 00:32:00,74.1,64.1,30.03,SSW,202,5.8,5.8,71,0.00,,OVC023,0.00,VWS V14.01,2013-06-02 04:32:00,
2013-06-02 00:33:00,73.9,63.9,30.03,SSW,202,2.7,2.7,71,0.00,,CLR,0.00,VWS V14.01,2013-06-02 04:33:00,
2013-06-02 00:34:00,73.9,63.9,30.03,SSW,202,3.6,3.6,71,0.00,,OVC023,0.00,VWS V14.01,2013-06-02 04:34:00,
2013-06-02 00:35:00,73.9,63.9,30.03,SSW,202,2.7,2.7,71,0.00,,OVC023,0.00,VWS V14.01,2013-06-02 04:35:00,
2013-06-02 00:36:00,73.9,63.9,30.03,SSE,158,3.4,3.4,71,0.00,,OVC023,0.00,VWS V14.01,2013-06-02 04:36:00,
2013-06-02 00:37:00,73.9,63.9,30.03,SSE,158,5.8,5.8,71,0.00,,OVC023,0.00,VWS V14.01,2013-06-02 04:37:00,
2013-06-02 00:38:00,73.9,63.9,30.03,SW,225,4.0,4.0,71,0.00,,CLR,0.00,VWS V14.01,2013-06-02 04:38:00,
2013-06-02 00:39:00,73.7,63.8,30.03,South,180,4.0,4.0,71,0.00,,OVC023,0.00,VWS V14.01,2013-06-02 04:39:00,
2013-06-02 00:40:00,73.9,63.9,30.03,SW,225,4.0,4.0,71,0.00,,OVC023,0.00,VWS V14.01,2013-06-02 04:40:00,
2013-06-02 00:41:00,73.9,63.9,30.03,SSW,202,6.7,6.7,71,0.00,,OVC023,0.00,VWS V14.01,2013-06-02 04:41:00,
2013-06-02 00:42:00,73.9,64.3,30.03,South,180,4.7,4.7,72,0.00,,OVC023,0.00,VWS V14.01,2013-06-02 04:42:00,
2013-06-02 00:43:00,73.7,63.8,30.03,SSE,158,4.3,4.3,71,0.00,,SCT060,0.00,VWS V14.01,2013-06-02 04:43:00,
2013-06-02 00:44:00,73.7,64.2,30.03,SSW,202,2.9,2.9,72,0.00,,OVC023,0.00,VWS V14.01,2013-06-02 04:44:00,
2013-06-02 00:45:00,73.7,63.8,30.03,SSE,158,2.9,2.9,71,0.00,,OVC023,0.00,VWS V14.01,2013-06-02 04:45:00,
2013-06-02 00:46:00,73.7,63.8,30.03,SSW,202,2.5,2.5,71,0.00,,OVC023,0.00,VWS V14.01,2013-06-02 04:46:00,
2013-06-02 00:47:00,73.7,64.2,30.03,SSW,202,3.4,3.4,72,0.00,,OVC023,0.00,VWS V14.01,2013-06-02 04:47:00,
2013-06-02 00:48:00,73.6,63.6,30.03,SSW,202,5.6,5.6,71,0.00,,SCT060,0.00,VWS V14.01,2013-06-02 04:48:00,
2013-06-02 00:49:00,73.6,63.6,30.03,SSE,158,4.0,4.0,71,0.00,,OVC023,0.00,VWS V14.01,2013-06-02 04:49:00,
2013-06-02 00:50:00,73.6,63.6,30.03,WSW,248,3.4,3.4,71,0.00,,OVC023,0.00,VWS V14.01,2013-06-02 04:50:00,
2013-06-02 00:51:00,73.6,64.0,30.03,SSE,158,3.4,3.4,72,0.00,,OVC023,0.00,VWS V14.01,2013-06-02 04:51:00,
2013-06-02 00:52:00,73.6,63.6,30.03,SSW,202,3.4,3.4,71,0.00,,OVC023,0.00,VWS V14.01,2013-06-02 04:52:00,
2013-06-02 00:53:00,73.6,64.0,30.03,SSE,158,7.8,7.8,72,0.00,,SCT060,0.00,VWS V14.01,2013-06-02 04:53:00,
2013-06-02 00:54:00,73.6,64.0,30.03,SW,225,5.4,5.4,72,0.00,,OVC023,0.00,VWS V14.01,2013-06-02 04:54:00,
2013-06-02 00:55:00,73.6,64.0,30.03,SSE,158,4.3,4.3,72,0.00,,OVC023,0.00,VWS V14.01,2013-06-02 04:55:00,
2013-06-02 00:56:00,73.4,63.8,30.03,SW,225,4.3,4.3,72,0.00,,OVC023,0.00,VWS V14.01,2013-06-02 04:56:00,
2013-06-02 00:57:00,73.4,63.8,30.03,SW,225,4.7,4.7,72,0.00,,OVC023,0.00,VWS V14.01,2013-06-02 04:57:00,
2013-06-02 00:58:00,73.4,63.8,30.03,SSW,202,4.0,4.0,72,0.00,,OVC023,0.00,VWS V14.01,2013-06-02 04:58:00,
2013-06-02 00:59:00,73.4,64.2,30.03,South,180,5.4,5.4,73,0.00,,SCT060,0.00,VWS V14.01,2013-06-02 04:59:00,
2013-06-02 01:00:00,73.4,64.2,30.03,SSW,202,6.5,6.5,73,0.00,,OVC023,0.00,VWS V14.01,2013-06-02 05:00:00,
2013-06-02 01:01:00,73.4,64.2,30.03,SW,225,5.6,5.6,73,0.00,,OVC023,0.00,VWS V14.01,2013-06-02 05:01:00,
2013-06-02 01:02:00,73.4,64.2,30.03,SSW,202,3.6,3.6,73,0.00,,OVC023,0.00,VWS V14.01,2013-06-02 05:02:00,
2013-06-02 01:03:00,73.4,64.2,30.03,SE,135,4.9,4.9,73,0.00,,OVC023,0.00,VWS V14.01,2013-06-02 05:03:00,
2013-06-02 01:04:00,73.4,63.8,30.03,SSE,158,3.8,3.8,72,0.00,,SCT060,0.00,VWS V14.01,2013-06-02 05:04:00,
2013-06-02 01:05:00,73.4,63.8,30.03,South,180,4.9,4.9,72,0.00,,OVC023,0.00,VWS V14.01,2013-06-02 05:05:00,
2013-06-02 01:06:00,73.2,64.0,30.03,SSW,202,3.8,3.8,73,0.00,,OVC023,0.00,VWS V14.01,2013-06-02 05:06:00,
2013-06-02 01:07:00,73.2,64.0,30.03,South,180,3.1,3.1,73,0.00,,OVC023,0.00,VWS V14.01,2013-06-02 05:07:00,
2013-06-02 01:08:00,73.2,64.0,30.03,SW,225,4.9,4.9,73,0.00,,OVC023,0.00,VWS V14.01,2013-06-02 05:08:00,
2013-06-02 01:09:00,73.0,63.9,30.03,SSW,202,6.5,6.5,73,0.00,,SCT060,0.00,VWS V14.01,2013-06-02 05:09:00,
2013-06-02 01:10:00,73.2,64.4,30.03,SSE,158,2.9,2.9,74,0.00,,OVC023,0.00,VWS V14.01,2013-06-02 05:10:00,
2013-06-02 01:11:00,73.2,64.0,30.03,SSW,202,8.1,8.1,73,0.00,,OVC023,0.00,VWS V14.01,2013-06-02 05:11:00,
2013-06-02 01:12:00,73.2,64.4,30.03,SSW,202,5.4,5.4,74,0.00,,OVC023,0.00,VWS V14.01,2013-06-02 05:12:00,
2013-06-02 01:13:00,73.0,64.6,30.03,SSW,202,3.1,3.1,75,0.00,,OVC023,0.00,VWS V14.01,2013-06-02 05:13:00,
2013-06-02 01:14:00,73.0,64.6,30.03,SW,225,5.4,5.4,75,0.00,,SCT060,0.00,VWS V14.01,2013-06-02 05:14:00,
2013-06-02 01:15:00,73.0,64.2,30.03,SSW,202,6.5,6.5,74,0.00,,OVC023,0.00,VWS V14.01,2013-06-02 05:15:00,
2013-06-02 01:16:00,73.0,64.6,30.03,SW,225,5.4,5.4,75,0.00,,OVC023,0.00,VWS V14.01,2013-06-02 05:16:00,
2013-06-02 01:17:00,73.0,64.6,30.00,SSE,158,5.8,5.8,75,0.00,,OVC023,0.00,VWS V14.01,2013-06-02 05:17:00,
2013-06-02 01:18:00,73.0,64.2,30.00,SSE,158,6.5,6.5,74,0.00,,OVC023,0.00,VWS V14.01,2013-06-02 05:18:00,
2013-06-02 01:19:00,72.8,64.5,30.00,SW,225,2.9,2.9,75,0.00,,SCT060,0.00,VWS V14.01,2013-06-02 05:19:00,
2013-06-02 01:20:00,72.8,64.5,30.00,South,180,4.3,4.3,75,0.00,,OVC023,0.00,VWS V14.01,2013-06-02 05:20:00,
2013-06-02 01:21:00,72.8,64.5,30.00,SW,225,2.9,2.9,75,0.00,,OVC023,0.00,VWS V14.01,2013-06-02 05:21:00,
2013-06-02 01:22:00,72.8,64.5,30.00,SSW,202,5.6,5.6,75,0.00,,OVC023,0.00,VWS V14.01,2013-06-02 05:22:00,
2013-06-02 01:23:00,72.8,64.5,30.00,SSW,202,4.9,4.9,75,0.00,,OVC023,0.00,VWS V14.01,2013-06-02 05:23:00,
2013-06-02 01:24:00,72.8,64.8,30.00,SW,225,4.3,4.3,76,0.00,,SCT060,0.00,VWS V14.01,2013-06-02 05:24:00,
2013-06-02 01:25:00,72.8,64.5,30.00,SSW,202,4.7,4.7,75,0.00,,OVC023,0.00,VWS V14.01,2013-06-02 05:25:00,
2013-06-02 01:26:00,72.8,64.8,30.00,SSW,202,5.6,5.6,76,0.00,,OVC023,0.00,VWS V14.01,2013-06-02 05:26:00,
2013-06-02 01:27:00,72.8,64.8,30.00,SSW,202,7.6,7.6,76,0.00,,OVC023,0.00,VWS V14.01,2013-06-02 05:27:00,
2013-06-02 01:28:00,72.7,64.7,30.00,SSW,202,4.9,4.9,76,0.00,,OVC023,0.00,VWS V14.01,2013-06-02 05:28:00,
2013-06-02 01:29:00,72.7,64.7,30.00,SSW,202,6.9,6.9,76,0.00,,SCT060,0.00,VWS V14.01,2013-06-02 05:29:00,
2013-06-02 01:30:00,72.7,64.7,30.00,SSW,202,4.3,4.3,76,0.00,,OVC023,0.00,VWS V14.01,2013-06-02 05:30:00,
2013-06-02 01:31:00,72.7,64.7,30.00,SSW,202,6.9,6.9,76,0.00,,OVC023,0.00,VWS V14.01,2013-06-02 05:31:00,
2013-06-02 01:32:00,72.7,64.7,30.00,SSW,202,3.8,3.8,76,0.00,,OVC023,0.00,VWS V14.01,2013-06-02 05:32:00,
2013-06-02 01:33:00,72.7,64.7,30.00,South,180,6.0,6.0,76,0.00,,OVC023,0.00,VWS V14.01,2013-06-02 05:33:00,
2013-06-02 01:34:00,72.7,64.7,30.00,SSW,202,8.1,8.1,76,0.00,,SCT060,0.00,VWS V14.01,2013-06-02 05:34:00,
2013-06-02 01:35:00,72.7,64.7,30.00,SSW,202,6.3,6.3,76,0.00,,OVC023,0.00,VWS V14.01,2013-06-02 05:35:00,
2013-06-02 01:36:00,72.7,64.7,30.00,SSW,202,5.6,5.6,76,0.00,,OVC023,0.00,VWS V14.01,2013-06-02 05:36:00,
2013-06-02 01:37:00,72.7,64.7,30.00,SSW,202,8.5,8.5,76,0.00,,OVC023,0.00,VWS V14.01,2013-06-02 05:37:00,
2013-06-02 01:38:00,72.7,64.7,30.00,South,180,4.9,4.9,76,0.00,,OVC023,0.00,VWS V14.01,2013-06-02 05:38:00,
2013-06-02 01:39:00,72.7,64.7,30.00,SSE,158,4.0,4.0,76,0.00,,SCT060,0.00,VWS V14.01,2013-06-02 05:39:00,
2013-06-02 01:40:00,72.7,64.7,30.00,SSE,158,2.5,2.5,76,0.00,,OVC023,0.00,VWS V14.01,2013-06-02 05:40:00,
2013-06-02 01:41:00,72.7,64.7,30.00,SSW,202,6.5,6.5,76,0.00,,OVC023,0.00,VWS V14.01,2013-06-02 05:41:00,
2013-06-02 01:42:00,72.7,64.7,30.00,South,180,3.1,3.1,76,0.00,,OVC023,0.00,VWS V14.01,2013-06-02 05:42:00,
2013-06-02 01:43:00,72.7,64.7,30.00,SSW,202,4.7,4.7,76,0.00,,OVC023,0.00,VWS V14.01,2013-06-02 05:43:00,
2013-06-02 01:44:00,72.5,64.5,29.97,SSE,158,5.6,5.6,76,0.00,,CLR,0.00,VWS V14.01,2013-06-02 05:44:00,
2013-06-02 01:45:00,72.5,64.5,30.00,SSE,158,8.5,8.5,76,0.00,,OVC023,0.00,VWS V14.01,2013-06-02 05:45:00,
2013-06-02 01:46:00,72.5,64.5,29.97,SSW,202,6.3,6.3,76,0.00,,OVC023,0.00,VWS V14.01,2013-06-02 05:46:00,
2013-06-02 01:47:00,72.5,64.5,29.97,SSW,202,5.6,5.6,76,0.00,,OVC023,0.00,VWS V14.01,2013-06-02 05:47:00,
2013-06-02 01:48:00,72.5,64.5,29.97,SW,225,3.1,3.1,76,0.00,,OVC023,0.00,VWS V14.01,2013-06-02 05:48:00,
2013-06-02 01:49:00,72.5,64.5,29.97,SSE,158,3.1,3.1,76,0.00,,OVC023,0.00,VWS V14.01,2013-06-02 05:49:00,
2013-06-02 01:50:00,72.3,64.3,29.97,SSE,158,5.8,5.8,76,0.00,,CLR,0.00,VWS V14.01,2013-06-02 05:50:00,
2013-06-02 01:51:00,72.3,64.3,29.97,SSW,202,3.8,3.8,76,0.00,,OVC023,0.00,VWS V14.01,2013-06-02 05:51:00,
2013-06-02 01:52:00,72.3,64.7,29.97,SSW,202,3.1,3.1,77,0.00,,OVC023,0.00,VWS V14.01,2013-06-02 05:52:00,
2013-06-02 01:53:00,72.3,64.7,29.97,SSW,202,3.1,3.1,77,0.00,,OVC023,0.00,VWS V14.01,2013-06-02 05:53:00,
2013-06-02 01:54:00,72.3,64.7,29.97,SSW,202,4.0,4.0,77,0.00,,OVC023,0.00,VWS V14.01,2013-06-02 05:54:00,
2013-06-02 01:55:00,72.1,64.5,29.97,SSW,202,3.8,3.8,77,0.00,,CLR,0.00,VWS V14.01,2013-06-02 05:55:00,
2013-06-02 01:56:00,72.1,64.5,29.97,SSW,202,4.3,4.3,77,0.00,,OVC023,0.00,VWS V14.01,2013-06-02 05:56:00,
2013-06-02 01:57:00,72.1,64.5,29.97,SSW,202,4.3,4.3,77,0.00,,OVC023,0.00,VWS V14.01,2013-06-02 05:57:00,
2013-06-02 01:58:00,72.1,64.5,29.97,SSE,158,4.7,4.7,77,0.00,,OVC023,0.00,VWS V14.01,2013-06-02 05:58:00,
2013-06-02 01:59:00,72.1,64.5,29.97,SSW,202,2.9,2.9,77,0.00,,OVC023,0.00,VWS V14.01,2013-06-02 05:59:00,
2013-06-02 02:00:00,71.9,64.7,29.97,SSW,202,7.4,7.4,78,0.00,,CLR,0.00,VWS V14.01,2013-06-02 06:00:00,
2013-06-02 02:01:00,71.9,64.3,29.97,SW,225,3.1,3.1,77,0.00,,OVC023,0.00,VWS V14.01,2013-06-02 06:01:00,
2013-06-02 02:02:00,71.9,64.7,29.97,SW,225,3.6,3.6,78,0.00,,OVC023,0.00,VWS V14.01,2013-06-02 06:02:00,
2013-06-02 02:03:00,71.9,64.7,29.97,SW,225,4.0,4.0,78,0.00,,OVC023,0.00,VWS V14.01,2013-06-02 06:03:00,
2013-06-02 02:04:00,71.8,64.5,29.97,SW,225,5.4,5.4,78,0.00,,OVC023,0.00,VWS V14.01,2013-06-02 06:04:00,
2013-06-02 02:05:00,71.6,64.4,29.97,SW,225,4.0,4.0,78,0.00,,CLR,0.00,VWS V14.01,2013-06-02 06:05:00,
2013-06-02 02:06:00,71.8,64.5,29.97,SSW,202,3.4,3.4,78,0.00,,OVC023,0.00,VWS V14.01,2013-06-02 06:06:00,
2013-06-02 02:07:00,71.6,64.4,29.97,SW,225,7.2,7.2,78,0.00,,OVC023,0.00,VWS V14.01,2013-06-02 06:07:00,
2013-06-02 02:08:00,71.8,64.5,29.97,SSW,202,3.1,3.1,78,0.00,,OVC023,0.00,VWS V14.01,2013-06-02 06:08:00,
2013-06-02 02:09:00,71.8,64.5,29.97,South,180,4.5,4.5,78,0.00,,OVC023,0.00,VWS V14.01,2013-06-02 06:09:00,
2013-06-02 02:10:00,71.6,64.7,29.97,SSW,202,5.6,5.6,79,0.00,,CLR,0.00,VWS V14.01,2013-06-02 06:10:00,
2013-06-02 02:11:00,71.8,64.9,29.97,SSW,202,2.7,2.7,79,0.00,,OVC023,0.00,VWS V14.01,2013-06-02 06:11:00,
2013-06-02 02:12:00,71.6,64.7,29.97,SSW,202,5.6,5.6,79,0.00,,OVC023,0.00,VWS V14.01,2013-06-02 06:12:00,
2013-06-02 02:13:00,71.6,64.7,29.97,SSW,202,4.0,4.0,79,0.00,,OVC023,0.00,VWS V14.01,2013-06-02 06:13:00,
2013-06-02 02:14:00,71.6,64.7,29.97,SW,225,5.4,5.4,79,0.00,,OVC023,0.00,VWS V14.01,2013-06-02 06:14:00,
2013-06-02 02:15:00,71.4,64.6,29.97,SW,225,3.8,3.8,79,0.00,,CLR,0.00,VWS V14.01,2013-06-02 06:15:00,
2013-06-02 02:16:00,71.6,64.7,29.97,SW,225,5.8,5.8,79,0.00,,OVC023,0.00,VWS V14.01,2013-06-02 06:16:00,
2013-06-02 02:17:00,71.4,64.6,29.97,SW,225,4.0,4.0,79,0.00,,OVC023,0.00,VWS V14.01,2013-06-02 06:17:00,
2013-06-02 02:18:00,71.4,64.9,29.97,SSW,202,3.8,3.8,80,0.00,,OVC023,0.00,VWS V14.01,2013-06-02 06:18:00,
2013-06-02 02:19:00,71.4,64.9,29.97,SSW,202,3.8,3.8,80,0.00,,OVC023,0.00,VWS V14.01,2013-06-02 06:19:00,
2013-06-02 02:20:00,71.2,65.1,29.97,SW,225,4.9,4.9,81,0.00,,CLR,0.00,VWS V14.01,2013-06-02 06:20:00,
2013-06-02 02:21:00,71.2,65.1,29.97,SSW,202,4.0,4.0,81,0.00,,OVC023,0.00,VWS V14.01,2013-06-02 06:21:00,
2013-06-02 02:22:00,71.2,65.1,29.97,SW,225,4.9,4.9,81,0.00,,OVC023,0.00,VWS V14.01,2013-06-02 06:22:00,
2013-06-02 02:23:00,71.2,65.1,29.97,WSW,248,3.6,3.6,81,0.00,,OVC023,0.00,VWS V14.01,2013-06-02 06:23:00,
2013-06-02 02:24:00,71.2,65.1,29.97,SW,225,3.4,3.4,81,0.00,,OVC023,0.00,VWS V14.01,2013-06-02 06:24:00,
2013-06-02 02:25:00,71.0,64.9,29.97,WSW,248,3.1,3.1,81,0.00,,CLR,0.00,VWS V14.01,2013-06-02 06:25:00,
2013-06-02 02:26:00,71.2,65.1,29.97,SSW,202,5.8,5.8,81,0.00,,OVC023,0.00,VWS V14.01,2013-06-02 06:26:00,
2013-06-02 02:27:00,71.0,64.9,29.97,WSW,248,3.1,3.1,81,0.00,,OVC023,0.00,VWS V14.01,2013-06-02 06:27:00,
2013-06-02 02:28:00,71.0,65.3,29.97,SW,225,4.3,4.3,82,0.00,,OVC023,0.00,VWS V14.01,2013-06-02 06:28:00,
2013-06-02 02:29:00,71.0,65.3,29.97,West,270,4.5,4.5,82,0.00,,OVC023,0.00,VWS V14.01,2013-06-02 06:29:00,
2013-06-02 02:30:00,71.2,65.4,29.97,SW,225,4.0,4.0,82,0.00,,CLR,0.00,VWS V14.01,2013-06-02 06:30:00,
2013-06-02 02:31:00,71.2,65.4,29.97,SSW,202,4.3,4.3,82,0.00,,OVC023,0.00,VWS V14.01,2013-06-02 06:31:00,
2013-06-02 02:32:00,71.2,65.4,29.97,SW,225,4.0,4.0,82,0.00,,OVC023,0.00,VWS V14.01,2013-06-02 06:32:00,
2013-06-02 02:33:00,71.2,65.4,29.97,SW,225,6.0,6.0,82,0.00,,OVC023,0.00,VWS V14.01,2013-06-02 06:33:00,
2013-06-02 02:34:00,71.2,65.4,29.97,SW,225,7.6,7.6,82,0.00,,OVC023,0.00,VWS V14.01,2013-06-02 06:34:00,
2013-06-02 02:35:00,71.0,65.3,29.97,SSW,202,6.0,6.0,82,0.00,,CLR,0.00,VWS V14.01,2013-06-02 06:35:00,
2013-06-02 02:36:00,71.0,65.3,29.97,SSW,202,4.9,4.9,82,0.00,,OVC023,0.00,VWS V14.01,2013-06-02 06:36:00,
2013-06-02 02:37:00,71.0,65.3,29.97,SSW,202,6.3,6.3,82,0.00,,OVC023,0.00,VWS V14.01,2013-06-02 06:37:00,
2013-06-02 02:38:00,71.0,65.3,29.97,WSW,248,4.3,4.3,82,0.00,,OVC023,0.00,VWS V14.01,2013-06-02 06:38:00,
2013-06-02 02:39:00,71.0,65.3,29.97,WSW,248,4.0,4.0,82,0.00,,OVC023,0.00,VWS V14.01,2013-06-02 06:39:00,
2013-06-02 02:40:00,70.9,65.4,29.97,SW,225,3.1,3.1,83,0.00,,CLR,0.00,VWS V14.01,2013-06-02 06:40:00,
2013-06-02 02:41:00,71.0,65.6,29.97,SSW,202,3.6,3.6,83,0.00,,OVC023,0.00,VWS V14.01,2013-06-02 06:41:00,
2013-06-02 02:42:00,70.9,65.4,29.97,SW,225,3.6,3.6,83,0.00,,OVC023,0.00,VWS V14.01,2013-06-02 06:42:00,
2013-06-02 02:43:00,70.9,65.4,29.97,WSW,248,2.5,2.5,83,0.00,,OVC023,0.00,VWS V14.01,2013-06-02 06:43:00,
2013-06-02 02:44:00,70.9,65.4,29.97,SW,225,3.6,3.6,83,0.00,,OVC023,0.00,VWS V14.01,2013-06-02 06:44:00,
2013-06-02 02:45:00,70.7,65.6,29.97,SSW,202,4.0,4.0,84,0.00,,CLR,0.00,VWS V14.01,2013-06-02 06:45:00,
2013-06-02 02:46:00,70.9,65.4,29.97,SSW,202,5.4,5.4,83,0.00,,OVC023,0.00,VWS V14.01,2013-06-02 06:46:00,
2013-06-02 02:47:00,70.9,65.4,29.97,SSW,202,4.3,4.3,83,0.00,,OVC023,0.00,VWS V14.01,2013-06-02 06:47:00,
2013-06-02 02:48:00,70.7,65.6,29.97,SW,225,4.7,4.7,84,0.00,,OVC023,0.00,VWS V14.01,2013-06-02 06:48:00,
2013-06-02 02:49:00,70.7,65.6,29.97,SW,225,2.9,2.9,84,0.00,,OVC023,0.00,VWS V14.01,2013-06-02 06:49:00,
2013-06-02 02:50:00,70.7,65.6,29.97,SSW,202,2.9,2.9,84,0.00,,CLR,0.00,VWS V14.01,2013-06-02 06:50:00,
2013-06-02 02:51:00,70.7,65.6,29.97,SW,225,3.4,3.4,84,0.00,,OVC023,0.00,VWS V14.01,2013-06-02 06:51:00,
2013-06-02 02:52:00,70.7,65.6,29.97,SSW,202,2.0,2.0,84,0.00,,OVC023,0.00,VWS V14.01,2013-06-02 06:52:00,
2013-06-02 02:53:00,70.7,65.6,29.97,SSW,202,1.6,1.6,84,0.00,,OVC023,0.00,VWS V14.01,2013-06-02 06:53:00,
2013-06-02 02:54:00,70.5,65.4,29.97,SSW,202,3.6,3.6,84,0.00,,OVC023,0.00,VWS V14.01,2013-06-02 06:54:00,
2013-06-02 02:55:00,70.5,65.4,29.97,SSE,158,2.5,2.5,84,0.00,,CLR,0.00,VWS V14.01,2013-06-02 06:55:00,
2013-06-02 02:56:00,70.5,65.4,29.97,SSW,202,2.5,2.5,84,0.00,,OVC023,0.00,VWS V14.01,2013-06-02 06:56:00,
2013-06-02 02:57:00,70.5,65.4,29.97,SSW,202,2.5,2.5,84,0.00,,OVC023,0.00,VWS V14.01,2013-06-02 06:57:00,
2013-06-02 02:58:00,70.5,65.4,29.97,SSW,202,2.5,2.5,84,0.00,,OVC023,0.00,VWS V14.01,2013-06-02 06:58:00,
2013-06-02 02:59:00,70.5,65.8,29.97,SSW,202,2.5,2.5,85,0.00,,OVC023,0.00,VWS V14.01,2013-06-02 06:59:00,
2013-06-02 03:00:00,70.5,65.8,29.97,SSW,202,2.2,2.2,85,0.00,,OVC023,0.00,VWS V14.01,2013-06-02 07:00:00,
2013-06-02 03:01:00,70.5,65.8,29.94,South,180,3.4,3.4,85,0.00,,CLR,0.00,VWS V14.01,2013-06-02 07:01:00,
2013-06-02 03:02:00,70.5,65.8,29.94,SSW,202,2.5,2.5,85,0.00,,OVC023,0.00,VWS V14.01,2013-06-02 07:02:00,
2013-06-02 03:03:00,70.5,65.8,29.94,SSW,202,4.9,4.9,85,0.00,,OVC023,0.00,VWS V14.01,2013-06-02 07:03:00,
2013-06-02 03:04:00,70.3,65.6,29.94,SSW,202,2.7,2.7,85,0.00,,OVC023,0.00,VWS V14.01,2013-06-02 07:04:00,
2013-06-02 03:05:00,70.3,65.6,29.94,South,180,2.5,2.5,85,0.00,,OVC023,0.00,VWS V14.01,2013-06-02 07:05:00,
2013-06-02 03:06:00,70.3,65.6,29.94,SSW,202,2.9,2.9,85,0.00,,CLR,0.00,VWS V14.01,2013-06-02 07:06:00,
2013-06-02 03:07:00,70.3,65.6,29.94,South,180,2.5,2.5,85,0.00,,OVC023,0.00,VWS V14.01,2013-06-02 07:07:00,
2013-06-02 03:08:00,70.3,65.6,29.94,SSW,202,2.9,2.9,85,0.00,,OVC023,0.00,VWS V14.01,2013-06-02 07:08:00,
2013-06-02 03:09:00,70.3,65.6,29.94,SW,225,2.5,2.5,85,0.00,,OVC023,0.00,VWS V14.01,2013-06-02 07:09:00,
2013-06-02 03:10:00,70.3,65.6,29.94,SSW,202,3.8,3.8,85,0.00,,OVC023,0.00,VWS V14.01,2013-06-02 07:10:00,
2013-06-02 03:11:00,70.3,66.3,29.94,SSW,202,3.4,3.4,87,0.00,,CLR,0.00,VWS V14.01,2013-06-02 07:11:00,
2013-06-02 03:12:00,70.3,66.3,29.94,SW,225,3.4,3.4,87,0.00,,OVC023,0.00,VWS V14.01,2013-06-02 07:12:00,
2013-06-02 03:13:00,70.3,66.3,29.94,SSW,202,3.4,3.4,87,0.00,,OVC023,0.00,VWS V14.01,2013-06-02 07:13:00,
2013-06-02 03:14:00,70.3,66.3,29.94,SSW,202,2.9,2.9,87,0.00,,OVC023,0.00,VWS V14.01,2013-06-02 07:14:00,
2013-06-02 03:15:00,70.1,66.1,29.94,SSW,202,2.7,2.7,87,0.00,,OVC023,0.00,VWS V14.01,2013-06-02 07:15:00,
2013-06-02 03:16:00,70.1,66.1,30.00,South,180,3.4,3.4,87,0.00,,CLR,0.00,VWS V14.01,2013-06-02 07:16:00,
2013-06-02 03:17:00,70.1,66.4,30.00,South,180,2.5,2.5,88,0.00,,OVC023,0.00,VWS V14.01,2013-06-02 07:17:00,
2013-06-02 03:18:00,70.1,66.1,30.00,South,180,3.4,3.4,87,0.00,,OVC023,0.00,VWS V14.01,2013-06-02 07:18:00,
2013-06-02 03:19:00,70.1,66.1,30.00,South,180,3.8,3.8,87,0.00,,OVC023,0.00,VWS V14.01,2013-06-02 07:19:00,
2013-06-02 03:20:00,70.1,66.4,30.00,South,180,3.4,3.4,88,0.00,,OVC023,0.00,VWS V14.01,2013-06-02 07:20:00,
2013-06-02 03:21:00,70.3,66.6,30.00,SW,225,5.4,5.4,88,0.00,,CLR,0.00,VWS V14.01,2013-06-02 07:21:00,
2013-06-02 03:22:00,70.3,66.6,30.00,SSW,202,4.9,4.9,88,0.00,,OVC023,0.00,VWS V14.01,2013-06-02 07:22:00,
2013-06-02 03:23:00,70.3,66.6,30.00,SW,225,5.4,5.4,88,0.00,,OVC023,0.00,VWS V14.01,2013-06-02 07:23:00,
2013-06-02 03:24:00,70.1,66.8,30.00,SSW,202,3.1,3.1,89,0.00,,OVC023,0.00,VWS V14.01,2013-06-02 07:24:00,
2013-06-02 03:25:00,70.1,66.8,30.00,SSE,158,3.4,3.4,89,0.00,,OVC023,0.00,VWS V14.01,2013-06-02 07:25:00,
2013-06-02 03:26:00,70.1,66.4,30.00,SSE,158,3.1,3.1,88,0.00,,CLR,0.00,VWS V14.01,2013-06-02 07:26:00,
2013-06-02 03:27:00,70.1,66.8,30.00,SSW,202,3.1,3.1,89,0.00,,OVC023,0.00,VWS V14.01,2013-06-02 07:27:00,
2013-06-02 03:28:00,70.1,66.4,30.00,SSE,158,3.1,3.1,88,0.00,,OVC023,0.00,VWS V14.01,2013-06-02 07:28:00,
2013-06-02 03:29:00,70.1,66.4,30.00,SSE,158,2.9,2.9,88,0.00,,OVC023,0.00,VWS V14.01,2013-06-02 07:29:00,
2013-06-02 03:30:00,70.1,66.4,30.00,SE,135,2.7,2.7,88,0.00,,OVC023,0.00,VWS V14.01,2013-06-02 07:30:00,
2013-06-02 03:31:00,70.1,66.4,29.97,South,180,3.1,3.1,88,0.00,,CLR,0.00,VWS V14.01,2013-06-02 07:31:00,
2013-06-02 03:32:00,70.1,66.4,29.97,SSE,158,2.5,2.5,88,0.00,,OVC023,0.00,VWS V14.01,2013-06-02 07:32:00,
2013-06-02 03:33:00,70.1,66.4,29.97,South,180,3.1,3.1,88,0.00,,OVC023,0.00,VWS V14.01,2013-06-02 07:33:00,
2013-06-02 03:34:00,70.1,66.4,29.97,SSE,158,2.5,2.5,88,0.00,,OVC023,0.00,VWS V14.01,2013-06-02 07:34:00,
2013-06-02 03:35:00,70.1,66.4,29.97,SE,135,3.8,3.8,88,0.00,,OVC023,0.00,VWS V14.01,2013-06-02 07:35:00,
2013-06-02 03:36:00,70.0,66.2,29.97,WSW,248,2.2,2.2,88,0.00,,CLR,0.00,VWS V14.01,2013-06-02 07:36:00,
2013-06-02 03:37:00,70.0,66.2,29.97,SSW,202,2.0,2.0,88,0.00,,OVC023,0.00,VWS V14.01,2013-06-02 07:37:00,
2013-06-02 03:38:00,70.0,66.2,29.97,WSW,248,2.2,2.2,88,0.00,,OVC023,0.00,VWS V14.01,2013-06-02 07:38:00,
2013-06-02 03:39:00,70.0,66.2,29.97,SSE,158,2.2,2.2,88,0.00,,OVC023,0.00,VWS V14.01,2013-06-02 07:39:00,
2013-06-02 03:40:00,70.0,66.2,29.97,SSW,202,2.5,2.5,88,0.00,,OVC023,0.00,VWS V14.01,2013-06-02 07:40:00,
2013-06-02 03:41:00,69.8,66.4,29.97,SE,135,2.5,2.5,89,0.00,,FEW055,0.00,VWS V14.01,2013-06-02 07:41:00,
2013-06-02 03:42:00,70.0,66.6,29.97,SSW,202,3.1,3.1,89,0.00,,OVC023,0.00,VWS V14.01,2013-06-02 07:42:00,
2013-06-02 03:43:00,69.8,66.4,29.97,SSE,158,3.1,3.1,89,0.00,,OVC023,0.00,VWS V14.01,2013-06-02 07:43:00,
2013-06-02 03:44:00,70.0,66.9,29.97,South,180,3.8,3.8,90,0.00,,OVC023,0.00,VWS V14.01,2013-06-02 07:44:00,
2013-06-02 03:45:00,70.0,66.9,29.97,South,180,2.9,2.9,90,0.00,,OVC023,0.00,VWS V14.01,2013-06-02 07:45:00,
2013-06-02 03:46:00,69.8,67.0,29.97,SSW,202,3.8,3.8,91,0.00,,FEW055,0.00,VWS V14.01,2013-06-02 07:46:00,
2013-06-02 03:47:00,70.0,67.2,29.97,SSW,202,1.6,1.6,91,0.00,,OVC023,0.00,VWS V14.01,2013-06-02 07:47:00,
2013-06-02 03:48:00,69.8,67.0,29.97,SSW,202,3.8,3.8,91,0.00,,OVC023,0.00,VWS V14.01,2013-06-02 07:48:00,
2013-06-02 03:49:00,69.8,67.0,29.97,SSW,202,2.5,2.5,91,0.00,,OVC023,0.00,VWS V14.01,2013-06-02 07:49:00,
2013-06-02 03:50:00,69.8,66.7,29.97,SSE,158,2.7,2.7,90,0.00,,OVC023,0.00,VWS V14.01,2013-06-02 07:50:00,
2013-06-02 03:51:00,69.8,66.7,29.97,South,180,2.0,2.0,90,0.00,,FEW055,0.00,VWS V14.01,2013-06-02 07:51:00,
2013-06-02 03:52:00,69.8,66.7,29.97,SSE,158,2.2,2.2,90,0.00,,OVC023,0.00,VWS V14.01,2013-06-02 07:52:00,
2013-06-02 03:53:00,69.8,66.7,29.97,SSW,202,4.0,4.0,90,0.00,,OVC023,0.00,VWS V14.01,2013-06-02 07:53:00,
2013-06-02 03:54:00,70.0,67.2,29.97,SE,135,2.9,2.9,91,0.00,,OVC023,0.00,VWS V14.01,2013-06-02 07:54:00,
2013-06-02 03:55:00,69.8,67.0,29.97,South,180,4.3,4.3,91,0.00,,OVC023,0.00,VWS V14.01,2013-06-02 07:55:00,
2013-06-02 03:56:00,70.1,67.7,29.97,SSW,202,3.8,3.8,92,0.00,,FEW055,0.00,VWS V14.01,2013-06-02 07:56:00,
2013-06-02 03:57:00,69.8,67.0,29.97,SW,225,6.3,6.3,91,0.00,,OVC023,0.00,VWS V14.01,2013-06-02 07:57:00,
2013-06-02 03:58:00,70.1,67.7,29.97,SSW,202,3.8,3.8,92,0.00,,OVC023,0.00,VWS V14.01,2013-06-02 07:58:00,
2013-06-02 03:59:00,70.1,67.7,29.97,SSW,202,2.5,2.5,92,0.00,,OVC023,0.00,VWS V14.01,2013-06-02 07:59:00,
2013-06-02 04:00:00,69.8,67.7,29.97,South,180,4.3,4.3,93,0.00,,OVC023,0.00,VWS V14.01,2013-06-02 08:00:00,
2013-06-02 04:01:00,69.8,67.7,29.97,South,180,2.7,2.7,93,0.00,,OVC023,0.00,VWS V14.01,2013-06-02 08:01:00,
2013-06-02 04:02:00,70.1,68.3,29.94,SW,225,5.8,5.8,94,0.00,,FEW055,0.00,VWS V14.01,2013-06-02 08:02:00,
2013-06-02 04:03:00,70.0,67.8,29.94,WSW,248,3.6,3.6,93,0.00,,OVC023,0.00,VWS V14.01,2013-06-02 08:03:00,
2013-06-02 04:04:00,70.1,68.3,29.94,SSW,202,5.8,5.8,94,0.00,,OVC023,0.00,VWS V14.01,2013-06-02 08:04:00,
2013-06-02 04:05:00,70.1,68.6,29.94,SSE,158,4.3,4.3,95,0.00,,OVC023,0.00,VWS V14.01,2013-06-02 08:05:00,
2013-06-02 04:06:00,70.1,68.9,29.94,SSW,202,4.3,4.3,96,0.00,,OVC023,0.00,VWS V14.01,2013-06-02 08:06:00,
2013-06-02 04:07:00,70.1,69.6,29.94,SSW,202,3.8,3.8,98,0.00,,FEW055,0.00,VWS V14.01,2013-06-02 08:07:00,
2013-06-02 04:08:00,70.1,69.2,29.94,SSE,158,4.9,4.9,97,0.00,,OVC023,0.00,VWS V14.01,2013-06-02 08:08:00,
2013-06-02 04:09:00,70.1,69.6,29.94,SSW,202,3.1,3.1,98,0.00,,OVC023,0.00,VWS V14.01,2013-06-02 08:09:00,
2013-06-02 04:10:00,70.1,69.6,29.94,SSW,202,3.8,3.8,98,0.00,,OVC023,0.00,VWS V14.01,2013-06-02 08:10:00,
2013-06-02 04:11:00,70.1,69.6,29.94,SSW,202,4.0,4.0,98,0.00,,OVC023,0.00,VWS V14.01,2013-06-02 08:11:00,
2013-06-02 04:12:00,70.1,69.8,29.94,SSW,202,3.8,3.8,99,0.00,,FEW055,0.00,VWS V14.01,2013-06-02 08:12:00,
2013-06-02 04:13:00,70.1,69.8,29.94,SSE,158,2.9,2.9,99,0.00,,OVC023,0.00,VWS V14.01,2013-06-02 08:13:00,
2013-06-02 04:14:00,70.1,69.8,29.94,SSW,202,5.4,5.4,99,0.00,,OVC023,0.00,VWS V14.01,2013-06-02 08:14:00,
2013-06-02 04:15:00,70.1,69.8,29.94,SSW,202,3.4,3.4,99,0.00,,OVC023,0.00,VWS V14.01,2013-06-02 08:15:00,
2013-06-02 04:16:00,70.1,70.1,29.94,SSW,202,4.9,4.9,100,0.00,,OVC023,0.00,VWS V14.01,2013-06-02 08:16:00,
2013-06-02 04:17:00,70.3,70.3,29.94,SW,225,5.8,5.8,100,0.00,,FEW055,0.00,VWS V14.01,2013-06-02 08:17:00,
2013-06-02 04:18:00,70.3,70.3,29.94,SW,225,3.8,3.8,100,0.00,,OVC023,0.00,VWS V14.01,2013-06-02 08:18:00,
2013-06-02 04:19:00,70.3,70.3,29.94,SW,225,5.8,5.8,100,0.00,,OVC023,0.00,VWS V14.01,2013-06-02 08:19:00,
2013-06-02 04:20:00,70.3,70.3,29.94,SW,225,4.3,4.3,100,0.00,,OVC023,0.00,VWS V14.01,2013-06-02 08:20:00,
2013-06-02 04:21:00,70.3,70.3,29.94,SW,225,3.1,3.1,100,0.00,,OVC023,0.00,VWS V14.01,2013-06-02 08:21:00,
2013-06-02 04:22:00,70.5,70.5,29.94,SW,225,4.3,4.3,100,0.00,,FEW055,0.00,VWS V14.01,2013-06-02 08:22:00,
2013-06-02 04:23:00,70.3,70.3,29.94,WSW,248,6.5,6.5,100,0.00,,OVC023,0.00,VWS V14.01,2013-06-02 08:23:00,
2013-06-02 04:24:00,70.5,70.5,29.94,SW,225,4.3,4.3,100,0.00,,OVC023,0.00,VWS V14.01,2013-06-02 08:24:00,
2013-06-02 04:25:00,70.3,70.3,29.94,WSW,248,2.7,2.7,100,0.00,,OVC023,0.00,VWS V14.01,2013-06-02 08:25:00,
2013-06-02 04:26:00,70.3,70.3,29.94,SSW,202,3.4,3.4,100,0.00,,OVC023,0.00,VWS V14.01,2013-06-02 08:26:00,
2013-06-02 04:27:00,70.3,70.3,29.94,SSW,202,3.8,3.8,100,0.00,,FEW055,0.00,VWS V14.01,2013-06-02 08:27:00,
2013-06-02 04:28:00,70.3,70.3,29.94,SSW,202,4.0,4.0,100,0.00,,OVC023,0.00,VWS V14.01,2013-06-02 08:28:00,
2013-06-02 04:29:00,70.3,70.3,29.94,SSW,202,3.8,3.8,100,0.00,,OVC023,0.00,VWS V14.01,2013-06-02 08:29:00,
2013-06-02 04:30:00,70.3,70.3,29.94,SW,225,4.9,4.9,100,0.00,,OVC023,0.00,VWS V14.01,2013-06-02 08:30:00,
2013-06-02 04:31:00,70.3,70.3,29.94,SW,225,4.3,4.3,100,0.00,,OVC023,0.00,VWS V14.01,2013-06-02 08:31:00,
2013-06-02 04:32:00,70.3,70.3,29.97,SSW,202,6.0,6.0,100,0.00,,FEW055,0.00,VWS V14.01,2013-06-02 08:32:00,
2013-06-02 04:33:00,70.3,70.3,29.97,SW,225,3.6,3.6,100,0.00,,OVC023,0.00,VWS V14.01,2013-06-02 08:33:00,
2013-06-02 04:34:00,70.3,70.3,29.97,SSW,202,6.0,6.0,100,0.00,,OVC023,0.00,VWS V14.01,2013-06-02 08:34:00,
2013-06-02 04:35:00,70.1,70.1,29.97,SW,225,4.0,4.0,100,0.00,,OVC023,0.00,VWS V14.01,2013-06-02 08:35:00,
2013-06-02 04:36:00,70.1,70.1,29.97,SW,225,6.0,6.0,100,0.00,,OVC023,0.00,VWS V14.01,2013-06-02 08:36:00,
2013-06-02 04:37:00,70.3,70.3,29.97,West,270,3.6,3.6,100,0.00,,FEW055,0.00,VWS V14.01,2013-06-02 08:37:00,
2013-06-02 04:38:00,70.3,70.3,29.97,West,270,4.3,4.3,100,0.00,,OVC023,0.00,VWS V14.01,2013-06-02 08:38:00,
2013-06-02 04:39:00,70.3,70.3,29.97,WSW,248,3.8,3.8,100,0.00,,OVC023,0.00,VWS V14.01,2013-06-02 08:39:00,
2013-06-02 04:40:00,70.3,70.3,29.97,SW,225,6.0,6.0,100,0.00,,OVC023,0.00,VWS V14.01,2013-06-02 08:40:00,
2013-06-02 04:41:00,70.3,70.3,29.97,WSW,248,6.0,6.0,100,0.00,,OVC023,0.00,VWS V14.01,2013-06-02 08:41:00,
2013-06-02 04:42:00,70.5,70.5,29.97,WSW,248,5.4,5.4,100,0.00,,CLR,0.00,VWS V14.01,2013-06-02 08:42:00,
2013-06-02 04:43:00,70.3,70.3,29.97,WSW,248,3.1,3.1,100,0.00,,OVC023,0.00,VWS V14.01,2013-06-02 08:43:00,
2013-06-02 04:44:00,70.5,70.5,29.97,SW,225,5.8,5.8,100,0.00,,OVC023,0.00,VWS V14.01,2013-06-02 08:44:00,
2013-06-02 04:45:00,70.5,70.5,29.97,West,270,5.8,5.8,100,0.00,,OVC023,0.00,VWS V14.01,2013-06-02 08:45:00,
2013-06-02 04:46:00,70.5,70.5,29.97,SW,225,7.6,7.6,100,0.00,,OVC023,0.00,VWS V14.01,2013-06-02 08:46:00,
2013-06-02 04:47:00,70.5,70.5,29.97,WSW,248,4.3,4.3,100,0.00,,CLR,0.00,VWS V14.01,2013-06-02 08:47:00,
2013-06-02 04:48:00,70.5,70.5,29.97,WSW,248,4.3,4.3,100,0.00,,OVC023,0.00,VWS V14.01,2013-06-02 08:48:00,
2013-06-02 04:49:00,70.5,70.5,29.97,WSW,248,7.2,7.2,100,0.00,,OVC023,0.00,VWS V14.01,2013-06-02 08:49:00,
2013-06-02 04:50:00,70.5,70.5,29.97,SW,225,6.0,6.0,100,0.00,,OVC023,0.00,VWS V14.01,2013-06-02 08:50:00,
2013-06-02 04:51:00,70.5,70.5,29.97,SW,225,7.8,7.8,100,0.00,,OVC023,0.00,VWS V14.01,2013-06-02 08:51:00,
2013-06-02 04:52:00,70.5,70.5,29.97,SW,225,6.0,6.0,100,0.00,,CLR,0.00,VWS V14.01,2013-06-02 08:52:00,
2013-06-02 04:53:00,70.5,70.5,29.97,WSW,248,5.4,5.4,100,0.00,,OVC023,0.00,VWS V14.01,2013-06-02 08:53:00,
2013-06-02 04:54:00,70.5,70.5,29.97,WSW,248,5.4,5.4,100,0.00,,OVC023,0.00,VWS V14.01,2013-06-02 08:54:00,
2013-06-02 04:55:00,70.7,70.7,29.97,SW,225,5.6,5.6,100,0.00,,OVC023,0.00,VWS V14.01,2013-06-02 08:55:00,
2013-06-02 04:56:00,70.7,70.7,29.97,WSW,248,3.8,3.8,100,0.00,,OVC023,0.00,VWS V14.01,2013-06-02 08:56:00,
2013-06-02 04:57:00,70.7,70.7,29.97,West,270,6.3,6.3,100,0.00,,OVC023,0.00,VWS V14.01,2013-06-02 08:57:00,
2013-06-02 04:58:00,70.7,70.7,29.97,SW,225,8.1,8.1,100,0.00,,BKN009,0.00,VWS V14.01,2013-06-02 08:58:00,
2013-06-02 04:59:00,70.7,70.7,29.97,SW,225,5.8,5.8,100,0.00,,OVC023,0.00,VWS V14.01,2013-06-02 08:59:00,
2013-06-02 05:00:00,70.9,70.9,29.97,SW,225,8.1,8.1,100,0.00,,OVC023,0.00,VWS V14.01,2013-06-02 09:00:00,
2013-06-02 05:01:00,70.9,70.9,29.97,SW,225,7.8,7.8,100,0.00,,OVC023,0.00,VWS V14.01,2013-06-02 09:01:00,
2013-06-02 05:02:00,70.9,70.9,29.97,SW,225,6.0,6.0,100,0.00,,OVC023,0.00,VWS V14.01,2013-06-02 09:02:00,
2013-06-02 05:03:00,70.9,70.9,29.97,SW,225,9.6,9.6,100,0.00,,BKN009,0.00,VWS V14.01,2013-06-02 09:03:00,
2013-06-02 05:04:00,70.9,70.9,29.97,SW,225,6.3,6.3,100,0.00,,OVC023,0.00,VWS V14.01,2013-06-02 09:04:00,
2013-06-02 05:05:00,70.9,70.9,29.97,West,270,7.2,7.2,100,0.00,,OVC023,0.00,VWS V14.01,2013-06-02 09:05:00,
2013-06-02 05:06:00,70.9,70.6,29.97,WSW,248,4.3,4.3,99,0.00,,OVC023,0.00,VWS V14.01,2013-06-02 09:06:00,
2013-06-02 05:07:00,71.0,70.8,29.97,WSW,248,5.4,5.4,99,0.00,,OVC023,0.00,VWS V14.01,2013-06-02 09:07:00,
2013-06-02 05:08:00,71.0,70.8,29.97,SW,225,3.8,3.8,99,0.00,,BKN009,0.00,VWS V14.01,2013-06-02 09:08:00,
2013-06-02 05:09:00,71.0,70.8,29.97,SSW,202,5.4,5.4,99,0.00,,OVC023,0.00,VWS V14.01,2013-06-02 09:09:00,
2013-06-02 05:10:00,71.0,70.8,29.97,SW,225,3.8,3.8,99,0.00,,OVC023,0.00,VWS V14.01,2013-06-02 09:10:00,
2013-06-02 05:11:00,71.0,70.8,29.97,SSW,202,5.6,5.6,99,0.00,,OVC023,0.00,VWS V14.01,2013-06-02 09:11:00,
2013-06-02 05:12:00,71.0,70.8,29.97,West,270,5.8,5.8,99,0.00,,OVC023,0.00,VWS V14.01,2013-06-02 09:12:00,
2013-06-02 05:13:00,71.0,70.8,29.97,WSW,248,6.3,6.3,99,0.00,,BKN009,0.00,VWS V14.01,2013-06-02 09:13:00,
2013-06-02 05:14:00,71.0,70.8,29.97,WSW,248,3.6,3.6,99,0.00,,OVC023,0.00,VWS V14.01,2013-06-02 09:14:00,
2013-06-02 05:15:00,71.0,70.8,29.97,WSW,248,5.6,5.6,99,0.00,,OVC023,0.00,VWS V14.01,2013-06-02 09:15:00,
2013-06-02 05:16:00,71.0,70.8,29.97,SW,225,3.1,3.1,99,0.00,,OVC023,0.00,VWS V14.01,2013-06-02 09:16:00,
2013-06-02 05:17:00,71.0,70.8,29.97,SW,225,6.3,6.3,99,0.00,,OVC023,0.00,VWS V14.01,2013-06-02 09:17:00,
2013-06-02 05:18:00,71.0,70.4,29.97,WSW,248,5.8,5.8,98,0.00,,BKN009,0.00,VWS V14.01,2013-06-02 09:18:00,
2013-06-02 05:19:00,71.0,70.8,29.97,SW,225,4.3,4.3,99,0.00,,OVC023,0.00,VWS V14.01,2013-06-02 09:19:00,
2013-06-02 05:20:00,71.0,70.4,29.97,WSW,248,5.8,5.8,98,0.00,,OVC023,0.00,VWS V14.01,2013-06-02 09:20:00,
2013-06-02 05:21:00,71.0,70.4,29.97,West,270,5.8,5.8,98,0.00,,OVC023,0.00,VWS V14.01,2013-06-02 09:21:00,
2013-06-02 05:22:00,71.0,70.4,29.97,SW,225,4.0,4.0,98,0.00,,OVC023,0.00,VWS V14.01,2013-06-02 09:22:00,
2013-06-02 05:23:00,70.9,70.3,29.97,WSW,248,4.0,4.0,98,0.00,,BKN009,0.00,VWS V14.01,2013-06-02 09:23:00,
2013-06-02 05:24:00,70.9,70.3,29.97,SW,225,7.2,7.2,98,0.00,,OVC023,0.00,VWS V14.01,2013-06-02 09:24:00,
2013-06-02 05:25:00,70.9,70.3,29.97,WSW,248,4.0,4.0,98,0.00,,OVC023,0.00,VWS V14.01,2013-06-02 09:25:00,
2013-06-02 05:26:00,70.9,70.3,29.97,WSW,248,3.4,3.4,98,0.00,,OVC023,0.00,VWS V14.01,2013-06-02 09:26:00,
2013-06-02 05:27:00,70.9,70.3,29.97,SSW,202,4.3,4.3,98,0.00,,OVC023,0.00,VWS V14.01,2013-06-02 09:27:00,
2013-06-02 05:28:00,70.9,70.3,29.97,WSW,248,5.6,5.6,98,0.00,,BKN009,0.00,VWS V14.01,2013-06-02 09:28:00,
2013-06-02 05:29:00,70.9,70.3,29.97,SSW,202,3.1,3.1,98,0.00,,OVC023,0.00,VWS V14.01,2013-06-02 09:29:00,
2013-06-02 05:30:00,70.9,70.3,29.97,WSW,248,4.7,4.7,98,0.00,,OVC023,0.00,VWS V14.01,2013-06-02 09:30:00,
2013-06-02 05:31:00,70.9,70.3,29.97,SSW,202,4.3,4.3,98,0.00,,OVC023,0.00,VWS V14.01,2013-06-02 09:31:00,
2013-06-02 05:32:00,70.9,70.3,30.00,SW,225,3.1,3.1,98,0.00,,OVC023,0.00,VWS V14.01,2013-06-02 09:32:00,
2013-06-02 05:33:00,70.9,70.6,30.00,West,270,4.7,4.7,99,0.00,,BKN009,0.00,VWS V14.01,2013-06-02 09:33:00,
2013-06-02 05:34:00,70.9,70.3,30.00,West,270,5.4,5.4,98,0.00,,OVC023,0.00,VWS V14.01,2013-06-02 09:34:00,
2013-06-02 05:35:00,70.9,70.6,30.00,West,270,4.7,4.7,99,0.00,,OVC023,0.00,VWS V14.01,2013-06-02 09:35:00,
2013-06-02 05:36:00,70.9,70.6,30.00,SW,225,4.3,4.3,99,0.00,,OVC023,0.00,VWS V14.01,2013-06-02 09:36:00,
2013-06-02 05:37:00,70.9,70.6,30.00,SW,225,2.9,2.9,99,0.00,,OVC023,0.00,VWS V14.01,2013-06-02 09:37:00,
2013-06-02 05:38:00,70.9,70.6,30.00,SSW,202,4.3,4.3,99,0.00,,BKN009,0.00,VWS V14.01,2013-06-02 09:38:00,
2013-06-02 05:39:00,70.9,70.6,30.00,WSW,248,4.3,4.3,99,0.00,,OVC023,0.00,VWS V14.01,2013-06-02 09:39:00,
2013-06-02 05:40:00,70.9,70.6,30.00,WSW,248,4.0,4.0,99,0.00,,OVC023,0.00,VWS V14.01,2013-06-02 09:40:00,
2013-06-02 05:41:00,70.9,70.3,30.00,SSW,202,4.9,4.9,98,0.00,,OVC023,0.00,VWS V14.01,2013-06-02 09:41:00,
2013-06-02 05:42:00,70.9,70.3,30.00,WSW,248,3.1,3.1,98,0.00,,OVC023,0.00,VWS V14.01,2013-06-02 09:42:00,
2013-06-02 05:43:00,70.9,70.6,30.00,SW,225,3.4,3.4,99,0.00,,BKN011,0.00,VWS V14.01,2013-06-02 09:43:00,
2013-06-02 05:44:00,70.9,70.6,30.00,SW,225,3.8,3.8,99,0.00,,OVC023,0.00,VWS V14.01,2013-06-02 09:44:00,
2013-06-02 05:45:00,70.9,70.6,30.00,West,270,4.0,4.0,99,0.00,,OVC023,0.00,VWS V14.01,2013-06-02 09:45:00,
2013-06-02 05:46:00,70.9,70.6,29.97,SW,225,3.6,3.6,99,0.00,,OVC023,0.00,VWS V14.01,2013-06-02 09:46:00,
2013-06-02 05:47:00,70.9,70.6,29.97,SW,225,3.1,3.1,99,0.00,,OVC023,0.00,VWS V14.01,2013-06-02 09:47:00,
2013-06-02 05:48:00,70.7,70.4,29.97,WSW,248,6.7,6.7,99,0.00,,BKN011,0.00,VWS V14.01,2013-06-02 09:48:00,
2013-06-02 05:49:00,70.9,70.6,29.97,SSW,202,3.1,3.1,99,0.00,,OVC023,0.00,VWS V14.01,2013-06-02 09:49:00,
2013-06-02 05:50:00,70.9,70.6,29.97,SW,225,4.3,4.3,99,0.00,,OVC023,0.00,VWS V14.01,2013-06-02 09:50:00,
2013-06-02 05:51:00,70.7,70.4,29.97,WSW,248,9.4,9.4,99,0.00,,OVC023,0.00,VWS V14.01,2013-06-02 09:51:00,
2013-06-02 05:52:00,70.9,70.6,29.97,WSW,248,3.8,3.8,99,0.00,,OVC023,0.00,VWS V14.01,2013-06-02 09:52:00,
2013-06-02 05:53:00,70.9,70.6,29.97,WSW,248,6.3,6.3,99,0.00,,OVC023,0.00,VWS V14.01,2013-06-02 09:53:00,
2013-06-02 05:54:00,70.9,70.6,29.97,WSW,248,3.8,3.8,99,0.00,,BKN011,0.00,VWS V14.01,2013-06-02 09:54:00,
2013-06-02 05:55:00,70.9,70.6,29.97,SSW,202,4.3,4.3,99,0.00,,OVC023,0.00,VWS V14.01,2013-06-02 09:55:00,
2013-06-02 05:56:00,70.9,70.6,29.97,SW,225,4.0,4.0,99,0.00,,OVC023,0.00,VWS V14.01,2013-06-02 09:56:00,
2013-06-02 05:57:00,70.9,70.6,29.97,SSW,202,4.0,4.0,99,0.00,,OVC023,0.00,VWS V14.01,2013-06-02 09:57:00,
2013-06-02 05:58:00,70.9,70.6,29.97,WSW,248,4.9,4.9,99,0.00,,OVC023,0.00,VWS V14.01,2013-06-02 09:58:00,
2013-06-02 05:59:00,70.9,70.6,29.97,SSW,202,2.0,2.0,99,0.00,,BKN011,0.00,VWS V14.01,2013-06-02 09:59:00,
2013-06-02 06:00:00,70.9,70.6,29.97,South,180,3.6,3.6,99,0.00,,OVC023,0.00,VWS V14.01,2013-06-02 10:00:00,
2013-06-02 06:01:00,70.9,70.6,29.97,WSW,248,4.0,4.0,99,0.00,,OVC023,0.00,VWS V14.01,2013-06-02 10:01:00,
2013-06-02 06:02:00,70.9,70.6,29.97,SW,225,4.3,4.3,99,0.00,,OVC023,0.00,VWS V14.01,2013-06-02 10:02:00,
2013-06-02 06:03:00,70.9,70.6,29.97,SSW,202,5.8,5.8,99,0.00,,OVC023,0.00,VWS V14.01,2013-06-02 10:03:00,
2013-06-02 06:04:00,70.9,70.6,29.97,SSW,202,4.3,4.3,99,0.00,,BKN011,0.00,VWS V14.01,2013-06-02 10:04:00,
2013-06-02 06:05:00,70.9,70.6,29.97,SW,225,4.3,4.3,99,0.00,,OVC023,0.00,VWS V14.01,2013-06-02 10:05:00,
2013-06-02 06:06:00,70.9,70.6,29.97,SW,225,3.1,3.1,99,0.00,,OVC023,0.00,VWS V14.01,2013-06-02 10:06:00,
2013-06-02 06:08:00,70.7,70.4,29.97,SW,225,4.5,4.5,99,0.00,,OVC023,0.00,VWS V14.01,2013-06-02 10:08:00,
2013-06-02 06:09:00,70.9,70.6,29.97,SW,225,4.9,4.9,99,0.00,,BKN011,0.00,VWS V14.01,2013-06-02 10:09:00,
2013-06-02 06:10:00,70.7,70.4,29.97,SW,225,4.9,4.9,99,0.00,,OVC023,0.00,VWS V14.01,2013-06-02 10:10:00,
2013-06-02 06:11:00,70.9,70.6,29.97,SW,225,3.6,3.6,99,0.00,,OVC023,0.00,VWS V14.01,2013-06-02 10:11:00,
2013-06-02 06:12:00,70.9,70.6,29.97,WSW,248,5.4,5.4,99,0.00,,OVC023,0.00,VWS V14.01,2013-06-02 10:12:00,
2013-06-02 06:13:00,70.9,70.6,29.97,SW,225,6.0,6.0,99,0.00,,OVC023,0.00,VWS V14.01,2013-06-02 10:13:00,
2013-06-02 06:14:00,70.9,70.3,29.97,SW,225,6.3,6.3,98,0.00,,BKN011,0.00,VWS V14.01,2013-06-02 10:14:00,
2013-06-02 06:15:00,70.9,70.3,29.97,SW,225,4.9,4.9,98,0.00,,OVC023,0.00,VWS V14.01,2013-06-02 10:15:00,
2013-06-02 06:16:00,70.9,70.3,29.97,WSW,248,5.8,5.8,98,0.00,,OVC023,0.00,VWS V14.01,2013-06-02 10:16:00,
2013-06-02 06:17:00,70.9,70.3,29.97,SW,225,4.0,4.0,98,0.00,,OVC023,0.00,VWS V14.01,2013-06-02 10:17:00,
2013-06-02 06:18:00,70.9,70.3,29.97,SSW,202,4.9,4.9,98,0.00,,OVC023,0.00,VWS V14.01,2013-06-02 10:18:00,
2013-06-02 06:19:00,70.9,70.6,29.97,SSW,202,5.6,5.6,99,0.00,,BKN011,0.00,VWS V14.01,2013-06-02 10:19:00,
2013-06-02 06:20:00,70.9,70.6,29.97,WSW,248,4.3,4.3,99,0.00,,OVC023,0.00,VWS V14.01,2013-06-02 10:20:00,
2013-06-02 06:21:00,70.9,70.6,29.97,SSW,202,5.6,5.6,99,0.00,,OVC023,0.00,VWS V14.01,2013-06-02 10:21:00,
2013-06-02 06:22:00,70.9,70.3,29.97,SW,225,5.8,5.8,98,0.00,,OVC023,0.00,VWS V14.01,2013-06-02 10:22:00,
2013-06-02 06:23:00,70.9,70.3,29.97,SSW,202,5.4,5.4,98,0.00,,OVC023,0.00,VWS V14.01,2013-06-02 10:23:00,
2013-06-02 06:24:00,71.0,70.4,29.97,WSW,248,3.6,3.6,98,0.00,,BKN011,0.00,VWS V14.01,2013-06-02 10:24:00,
2013-06-02 06:25:00,71.0,70.4,29.97,SW,225,7.4,7.4,98,0.00,,OVC023,0.00,VWS V14.01,2013-06-02 10:25:00,
2013-06-02 06:26:00,71.0,70.4,29.97,WSW,248,3.6,3.6,98,0.00,,OVC023,0.00,VWS V14.01,2013-06-02 10:26:00,
2013-06-02 06:27:00,71.0,70.4,29.97,SW,225,5.4,5.4,98,0.00,,OVC023,0.00,VWS V14.01,2013-06-02 10:27:00,
2013-06-02 06:28:00,71.0,70.2,29.97,SW,225,4.3,4.3,97,0.00,,OVC023,0.00,VWS V14.01,2013-06-02 10:28:00,
2013-06-02 06:29:00,71.0,70.8,29.97,SW,225,2.9,2.9,99,0.00,,BKN011,0.00,VWS V14.01,2013-06-02 10:29:00,
2013-06-02 06:30:00,71.0,70.4,29.97,WSW,248,3.4,3.4,98,0.00,,OVC023,0.00,VWS V14.01,2013-06-02 10:30:00,
2013-06-02 06:31:00,71.0,70.8,29.97,WSW,248,3.6,3.6,99,0.00,,OVC023,0.00,VWS V14.01,2013-06-02 10:31:00,
2013-06-02 06:32:00,70.9,70.3,29.97,SW,225,4.9,4.9,98,0.00,,OVC023,0.00,VWS V14.01,2013-06-02 10:32:00,
2013-06-02 06:33:00,70.9,70.3,29.97,SSW,202,4.0,4.0,98,0.00,,OVC023,0.00,VWS V14.01,2013-06-02 10:33:00,
2013-06-02 06:34:00,70.9,70.3,29.97,West,270,6.5,6.5,98,0.00,,BKN011,0.00,VWS V14.01,2013-06-02 10:34:00,
2013-06-02 06:35:00,70.9,70.3,29.97,SSW,202,4.3,4.3,98,0.00,,OVC023,0.00,VWS V14.01,2013-06-02 10:35:00,
2013-06-02 06:36:00,70.9,70.3,29.97,WSW,248,4.3,4.3,98,0.00,,OVC023,0.00,VWS V14.01,2013-06-02 10:36:00,
2013-06-02 06:37:00,71.0,70.2,29.97,WSW,248,3.6,3.6,97,0.00,,OVC023,0.00,VWS V14.01,2013-06-02 10:37:00,
2013-06-02 06:38:00,71.0,70.2,29.97,SW,225,5.6,5.6,97,0.00,,OVC023,0.00,VWS V14.01,2013-06-02 10:38:00,
2013-06-02 06:39:00,71.0,70.2,29.97,SSW,202,5.6,5.6,97,0.00,,BKN011,0.00,VWS V14.01,2013-06-02 10:39:00,
2013-06-02 06:40:00,71.0,70.2,29.97,SW,225,6.9,6.9,97,0.00,,OVC023,0.00,VWS V14.01,2013-06-02 10:40:00,
2013-06-02 06:41:00,71.0,70.2,29.97,SW,225,4.9,4.9,97,0.00,,OVC023,0.00,VWS V14.01,2013-06-02 10:41:00,
2013-06-02 06:42:00,71.0,70.2,29.97,WSW,248,9.8,9.8,97,0.00,,OVC023,0.00,VWS V14.01,2013-06-02 10:42:00,
2013-06-02 06:43:00,71.0,69.8,29.97,SW,225,4.9,4.9,96,0.00,,OVC023,0.00,VWS V14.01,2013-06-02 10:43:00,
2013-06-02 06:44:00,71.2,70.0,29.97,WSW,248,6.3,6.3,96,0.00,,BKN011,0.00,VWS V14.01,2013-06-02 10:44:00,
2013-06-02 06:45:00,71.2,70.0,29.97,WSW,248,5.4,5.4,96,0.00,,OVC023,0.00,VWS V14.01,2013-06-02 10:45:00,
2013-06-02 06:46:00,71.2,70.0,29.97,WSW,248,4.0,4.0,96,0.00,,OVC023,0.00,VWS V14.01,2013-06-02 10:46:00,
2013-06-02 06:47:00,71.2,70.0,29.97,WSW,248,5.6,5.6,96,0.00,,OVC023,0.00,VWS V14.01,2013-06-02 10:47:00,
2013-06-02 06:48:00,71.2,70.0,29.97,WSW,248,11.0,11.0,96,0.00,,OVC023,0.00,VWS V14.01,2013-06-02 10:48:00,
2013-06-02 06:49:00,71.2,70.0,29.97,SW,225,4.9,4.9,96,0.00,,BKN011,0.00,VWS V14.01,2013-06-02 10:49:00,
2013-06-02 06:50:00,71.2,69.7,29.97,SW,225,5.4,5.4,95,0.00,,OVC023,0.00,VWS V14.01,2013-06-02 10:50:00,
2013-06-02 06:51:00,71.2,70.0,29.97,SW,225,4.9,4.9,96,0.00,,OVC023,0.00,VWS V14.01,2013-06-02 10:51:00,
2013-06-02 06:52:00,71.2,70.0,29.97,WSW,248,8.7,8.7,96,0.00,,OVC023,0.00,VWS V14.01,2013-06-02 10:52:00,
2013-06-02 06:53:00,71.2,70.0,29.97,SW,225,4.3,4.3,96,0.00,,OVC023,0.00,VWS V14.01,2013-06-02 10:53:00,
2013-06-02 06:54:00,71.4,69.9,29.97,SSW,202,6.7,6.7,95,0.00,,BKN011,0.00,VWS V14.01,2013-06-02 10:54:00,
2013-06-02 06:55:00,71.2,69.7,29.97,SSW,202,7.8,7.8,95,0.00,,OVC023,0.00,VWS V14.01,2013-06-02 10:55:00,
2013-06-02 06:56:00,71.4,69.9,29.97,SW,225,6.5,6.5,95,0.00,,OVC023,0.00,VWS V14.01,2013-06-02 10:56:00,
2013-06-02 06:57:00,71.4,69.9,29.97,SW,225,5.8,5.8,95,0.00,,OVC023,0.00,VWS V14.01,2013-06-02 10:57:00,
2013-06-02 06:58:00,71.4,69.9,29.97,SW,225,6.5,6.5,95,0.00,,OVC023,0.00,VWS V14.01,2013-06-02 10:58:00,
2013-06-02 06:59:00,71.4,69.9,29.97,WSW,248,5.8,5.8,95,0.00,,OVC023,0.00,VWS V14.01,2013-06-02 10:59:00,
2013-06-02 07:00:00,71.4,69.6,29.97,WSW,248,5.4,5.4,94,0.00,,BKN011,0.00,VWS V14.01,2013-06-02 11:00:00,
2013-06-02 07:01:00,71.4,69.6,29.97,WSW,248,4.9,4.9,94,0.00,,OVC023,0.00,VWS V14.01,2013-06-02 11:01:00,
2013-06-02 07:02:00,71.4,69.6,29.97,WSW,248,7.4,7.4,94,0.00,,OVC023,0.00,VWS V14.01,2013-06-02 11:02:00,
2013-06-02 07:03:00,71.4,69.9,29.97,SW,225,5.8,5.8,95,0.00,,OVC023,0.00,VWS V14.01,2013-06-02 11:03:00,
2013-06-02 07:04:00,71.4,69.9,29.97,SW,225,4.9,4.9,95,0.00,,OVC023,0.00,VWS V14.01,2013-06-02 11:04:00,
2013-06-02 07:05:00,71.4,69.9,29.97,SW,225,6.3,6.3,95,0.00,,BKN015,0.00,VWS V14.01,2013-06-02 11:05:00,
2013-06-02 07:06:00,71.4,69.9,29.97,SSW,202,3.8,3.8,95,0.00,,OVC023,0.00,VWS V14.01,2013-06-02 11:06:00,
2013-06-02 07:07:00,71.4,69.9,29.97,SSW,202,7.4,7.4,95,0.00,,OVC023,0.00,VWS V14.01,2013-06-02 11:07:00,
2013-06-02 07:08:00,71.4,69.6,29.97,SW,225,7.4,7.4,94,0.00,,OVC023,0.00,VWS V14.01,2013-06-02 11:08:00,
2013-06-02 07:09:00,71.4,69.6,29.97,WSW,248,7.4,7.4,94,0.00,,OVC023,0.00,VWS V14.01,2013-06-02 11:09:00,
2013-06-02 07:10:00,71.6,69.8,29.97,SSW,202,8.5,8.5,94,0.00,,BKN015,0.00,VWS V14.01,2013-06-02 11:10:00,
2013-06-02 07:11:00,71.6,69.4,29.97,WNW,292,5.8,5.8,93,0.00,,OVC023,0.00,VWS V14.01,2013-06-02 11:11:00,
2013-06-02 07:12:00,71.6,69.8,29.97,SSW,202,8.5,8.5,94,0.00,,OVC023,0.00,VWS V14.01,2013-06-02 11:12:00,
2013-06-02 07:13:00,71.6,69.4,29.97,SW,225,4.9,4.9,93,0.00,,OVC023,0.00,VWS V14.01,2013-06-02 11:13:00,
2013-06-02 07:14:00,71.6,69.8,29.97,WSW,248,6.3,6.3,94,0.00,,OVC023,0.00,VWS V14.01,2013-06-02 11:14:00,
2013-06-02 07:15:00,71.6,69.4,29.97,WSW,248,5.6,5.6,93,0.00,,BKN015,0.00,VWS V14.01,2013-06-02 11:15:00,
2013-06-02 07:16:00,71.6,69.4,29.97,SW,225,6.3,6.3,93,0.00,,OVC023,0.00,VWS V14.01,2013-06-02 11:16:00,
2013-06-02 07:17:00,71.6,69.4,29.97,WSW,248,5.6,5.6,93,0.00,,OVC023,0.00,VWS V14.01,2013-06-02 11:17:00,
2013-06-02 07:18:00,71.6,69.4,29.97,SW,225,7.8,7.8,93,0.00,,OVC023,0.00,VWS V14.01,2013-06-02 11:18:00,
2013-06-02 07:19:00,71.6,69.1,29.97,WSW,248,9.8,9.8,92,0.00,,OVC023,0.00,VWS V14.01,2013-06-02 11:19:00,
2013-06-02 07:20:00,71.8,69.0,29.97,WSW,248,5.4,5.4,91,0.00,,BKN015,0.00,VWS V14.01,2013-06-02 11:20:00,
2013-06-02 07:21:00,71.8,69.0,29.97,West,270,7.4,7.4,91,0.00,,OVC023,0.00,VWS V14.01,2013-06-02 11:21:00,
2013-06-02 07:22:00,71.8,69.0,29.97,WSW,248,5.4,5.4,91,0.00,,OVC023,0.00,VWS V14.01,2013-06-02 11:22:00,
2013-06-02 07:23:00,71.8,68.7,29.97,SW,225,6.3,6.3,90,0.00,,OVC023,0.00,VWS V14.01,2013-06-02 11:23:00,
2013-06-02 07:24:00,71.8,68.7,29.97,SW,225,5.4,5.4,90,0.00,,OVC023,0.00,VWS V14.01,2013-06-02 11:24:00,
2013-06-02 07:25:00,71.9,68.5,29.97,WSW,248,10.7,10.7,89,0.00,,BKN015,0.00,VWS V14.01,2013-06-02 11:25:00,
2013-06-02 07:26:00,71.9,68.8,29.97,WSW,248,10.3,10.3,90,0.00,,OVC023,0.00,VWS V14.01,2013-06-02 11:26:00,
2013-06-02 07:27:00,71.9,68.5,29.97,WSW,248,10.7,10.7,89,0.00,,OVC023,0.00,VWS V14.01,2013-06-02 11:27:00,
2013-06-02 07:28:00,71.9,68.5,29.97,SW,225,6.9,6.9,89,0.00,,OVC023,0.00,VWS V14.01,2013-06-02 11:28:00,
2013-06-02 07:29:00,71.9,68.5,29.97,WSW,248,10.1,10.1,89,0.00,,OVC023,0.00,VWS V14.01,2013-06-02 11:29:00,
2013-06-02 07:30:00,72.1,68.7,29.97,WSW,248,7.6,7.6,89,0.00,,BKN015,0.00,VWS V14.01,2013-06-02 11:30:00,
2013-06-02 07:31:00,72.1,68.7,29.97,SSW,202,6.0,6.0,89,0.00,,OVC023,0.00,VWS V14.01,2013-06-02 11:31:00,
2013-06-02 07:32:00,72.1,68.7,29.97,WSW,248,7.6,7.6,89,0.00,,OVC023,0.00,VWS V14.01,2013-06-02 11:32:00,
2013-06-02 07:33:00,72.1,69.0,29.97,SSW,202,5.4,5.4,90,0.00,,OVC023,0.00,VWS V14.01,2013-06-02 11:33:00,
2013-06-02 07:34:00,72.1,68.7,29.97,SW,225,4.9,4.9,89,0.00,,OVC023,0.00,VWS V14.01,2013-06-02 11:34:00,
2013-06-02 07:35:00,72.1,68.7,29.97,SW,225,6.0,6.0,89,0.00,,BKN015,0.00,VWS V14.01,2013-06-02 11:35:00,
2013-06-02 07:36:00,72.1,68.7,29.97,SW,225,6.9,6.9,89,0.00,,OVC023,0.00,VWS V14.01,2013-06-02 11:36:00,
2013-06-02 07:37:00,72.1,68.7,29.97,SW,225,6.0,6.0,89,0.00,,OVC023,0.00,VWS V14.01,2013-06-02 11:37:00,
2013-06-02 07:38:00,72.1,68.4,29.97,SSW,202,8.5,8.5,88,0.00,,OVC023,0.00,VWS V14.01,2013-06-02 11:38:00,
2013-06-02 07:39:00,72.3,68.9,29.97,WSW,248,5.8,5.8,89,0.00,,OVC023,0.00,VWS V14.01,2013-06-02 11:39:00,
2013-06-02 07:40:00,72.5,68.7,29.97,SW,225,6.3,6.3,88,0.00,,BKN015,0.00,VWS V14.01,2013-06-02 11:40:00,
2013-06-02 07:41:00,72.3,68.6,29.97,SSW,202,4.9,4.9,88,0.00,,OVC023,0.00,VWS V14.01,2013-06-02 11:41:00,
2013-06-02 07:42:00,72.5,68.7,29.97,SW,225,6.3,6.3,88,0.00,,OVC023,0.00,VWS V14.01,2013-06-02 11:42:00,
2013-06-02 07:43:00,72.5,68.7,29.97,SW,225,8.5,8.5,88,0.00,,OVC023,0.00,VWS V14.01,2013-06-02 11:43:00,
2013-06-02 07:44:00,72.5,68.7,29.97,WSW,248,8.1,8.1,88,0.00,,OVC023,0.00,VWS V14.01,2013-06-02 11:44:00,
2013-06-02 07:45:00,72.7,68.9,29.97,SW,225,6.3,6.3,88,0.00,,OVC015,0.00,VWS V14.01,2013-06-02 11:45:00,
2013-06-02 07:46:00,72.5,68.4,29.97,SW,225,8.7,8.7,87,0.00,,OVC023,0.00,VWS V14.01,2013-06-02 11:46:00,
2013-06-02 07:47:00,72.7,68.9,29.97,SW,225,6.3,6.3,88,0.00,,OVC023,0.00,VWS V14.01,2013-06-02 11:47:00,
2013-06-02 07:48:00,72.7,68.6,29.97,West,270,7.6,7.6,87,0.00,,OVC023,0.00,VWS V14.01,2013-06-02 11:48:00,
2013-06-02 07:49:00,72.7,68.6,29.97,SW,225,8.5,8.5,87,0.00,,OVC023,0.00,VWS V14.01,2013-06-02 11:49:00,
2013-06-02 07:50:00,72.8,69.1,29.97,SW,225,6.9,6.9,88,0.00,,OVC015,0.00,VWS V14.01,2013-06-02 11:50:00,
2013-06-02 07:51:00,72.7,68.2,29.97,SSW,202,8.5,8.5,86,0.00,,OVC023,0.00,VWS V14.01,2013-06-02 11:51:00,
2013-06-02 07:52:00,72.8,69.1,29.97,SW,225,6.9,6.9,88,0.00,,OVC023,0.00,VWS V14.01,2013-06-02 11:52:00,
2013-06-02 07:53:00,72.8,68.4,29.97,SSW,202,6.3,6.3,86,0.00,,OVC023,0.00,VWS V14.01,2013-06-02 11:53:00,
2013-06-02 07:54:00,72.8,68.8,29.97,SW,225,5.4,5.4,87,0.00,,OVC023,0.00,VWS V14.01,2013-06-02 11:54:00,
2013-06-02 07:55:00,73.0,68.9,29.97,WSW,248,8.5,8.5,87,0.00,,OVC015,0.00,VWS V14.01,2013-06-02 11:55:00,
2013-06-02 07:56:00,73.0,68.9,29.97,SW,225,4.9,4.9,87,0.00,,OVC023,0.00,VWS V14.01,2013-06-02 11:56:00,
2013-06-02 07:57:00,73.0,68.9,29.97,WSW,248,8.5,8.5,87,0.00,,OVC023,0.00,VWS V14.01,2013-06-02 11:57:00,
2013-06-02 07:58:00,73.0,68.6,29.97,WSW,248,7.4,7.4,86,0.00,,OVC023,0.00,VWS V14.01,2013-06-02 11:58:00,
2013-06-02 07:59:00,73.0,68.6,29.97,SSW,202,7.6,7.6,86,0.00,,OVC023,0.00,VWS V14.01,2013-06-02 11:59:00,
2013-06-02 08:00:00,72.8,68.4,29.97,WSW,248,8.5,8.5,86,0.00,,OVC015,0.00,VWS V14.01,2013-06-02 12:00:00,
2013-06-02 08:01:00,72.8,68.4,29.97,SSW,202,12.8,12.8,86,0.00,,OVC023,0.00,VWS V14.01,2013-06-02 12:01:00,
2013-06-02 08:02:00,72.8,68.4,29.97,SW,225,10.1,10.1,86,0.00,,OVC023,0.00,VWS V14.01,2013-06-02 12:02:00,
2013-06-02 08:03:00,72.8,68.1,29.97,SW,225,5.8,5.8,85,0.00,,OVC023,0.00,VWS V14.01,2013-06-02 12:03:00,
2013-06-02 08:04:00,73.2,68.8,29.97,WSW,248,6.5,6.5,86,0.00,,OVC023,0.00,VWS V14.01,2013-06-02 12:04:00,
2013-06-02 08:05:00,73.0,68.2,29.97,WSW,248,7.8,7.8,85,0.00,,OVC015,0.00,VWS V14.01,2013-06-02 12:05:00,
2013-06-02 08:06:00,73.2,68.8,29.97,SSW,202,6.0,6.0,86,0.00,,OVC023,0.00,VWS V14.01,2013-06-02 12:06:00,
2013-06-02 08:07:00,73.2,68.8,29.97,WSW,248,8.1,8.1,86,0.00,,OVC023,0.00,VWS V14.01,2013-06-02 12:07:00,
2013-06-02 08:08:00,72.8,68.1,29.97,SSW,202,8.5,8.5,85,0.00,,OVC023,0.00,VWS V14.01,2013-06-02 12:08:00,
2013-06-02 08:09:00,72.8,67.7,29.97,SW,225,9.0,9.0,84,0.00,,OVC023,0.00,VWS V14.01,2013-06-02 12:09:00,
2013-06-02 08:10:00,72.8,67.7,29.97,WSW,248,11.4,11.4,84,0.00,,OVC015,0.00,VWS V14.01,2013-06-02 12:10:00,
2013-06-02 08:11:00,72.7,67.6,29.97,SW,225,10.3,10.3,84,0.00,,OVC023,0.00,VWS V14.01,2013-06-02 12:11:00,
2013-06-02 08:12:00,72.8,67.7,29.97,SW,225,8.7,8.7,84,0.00,,OVC023,0.00,VWS V14.01,2013-06-02 12:12:00,
2013-06-02 08:13:00,72.8,67.7,29.97,SW,225,10.7,10.7,84,0.00,,OVC023,0.00,VWS V14.01,2013-06-02 12:13:00,
2013-06-02 08:14:00,72.8,67.7,29.97,WSW,248,11.0,11.0,84,0.00,,OVC023,0.00,VWS V14.01,2013-06-02 12:14:00,
2013-06-02 08:15:00,73.0,68.2,29.97,WSW,248,7.8,7.8,85,0.00,,OVC015,0.00,VWS V14.01,2013-06-02 12:15:00,
2013-06-02 08:16:00,73.0,68.2,29.97,SSW,202,6.0,6.0,85,0.00,,OVC023,0.00,VWS V14.01,2013-06-02 12:16:00,
2013-06-02 08:17:00,73.0,68.2,29.97,SSW,202,6.5,6.5,85,0.00,,OVC023,0.00,VWS V14.01,2013-06-02 12:17:00,
2013-06-02 08:18:00,72.8,67.7,29.97,WSW,248,8.5,8.5,84,0.00,,OVC023,0.00,VWS V14.01,2013-06-02 12:18:00,
2013-06-02 08:19:00,72.8,67.7,29.97,WSW,248,8.7,8.7,84,0.00,,OVC023,0.00,VWS V14.01,2013-06-02 12:19:00,
2013-06-02 08:20:00,73.2,67.7,29.97,SW,225,13.2,13.2,83,0.00,,OVC015,0.00,VWS V14.01,2013-06-02 12:20:00,
2013-06-02 08:21:00,73.0,67.9,29.97,SW,225,6.5,6.5,84,0.00,,OVC023,0.00,VWS V14.01,2013-06-02 12:21:00,
2013-06-02 08:22:00,73.2,67.7,29.97,SSW,202,7.8,7.8,83,0.00,,OVC023,0.00,VWS V14.01,2013-06-02 12:22:00,
2013-06-02 08:23:00,73.2,67.4,29.97,SSW,202,11.0,11.0,82,0.00,,OVC023,0.00,VWS V14.01,2013-06-02 12:23:00,
2013-06-02 08:24:00,73.2,67.4,29.97,SSW,202,7.8,7.8,82,0.00,,OVC023,0.00,VWS V14.01,2013-06-02 12:24:00,
2013-06-02 08:25:00,73.2,67.4,29.97,SW,225,9.2,9.2,82,0.00,,OVC023,0.00,VWS V14.01,2013-06-02 12:25:00,
2013-06-02 08:26:00,73.7,68.3,29.97,SSW,202,4.9,4.9,83,0.00,,OVC015,0.00,VWS V14.01,2013-06-02 12:26:00,
2013-06-02 08:27:00,73.6,68.1,29.97,SW,225,6.3,6.3,83,0.00,,OVC023,0.00,VWS V14.01,2013-06-02 12:27:00,
2013-06-02 08:28:00,73.7,68.3,29.97,WSW,248,7.8,7.8,83,0.00,,OVC023,0.00,VWS V14.01,2013-06-02 12:28:00,
2013-06-02 08:29:00,73.4,67.6,29.97,SSW,202,4.0,4.0,82,0.00,,OVC023,0.00,VWS V14.01,2013-06-02 12:29:00,
2013-06-02 08:30:00,73.9,68.4,29.97,SW,225,3.6,3.6,83,0.00,,OVC023,0.00,VWS V14.01,2013-06-02 12:30:00,
2013-06-02 08:31:00,74.3,68.4,29.97,SSW,202,11.0,11.0,82,0.00,,OVC015,0.00,VWS V14.01,2013-06-02 12:31:00,
2013-06-02 08:32:00,74.3,68.4,29.97,SW,225,5.8,5.8,82,0.00,,OVC023,0.00,VWS V14.01,2013-06-02 12:32:00,
2013-06-02 08:33:00,73.7,67.6,29.97,SSW,202,7.6,7.6,81,0.00,,OVC023,0.00,VWS V14.01,2013-06-02 12:33:00,
2013-06-02 08:34:00,74.3,68.4,29.97,WSW,248,5.8,5.8,82,0.00,,OVC023,0.00,VWS V14.01,2013-06-02 12:34:00,
2013-06-02 08:35:00,74.1,67.9,29.97,West,270,8.1,8.1,81,0.00,,OVC023,0.00,VWS V14.01,2013-06-02 12:35:00,
2013-06-02 08:36:00,74.3,68.4,29.97,WSW,248,8.7,8.7,82,0.00,,OVC015,0.00,VWS V14.01,2013-06-02 12:36:00,
2013-06-02 08:37:00,74.1,67.5,29.97,SSW,202,7.8,7.8,80,0.00,,OVC023,0.00,VWS V14.01,2013-06-02 12:37:00,
2013-06-02 08:38:00,74.3,68.4,29.97,SW,225,10.3,10.3,82,0.00,,OVC023,0.00,VWS V14.01,2013-06-02 12:38:00,
2013-06-02 08:39:00,73.9,67.4,29.97,SW,225,10.5,10.5,80,0.00,,OVC023,0.00,VWS V14.01,2013-06-02 12:39:00,
2013-06-02 08:40:00,73.9,67.7,29.97,WSW,248,4.7,4.7,81,0.00,,OVC023,0.00,VWS V14.01,2013-06-02 12:40:00,
2013-06-02 08:41:00,74.1,67.5,29.97,West,270,6.5,6.5,80,0.00,,OVC015,0.00,VWS V14.01,2013-06-02 12:41:00,
2013-06-02 08:42:00,74.3,68.1,29.97,WSW,248,7.6,7.6,81,0.00,,OVC023,0.00,VWS V14.01,2013-06-02 12:42:00,
2013-06-02 08:43:00,74.1,67.5,29.97,WSW,248,10.5,10.5,80,0.00,,OVC023,0.00,VWS V14.01,2013-06-02 12:43:00,
2013-06-02 08:44:00,73.9,67.4,29.97,WSW,248,4.3,4.3,80,0.00,,OVC023,0.00,VWS V14.01,2013-06-02 12:44:00,
2013-06-02 08:45:00,73.9,67.4,29.97,West,270,7.4,7.4,80,0.00,,OVC023,0.00,VWS V14.01,2013-06-02 12:45:00,
2013-06-02 08:46:00,73.9,67.4,29.97,SSW,202,5.4,5.4,80,0.00,,OVC015,0.00,VWS V14.01,2013-06-02 12:46:00,
2013-06-02 08:47:00,73.9,67.4,29.97,SW,225,8.5,8.5,80,0.00,,OVC023,0.00,VWS V14.01,2013-06-02 12:47:00,
2013-06-02 08:48:00,73.9,67.4,29.97,WSW,248,7.8,7.8,80,0.00,,OVC023,0.00,VWS V14.01,2013-06-02 12:48:00,
2013-06-02 08:49:00,74.3,68.1,29.97,SSW,202,5.6,5.6,81,0.00,,OVC023,0.00,VWS V14.01,2013-06-02 12:49:00,
2013-06-02 08:50:00,74.5,68.2,29.97,SSW,202,8.5,8.5,81,0.00,,OVC023,0.00,VWS V14.01,2013-06-02 12:50:00,
2013-06-02 08:51:00,74.6,67.7,29.97,SW,225,8.1,8.1,79,0.00,,OVC015,0.00,VWS V14.01,2013-06-02 12:51:00,
2013-06-02 08:52:00,74.8,68.6,29.97,SW,225,8.5,8.5,81,0.00,,OVC023,0.00,VWS V14.01,2013-06-02 12:52:00,
2013-06-02 08:53:00,74.6,67.7,29.97,SW,225,8.1,8.1,79,0.00,,OVC023,0.00,VWS V14.01,2013-06-02 12:53:00,
2013-06-02 08:54:00,74.3,67.3,29.97,SW,225,10.7,10.7,79,0.00,,OVC023,0.00,VWS V14.01,2013-06-02 12:54:00,
2013-06-02 08:55:00,74.8,68.2,29.97,WSW,248,7.4,7.4,80,0.00,,OVC023,0.00,VWS V14.01,2013-06-02 12:55:00,
2013-06-02 08:56:00,74.3,67.3,29.97,WSW,248,6.7,6.7,79,0.00,,OVC015,0.00,VWS V14.01,2013-06-02 12:56:00,
2013-06-02 08:57:00,74.6,68.1,29.97,SW,225,4.3,4.3,80,0.00,,OVC023,0.00,VWS V14.01,2013-06-02 12:57:00,
2013-06-02 08:58:00,74.3,67.3,29.97,WSW,248,6.7,6.7,79,0.00,,OVC023,0.00,VWS V14.01,2013-06-02 12:58:00,
2013-06-02 08:59:00,74.3,67.3,29.97,WSW,248,6.3,6.3,79,0.00,,OVC023,0.00,VWS V14.01,2013-06-02 12:59:00,
2013-06-02 09:00:00,74.1,67.2,29.97,West,270,6.3,6.3,79,0.00,,OVC023,0.00,VWS V14.01,2013-06-02 13:00:00,
2013-06-02 09:01:00,74.5,67.5,29.97,SSW,202,4.3,4.3,79,0.00,,OVC015,0.00,VWS V14.01,2013-06-02 13:01:00,
2013-06-02 09:02:00,74.6,68.1,29.97,WSW,248,4.0,4.0,80,0.00,,OVC023,0.00,VWS V14.01,2013-06-02 13:02:00,
2013-06-02 09:03:00,74.5,67.5,29.97,WSW,248,6.3,6.3,79,0.00,,OVC023,0.00,VWS V14.01,2013-06-02 13:03:00,
2013-06-02 09:04:00,74.3,67.3,29.97,SSW,202,6.5,6.5,79,0.00,,OVC023,0.00,VWS V14.01,2013-06-02 13:04:00,
2013-06-02 09:05:00,74.3,67.3,29.97,SW,225,6.5,6.5,79,0.00,,OVC023,0.00,VWS V14.01,2013-06-02 13:05:00,
2013-06-02 09:06:00,74.6,67.3,29.97,West,270,5.6,5.6,78,0.00,,OVC015,0.00,VWS V14.01,2013-06-02 13:06:00,
2013-06-02 09:07:00,75.0,68.1,29.97,SSW,202,6.0,6.0,79,0.00,,OVC023,0.00,VWS V14.01,2013-06-02 13:07:00,
2013-06-02 09:08:00,74.6,67.3,29.97,West,270,5.6,5.6,78,0.00,,OVC023,0.00,VWS V14.01,2013-06-02 13:08:00,
2013-06-02 09:09:00,75.2,68.2,29.97,SSW,202,5.8,5.8,79,0.00,,OVC023,0.00,VWS V14.01,2013-06-02 13:09:00,
2013-06-02 09:10:00,74.8,67.5,29.97,SW,225,8.7,8.7,78,0.00,,OVC023,0.00,VWS V14.01,2013-06-02 13:10:00,
2013-06-02 09:11:00,74.6,67.3,29.97,SW,225,7.6,7.6,78,0.00,,BKN014,0.00,VWS V14.01,2013-06-02 13:11:00,
2013-06-02 09:12:00,74.6,67.3,29.97,WSW,248,8.5,8.5,78,0.00,,OVC023,0.00,VWS V14.01,2013-06-02 13:12:00,
2013-06-02 09:13:00,74.6,67.3,29.97,SW,225,7.6,7.6,78,0.00,,OVC023,0.00,VWS V14.01,2013-06-02 13:13:00,
2013-06-02 09:14:00,74.8,67.5,29.97,West,270,6.5,6.5,78,0.00,,OVC023,0.00,VWS V14.01,2013-06-02 13:14:00,
2013-06-02 09:15:00,75.0,67.3,29.97,WSW,248,7.4,7.4,77,0.00,,OVC023,0.00,VWS V14.01,2013-06-02 13:15:00,
2013-06-02 09:16:00,74.8,67.5,29.97,WSW,248,6.0,6.0,78,0.00,,BKN014,0.00,VWS V14.01,2013-06-02 13:16:00,
2013-06-02 09:17:00,74.8,67.1,29.97,SSW,202,8.1,8.1,77,0.00,,OVC023,0.00,VWS V14.01,2013-06-02 13:17:00,
2013-06-02 09:18:00,74.8,67.5,29.97,WSW,248,6.0,6.0,78,0.00,,OVC023,0.00,VWS V14.01,2013-06-02 13:18:00,
2013-06-02 09:19:00,74.6,67.0,29.97,SW,225,8.5,8.5,77,0.00,,OVC023,0.00,VWS V14.01,2013-06-02 13:19:00,
2013-06-02 09:20:00,75.2,67.9,29.97,NW,315,5.6,5.6,78,0.00,,OVC023,0.00,VWS V14.01,2013-06-02 13:20:00,
2013-06-02 09:21:00,75.0,66.9,29.97,WSW,248,6.5,6.5,76,0.00,,BKN014,0.00,VWS V14.01,2013-06-02 13:21:00,
2013-06-02 09:22:00,75.0,67.3,29.97,SW,225,7.6,7.6,77,0.00,,OVC023,0.00,VWS V14.01,2013-06-02 13:22:00,
2013-06-02 09:23:00,75.0,66.9,29.97,WSW,248,6.5,6.5,76,0.00,,OVC023,0.00,VWS V14.01,2013-06-02 13:23:00,
2013-06-02 09:24:00,75.0,67.3,29.97,SSW,202,7.6,7.6,77,0.00,,OVC023,0.00,VWS V14.01,2013-06-02 13:24:00,
2013-06-02 09:25:00,75.2,67.5,29.97,SW,225,6.0,6.0,77,0.00,,OVC023,0.00,VWS V14.01,2013-06-02 13:25:00,
2013-06-02 09:26:00,75.4,67.3,29.97,SSW,202,6.9,6.9,76,0.00,,BKN014,0.00,VWS V14.01,2013-06-02 13:26:00,
2013-06-02 09:27:00,75.0,66.9,29.97,West,270,8.1,8.1,76,0.00,,OVC023,0.00,VWS V14.01,2013-06-02 13:27:00,
2013-06-02 09:28:00,75.4,67.3,29.97,SSW,202,6.9,6.9,76,0.00,,OVC023,0.00,VWS V14.01,2013-06-02 13:28:00,
2013-06-02 09:29:00,75.4,67.3,29.97,West,270,5.4,5.4,76,0.00,,OVC023,0.00,VWS V14.01,2013-06-02 13:29:00,
2013-06-02 09:30:00,75.4,67.3,29.97,West,270,7.4,7.4,76,0.00,,OVC023,0.00,VWS V14.01,2013-06-02 13:30:00,
2013-06-02 09:31:00,76.1,68.3,29.97,WNW,292,5.4,5.4,77,0.00,,BKN014,0.00,VWS V14.01,2013-06-02 13:31:00,
2013-06-02 09:32:00,76.3,68.5,29.97,SSW,202,4.0,4.0,77,0.00,,OVC023,0.00,VWS V14.01,2013-06-02 13:32:00,
2013-06-02 09:33:00,76.1,68.3,29.97,WNW,292,5.4,5.4,77,0.00,,OVC023,0.00,VWS V14.01,2013-06-02 13:33:00,
2013-06-02 09:34:00,76.1,68.3,29.97,SW,225,8.5,8.5,77,0.00,,OVC023,0.00,VWS V14.01,2013-06-02 13:34:00,
2013-06-02 09:35:00,76.1,68.3,29.97,West,270,9.8,9.8,77,0.00,,OVC023,0.00,VWS V14.01,2013-06-02 13:35:00,
2013-06-02 09:36:00,74.6,66.6,29.97,WNW,292,9.6,9.6,76,0.00,,BKN014,0.00,VWS V14.01,2013-06-02 13:36:00,
2013-06-02 09:37:00,74.8,66.8,29.97,West,270,6.5,6.5,76,0.00,,OVC023,0.00,VWS V14.01,2013-06-02 13:37:00,
2013-06-02 09:38:00,74.6,66.6,29.97,WNW,292,9.6,9.6,76,0.00,,OVC023,0.00,VWS V14.01,2013-06-02 13:38:00,
2013-06-02 09:39:00,74.8,67.1,29.97,SW,225,2.5,2.5,77,0.00,,OVC023,0.00,VWS V14.01,2013-06-02 13:39:00,
2013-06-02 09:40:00,75.2,67.5,29.97,WNW,292,3.1,3.1,77,0.00,,OVC023,0.00,VWS V14.01,2013-06-02 13:40:00,
2013-06-02 09:41:00,75.2,67.5,29.97,WSW,248,6.0,6.0,77,0.00,,BKN014,0.00,VWS V14.01,2013-06-02 13:41:00,
2013-06-02 09:42:00,75.2,67.5,29.97,SW,225,3.1,3.1,77,0.00,,OVC023,0.00,VWS V14.01,2013-06-02 13:42:00,
2013-06-02 09:43:00,75.2,67.5,29.97,WSW,248,6.0,6.0,77,0.00,,OVC023,0.00,VWS V14.01,2013-06-02 13:43:00,
2013-06-02 09:44:00,75.2,67.1,29.97,West,270,3.4,3.4,76,0.00,,OVC023,0.00,VWS V14.01,2013-06-02 13:44:00,
2013-06-02 09:45:00,75.0,66.9,29.97,SSW,202,4.9,4.9,76,0.00,,OVC023,0.00,VWS V14.01,2013-06-02 13:45:00,
2013-06-02 09:46:00,75.7,68.0,29.97,WSW,248,4.3,4.3,77,0.00,,BKN016,0.00,VWS V14.01,2013-06-02 13:46:00,
2013-06-02 09:47:00,75.7,68.0,29.97,West,270,6.5,6.5,77,0.00,,OVC023,0.00,VWS V14.01,2013-06-02 13:47:00,
2013-06-02 09:48:00,75.7,68.0,29.97,West,270,5.6,5.6,77,0.00,,OVC023,0.00,VWS V14.01,2013-06-02 13:48:00,
2013-06-02 09:49:00,76.4,68.7,29.97,WSW,248,5.6,5.6,77,0.00,,OVC023,0.00,VWS V14.01,2013-06-02 13:49:00,
2013-06-02 09:50:00,76.1,67.6,29.97,WSW,248,6.9,6.9,75,0.00,,OVC023,0.00,VWS V14.01,2013-06-02 13:50:00,
2013-06-02 09:51:00,76.1,67.6,29.97,WSW,248,6.5,6.5,75,0.00,,BKN016,0.00,VWS V14.01,2013-06-02 13:51:00,
2013-06-02 09:52:00,76.1,67.6,29.97,WSW,248,4.3,4.3,75,0.00,,OVC023,0.00,VWS V14.01,2013-06-02 13:52:00,
2013-06-02 09:53:00,76.1,67.6,29.97,WSW,248,4.9,4.9,75,0.00,,OVC023,0.00,VWS V14.01,2013-06-02 13:53:00,
2013-06-02 09:54:00,76.1,67.6,29.97,SSW,202,6.3,6.3,75,0.00,,OVC023,0.00,VWS V14.01,2013-06-02 13:54:00,
2013-06-02 09:55:00,76.4,67.6,29.97,SW,225,7.4,7.4,74,0.00,,OVC023,0.00,VWS V14.01,2013-06-02 13:55:00,
2013-06-02 09:56:00,77.2,68.6,29.97,SSW,202,3.4,3.4,75,0.00,,BKN016,0.00,VWS V14.01,2013-06-02 13:56:00,
2013-06-02 09:57:00,76.6,67.3,29.97,West,270,6.5,6.5,73,0.00,,OVC023,0.00,VWS V14.01,2013-06-02 13:57:00,
2013-06-02 09:58:00,76.6,67.7,29.97,West,270,4.9,4.9,74,0.00,,OVC023,0.00,VWS V14.01,2013-06-02 13:58:00,
2013-06-02 09:59:00,77.2,68.6,29.97,WSW,248,7.8,7.8,75,0.00,,OVC023,0.00,VWS V14.01,2013-06-02 13:59:00,
2013-06-02 10:00:00,77.2,68.6,29.97,SSW,202,5.8,5.8,75,0.00,,OVC023,0.00,VWS V14.01,2013-06-02 14:00:00,
2013-06-02 10:01:00,76.6,67.3,29.97,WSW,248,3.6,3.6,73,0.00,,BKN016,0.00,VWS V14.01,2013-06-02 14:01:00,
2013-06-02 10:02:00,76.6,67.3,29.97,SSW,202,7.6,7.6,73,0.00,,OVC023,0.00,VWS V14.01,2013-06-02 14:02:00,
2013-06-02 10:03:00,76.6,67.3,29.97,West,270,6.7,6.7,73,0.00,,OVC023,0.00,VWS V14.01,2013-06-02 14:03:00,
2013-06-02 10:04:00,76.6,67.3,29.97,WSW,248,5.4,5.4,73,0.00,,OVC023,0.00,VWS V14.01,2013-06-02 14:04:00,
2013-06-02 10:05:00,77.3,68.0,29.97,West,270,5.8,5.8,73,0.00,,OVC023,0.00,VWS V14.01,2013-06-02 14:05:00,
2013-06-02 10:06:00,77.3,68.8,29.97,SSW,202,6.0,6.0,75,0.00,,BKN016,0.00,VWS V14.01,2013-06-02 14:06:00,
2013-06-02 10:07:00,77.2,68.2,29.97,SW,225,8.7,8.7,74,0.00,,OVC023,0.00,VWS V14.01,2013-06-02 14:07:00,
2013-06-02 10:08:00,77.2,67.8,29.97,SW,225,7.4,7.4,73,0.00,,OVC023,0.00,VWS V14.01,2013-06-02 14:08:00,
2013-06-02 10:09:00,77.3,68.8,29.97,WSW,248,10.1,10.1,75,0.00,,OVC023,0.00,VWS V14.01,2013-06-02 14:09:00,
2013-06-02 10:10:00,76.8,67.5,29.97,WSW,248,7.6,7.6,73,0.00,,OVC023,0.00,VWS V14.01,2013-06-02 14:10:00,
2013-06-02 10:11:00,77.0,68.1,29.97,WSW,248,6.5,6.5,74,0.00,,OVC023,0.00,VWS V14.01,2013-06-02 14:11:00,
2013-06-02 10:12:00,77.0,67.3,29.97,WSW,248,8.5,8.5,72,0.00,,BKN016,0.00,VWS V14.01,2013-06-02 14:12:00,
2013-06-02 10:13:00,77.0,67.7,29.97,SW,225,7.4,7.4,73,0.00,,OVC023,0.00,VWS V14.01,2013-06-02 14:13:00,
2013-06-02 10:14:00,77.0,67.3,29.97,SSW,202,4.3,4.3,72,0.00,,OVC023,0.00,VWS V14.01,2013-06-02 14:14:00,
2013-06-02 10:15:00,77.0,67.3,29.97,SW,225,4.3,4.3,72,0.00,,OVC023,0.00,VWS V14.01,2013-06-02 14:15:00,
2013-06-02 10:16:00,77.7,68.4,29.97,SW,225,3.8,3.8,73,0.00,,OVC023,0.00,VWS V14.01,2013-06-02 14:16:00,
2013-06-02 10:17:00,77.9,68.5,29.97,SSW,202,3.8,3.8,73,0.00,,BKN016,0.00,VWS V14.01,2013-06-02 14:17:00,
2013-06-02 10:18:00,77.5,67.8,29.97,SW,225,7.4,7.4,72,0.00,,OVC023,0.00,VWS V14.01,2013-06-02 14:18:00,
2013-06-02 10:19:00,77.9,68.5,29.97,SSW,202,3.8,3.8,73,0.00,,OVC023,0.00,VWS V14.01,2013-06-02 14:19:00,
2013-06-02 10:20:00,78.1,68.7,29.97,SSW,202,4.0,4.0,73,0.00,,OVC023,0.00,VWS V14.01,2013-06-02 14:20:00,
2013-06-02 10:21:00,78.2,69.3,29.97,WSW,248,7.4,7.4,74,0.00,,OVC023,0.00,VWS V14.01,2013-06-02 14:21:00,
2013-06-02 10:22:00,78.2,68.5,29.97,SW,225,8.7,8.7,72,0.00,,BKN016,0.00,VWS V14.01,2013-06-02 14:22:00,
2013-06-02 10:23:00,78.6,69.6,29.97,SSW,202,7.6,7.6,74,0.00,,OVC023,0.00,VWS V14.01,2013-06-02 14:23:00,
2013-06-02 10:24:00,78.2,68.5,29.97,SW,225,8.7,8.7,72,0.00,,OVC023,0.00,VWS V14.01,2013-06-02 14:24:00,
2013-06-02 10:25:00,78.2,69.3,29.97,SW,225,5.8,5.8,74,0.00,,OVC023,0.00,VWS V14.01,2013-06-02 14:25:00,
2013-06-02 10:26:00,78.2,67.7,29.97,WSW,248,4.7,4.7,70,0.00,,OVC023,0.00,VWS V14.01,2013-06-02 14:26:00,
2013-06-02 10:27:00,77.9,66.5,29.97,SW,225,7.2,7.2,68,0.00,,BKN016,0.00,VWS V14.01,2013-06-02 14:27:00,
2013-06-02 10:28:00,77.9,66.5,29.97,SW,225,7.6,7.6,68,0.00,,OVC023,0.00,VWS V14.01,2013-06-02 14:28:00,
2013-06-02 10:29:00,77.9,66.5,29.97,SW,225,7.2,7.2,68,0.00,,OVC023,0.00,VWS V14.01,2013-06-02 14:29:00,
2013-06-02 10:30:00,77.9,66.5,29.97,SW,225,8.5,8.5,68,0.00,,OVC023,0.00,VWS V14.01,2013-06-02 14:30:00,
2013-06-02 10:31:00,78.1,66.7,29.97,SSW,202,7.6,7.6,68,0.00,,OVC023,0.00,VWS V14.01,2013-06-02 14:31:00,
2013-06-02 10:32:00,77.5,67.0,29.97,SSW,202,5.8,5.8,70,0.00,,BKN016,0.00,VWS V14.01,2013-06-02 14:32:00,
2013-06-02 10:33:00,77.5,66.1,29.97,SW,225,8.1,8.1,68,0.00,,OVC023,0.00,VWS V14.01,2013-06-02 14:33:00,
2013-06-02 10:34:00,77.5,67.0,29.97,SSW,202,5.8,5.8,70,0.00,,OVC023,0.00,VWS V14.01,2013-06-02 14:34:00,
2013-06-02 10:35:00,78.1,67.5,29.97,SSE,158,6.5,6.5,70,0.00,,OVC023,0.00,VWS V14.01,2013-06-02 14:35:00,
2013-06-02 10:36:00,78.6,68.4,29.97,SW,225,6.7,6.7,71,0.00,,OVC023,0.00,VWS V14.01,2013-06-02 14:36:00,
2013-06-02 10:37:00,77.9,66.9,29.97,SW,225,8.7,8.7,69,0.00,,BKN016,0.00,VWS V14.01,2013-06-02 14:37:00,
2013-06-02 10:38:00,78.2,67.7,29.97,WSW,248,5.4,5.4,70,0.00,,OVC023,0.00,VWS V14.01,2013-06-02 14:38:00,
2013-06-02 10:39:00,77.5,66.6,29.97,SW,225,8.7,8.7,69,0.00,,OVC023,0.00,VWS V14.01,2013-06-02 14:39:00,
2013-06-02 10:40:00,78.4,68.2,29.97,West,270,6.0,6.0,71,0.00,,OVC023,0.00,VWS V14.01,2013-06-02 14:40:00,
2013-06-02 10:41:00,79.1,68.5,29.97,WSW,248,7.8,7.8,70,0.00,,OVC023,0.00,VWS V14.01,2013-06-02 14:41:00,
2013-06-02 10:42:00,78.4,66.6,29.97,SSW,202,7.8,7.8,67,0.00,,BKN016,0.00,VWS V14.01,2013-06-02 14:42:00,
2013-06-02 10:43:00,78.4,66.6,29.97,South,180,11.0,11.0,67,0.00,,OVC023,0.00,VWS V14.01,2013-06-02 14:43:00,
2013-06-02 10:44:00,78.4,66.6,29.97,SSW,202,7.4,7.4,67,0.00,,OVC023,0.00,VWS V14.01,2013-06-02 14:44:00,
2013-06-02 10:45:00,79.3,67.8,29.97,South,180,10.3,10.3,68,0.00,,OVC023,0.00,VWS V14.01,2013-06-02 14:45:00,
2013-06-02 10:46:00,79.1,67.2,29.97,SSW,202,11.0,11.0,67,0.00,,OVC023,0.00,VWS V14.01,2013-06-02 14:46:00,
2013-06-02 10:47:00,79.3,67.4,29.97,West,270,5.6,5.6,67,0.00,,BKN023,0.00,VWS V14.01,2013-06-02 14:47:00,
2013-06-02 10:48:00,79.1,67.2,29.97,SW,225,6.0,6.0,67,0.00,,OVC023,0.00,VWS V14.01,2013-06-02 14:48:00,
2013-06-02 10:49:00,79.3,67.4,29.97,South,180,6.0,6.0,67,0.00,,OVC023,0.00,VWS V14.01,2013-06-02 14:49:00,
2013-06-02 10:50:00,79.7,68.2,29.97,SSW,202,5.4,5.4,68,0.00,,OVC023,0.00,VWS V14.01,2013-06-02 14:50:00,
2013-06-02 10:51:00,79.7,67.8,29.97,SSW,202,10.3,10.3,67,0.00,,OVC023,0.00,VWS V14.01,2013-06-02 14:51:00,
2013-06-02 10:52:00,79.0,67.5,29.97,SSW,202,7.2,7.2,68,0.00,,BKN023,0.00,VWS V14.01,2013-06-02 14:52:00,
2013-06-02 10:53:00,79.0,67.5,29.97,SSE,158,5.6,5.6,68,0.00,,OVC023,0.00,VWS V14.01,2013-06-02 14:53:00,
2013-06-02 10:54:00,79.0,67.5,29.97,South,180,4.0,4.0,68,0.00,,OVC023,0.00,VWS V14.01,2013-06-02 14:54:00,
2013-06-02 10:55:00,78.2,66.8,29.97,WSW,248,7.2,7.2,68,0.00,,OVC023,0.00,VWS V14.01,2013-06-02 14:55:00,
2013-06-02 10:56:00,78.4,67.0,29.97,SSW,202,8.5,8.5,68,0.00,,OVC023,0.00,VWS V14.01,2013-06-02 14:56:00,
2013-06-02 10:57:00,77.7,65.9,29.97,SSW,202,7.8,7.8,67,0.00,,BKN023,0.00,VWS V14.01,2013-06-02 14:57:00,
2013-06-02 10:58:00,78.2,66.8,29.97,WSW,248,7.4,7.4,68,0.00,,OVC023,0.00,VWS V14.01,2013-06-02 14:58:00,
2013-06-02 10:59:00,77.9,66.1,29.97,WSW,248,7.8,7.8,67,0.00,,OVC023,0.00,VWS V14.01,2013-06-02 14:59:00,
2013-06-02 11:00:00,77.7,65.9,29.97,SW,225,3.6,3.6,67,0.00,,OVC023,0.00,VWS V14.01,2013-06-02 15:00:00,
2013-06-02 11:01:00,78.2,66.8,29.97,SW,225,6.3,6.3,68,0.00,,OVC023,0.00,VWS V14.01,2013-06-02 15:01:00,
2013-06-02 11:02:00,78.1,66.2,29.97,SW,225,4.9,4.9,67,0.00,,OVC023,0.00,VWS V14.01,2013-06-02 15:02:00,
2013-06-02 11:03:00,78.1,66.2,29.97,SW,225,5.4,5.4,67,0.00,,BKN023,0.00,VWS V14.01,2013-06-02 15:03:00,
2013-06-02 11:04:00,78.2,66.8,29.97,SSW,202,4.3,4.3,68,0.00,,OVC023,0.00,VWS V14.01,2013-06-02 15:04:00,
2013-06-02 11:05:00,78.1,66.2,29.97,WSW,248,4.0,4.0,67,0.00,,OVC023,0.00,VWS V14.01,2013-06-02 15:05:00,
2013-06-02 11:06:00,78.1,66.2,29.97,WSW,248,3.6,3.6,67,0.00,,OVC023,0.00,VWS V14.01,2013-06-02 15:06:00,
2013-06-02 11:07:00,78.6,66.7,29.97,SSW,202,4.9,4.9,67,0.00,,OVC023,0.00,VWS V14.01,2013-06-02 15:07:00,
2013-06-02 11:08:00,79.5,68.9,29.97,SSW,202,9.6,9.6,70,0.00,,BKN023,0.00,VWS V14.01,2013-06-02 15:08:00,
2013-06-02 11:09:00,78.8,66.5,29.97,SSW,202,6.0,6.0,66,0.00,,OVC023,0.00,VWS V14.01,2013-06-02 15:09:00,
2013-06-02 11:10:00,79.5,68.9,29.97,SSW,202,6.0,6.0,70,0.00,,OVC023,0.00,VWS V14.01,2013-06-02 15:10:00,
2013-06-02 11:11:00,79.1,66.8,29.97,SW,225,6.5,6.5,66,0.00,,OVC023,0.00,VWS V14.01,2013-06-02 15:11:00,
2013-06-02 11:12:00,78.6,66.3,29.97,SSW,202,8.1,8.1,66,0.00,,OVC023,0.00,VWS V14.01,2013-06-02 15:12:00,
2013-06-02 11:13:00,79.0,67.1,29.97,SSW,202,3.6,3.6,67,0.00,,BKN023,0.00,VWS V14.01,2013-06-02 15:13:00,
2013-06-02 11:14:00,78.8,66.9,29.97,South,180,4.9,4.9,67,0.00,,OVC023,0.00,VWS V14.01,2013-06-02 15:14:00,
2013-06-02 11:15:00,79.0,67.1,29.97,SSW,202,4.3,4.3,67,0.00,,OVC023,0.00,VWS V14.01,2013-06-02 15:15:00,
2013-06-02 11:16:00,79.1,66.8,29.97,SW,225,6.0,6.0,66,0.00,,OVC023,0.00,VWS V14.01,2013-06-02 15:16:00,
2013-06-02 11:17:00,79.0,66.6,29.97,WSW,248,5.8,5.8,66,0.00,,OVC023,0.00,VWS V14.01,2013-06-02 15:17:00,
2013-06-02 11:18:00,78.4,66.1,29.97,SSW,202,3.8,3.8,66,0.00,,BKN023,0.00,VWS V14.01,2013-06-02 15:18:00,
2013-06-02 11:19:00,78.4,66.1,29.97,SSW,202,5.4,5.4,66,0.00,,OVC023,0.00,VWS V14.01,2013-06-02 15:19:00,
2013-06-02 11:20:00,79.0,67.1,29.97,WSW,248,6.0,6.0,67,0.00,,OVC023,0.00,VWS V14.01,2013-06-02 15:20:00,
2013-06-02 11:21:00,78.6,66.3,29.97,SSW,202,3.8,3.8,66,0.00,,OVC023,0.00,VWS V14.01,2013-06-02 15:21:00,
2013-06-02 11:22:00,78.8,66.5,29.97,SSW,202,3.8,3.8,66,0.00,,OVC023,0.00,VWS V14.01,2013-06-02 15:22:00,
2013-06-02 11:23:00,78.4,67.0,29.97,SW,225,5.6,5.6,68,0.00,,BKN023,0.00,VWS V14.01,2013-06-02 15:23:00,
2013-06-02 11:24:00,78.2,66.4,29.97,SSW,202,7.2,7.2,67,0.00,,OVC023,0.00,VWS V14.01,2013-06-02 15:24:00,
2013-06-02 11:25:00,78.4,67.0,29.97,SW,225,4.9,4.9,68,0.00,,OVC023,0.00,VWS V14.01,2013-06-02 15:25:00,
2013-06-02 11:26:00,78.2,66.4,29.97,WSW,248,5.6,5.6,67,0.00,,OVC023,0.00,VWS V14.01,2013-06-02 15:26:00,
2013-06-02 11:27:00,78.2,66.4,29.97,SW,225,6.0,6.0,67,0.00,,OVC023,0.00,VWS V14.01,2013-06-02 15:27:00,
2013-06-02 11:28:00,78.2,66.4,29.97,SW,225,6.0,6.0,67,0.00,,BKN023,0.00,VWS V14.01,2013-06-02 15:28:00,
2013-06-02 11:29:00,78.2,66.4,29.97,WSW,248,5.4,5.4,67,0.00,,OVC023,0.00,VWS V14.01,2013-06-02 15:29:00,
2013-06-02 11:30:00,78.2,66.4,29.97,West,270,6.3,6.3,67,0.00,,OVC023,0.00,VWS V14.01,2013-06-02 15:30:00,
2013-06-02 11:31:00,78.2,66.4,29.97,WSW,248,5.6,5.6,67,0.00,,OVC023,0.00,VWS V14.01,2013-06-02 15:31:00,
2013-06-02 11:32:00,78.4,67.0,29.97,SW,225,6.5,6.5,68,0.00,,OVC023,0.00,VWS V14.01,2013-06-02 15:32:00,
2013-06-02 11:33:00,78.4,66.6,29.97,WSW,248,7.6,7.6,67,0.00,,BKN023,0.00,VWS V14.01,2013-06-02 15:33:00,
2013-06-02 11:34:00,78.4,66.6,29.97,SW,225,6.0,6.0,67,0.00,,OVC023,0.00,VWS V14.01,2013-06-02 15:34:00,
2013-06-02 11:35:00,78.4,66.6,29.97,WSW,248,7.6,7.6,67,0.00,,OVC023,0.00,VWS V14.01,2013-06-02 15:35:00,
2013-06-02 11:36:00,78.4,66.6,29.97,West,270,6.5,6.5,67,0.00,,OVC023,0.00,VWS V14.01,2013-06-02 15:36:00,
2013-06-02 11:37:00,78.8,66.5,29.97,WSW,248,5.6,5.6,66,0.00,,OVC023,0.00,VWS V14.01,2013-06-02 15:37:00,
2013-06-02 11:38:00,79.5,67.2,29.97,WSW,248,6.0,6.0,66,0.00,,BKN023,0.00,VWS V14.01,2013-06-02 15:38:00,
2013-06-02 11:39:00,79.5,67.2,29.97,WSW,248,9.6,9.6,66,0.00,,OVC023,0.00,VWS V14.01,2013-06-02 15:39:00,
2013-06-02 11:40:00,79.5,67.2,29.97,WSW,248,6.0,6.0,66,0.00,,OVC023,0.00,VWS V14.01,2013-06-02 15:40:00,
2013-06-02 11:41:00,80.2,67.8,29.97,SSW,202,7.4,7.4,66,0.00,,OVC023,0.00,VWS V14.01,2013-06-02 15:41:00,
2013-06-02 11:42:00,80.6,68.6,29.97,SSW,202,9.0,9.0,67,0.00,,OVC023,0.00,VWS V14.01,2013-06-02 15:42:00,
2013-06-02 11:43:00,81.1,69.1,29.97,WSW,248,10.7,10.7,67,0.00,,BKN023,0.00,VWS V14.01,2013-06-02 15:43:00,
2013-06-02 11:44:00,79.9,66.6,29.97,WSW,248,7.6,7.6,64,0.00,,OVC023,0.00,VWS V14.01,2013-06-02 15:44:00,
2013-06-02 11:45:00,81.1,69.1,29.97,WSW,248,10.7,10.7,67,0.00,,OVC023,0.00,VWS V14.01,2013-06-02 15:45:00,
2013-06-02 11:46:00,80.9,67.6,29.97,SW,225,8.7,8.7,64,0.00,,OVC023,0.00,VWS V14.01,2013-06-02 15:46:00,
2013-06-02 11:47:00,80.6,67.7,29.97,SW,225,8.1,8.1,65,0.00,,OVC023,0.00,VWS V14.01,2013-06-02 15:47:00,
2013-06-02 11:48:00,80.0,67.2,29.97,SSW,202,3.4,3.4,65,0.00,,BKN030,0.00,VWS V14.01,2013-06-02 15:48:00,
2013-06-02 11:49:00,80.4,67.6,29.97,South,180,6.5,6.5,65,0.00,,OVC023,0.00,VWS V14.01,2013-06-02 15:49:00,
2013-06-02 11:50:00,80.0,67.2,29.97,SSW,202,3.4,3.4,65,0.00,,OVC023,0.00,VWS V14.01,2013-06-02 15:50:00,
2013-06-02 11:51:00,79.7,66.9,29.97,WSW,248,5.6,5.6,65,0.00,,OVC023,0.00,VWS V14.01,2013-06-02 15:51:00,
2013-06-02 11:52:00,79.7,66.9,29.97,WSW,248,7.6,7.6,65,0.00,,OVC023,0.00,VWS V14.01,2013-06-02 15:52:00,
2013-06-02 11:53:00,80.0,67.7,29.97,South,180,6.3,6.3,66,0.00,,BKN030,0.00,VWS V14.01,2013-06-02 15:53:00,
2013-06-02 11:54:00,79.9,67.5,29.97,SW,225,5.6,5.6,66,0.00,,OVC023,0.00,VWS V14.01,2013-06-02 15:54:00,
2013-06-02 11:55:00,80.0,67.7,29.97,South,180,6.3,6.3,66,0.00,,OVC023,0.00,VWS V14.01,2013-06-02 15:55:00,
2013-06-02 11:56:00,80.0,67.7,29.97,SW,225,2.7,2.7,66,0.00,,OVC023,0.00,VWS V14.01,2013-06-02 15:56:00,
2013-06-02 11:57:00,80.4,67.6,29.97,SW,225,3.6,3.6,65,0.00,,OVC023,0.00,VWS V14.01,2013-06-02 15:57:00,
2013-06-02 11:58:00,80.2,67.4,29.97,SW,225,5.4,5.4,65,0.00,,BKN030,0.00,VWS V14.01,2013-06-02 15:58:00,
2013-06-02 11:59:00,80.6,67.7,29.97,SSW,202,7.6,7.6,65,0.00,,OVC023,0.00,VWS V14.01,2013-06-02 15:59:00,
2013-06-02 12:00:00,80.2,67.4,29.97,SW,225,5.4,5.4,65,0.00,,OVC023,0.00,VWS V14.01,2013-06-02 16:00:00,
2013-06-02 12:01:00,80.2,67.4,29.97,SSW,202,5.4,5.4,65,0.00,,OVC023,0.00,VWS V14.01,2013-06-02 16:01:00,
2013-06-02 12:02:00,80.6,67.7,29.97,South,180,6.0,6.0,65,0.00,,OVC023,0.00,VWS V14.01,2013-06-02 16:02:00,
2013-06-02 12:03:00,81.1,67.8,29.97,SW,225,7.8,7.8,64,0.00,,BKN030,0.00,VWS V14.01,2013-06-02 16:03:00,
2013-06-02 12:04:00,81.1,68.2,29.97,SSW,202,10.5,10.5,65,0.00,,OVC023,0.00,VWS V14.01,2013-06-02 16:04:00,
2013-06-02 12:05:00,81.1,67.8,29.97,SW,225,7.8,7.8,64,0.00,,OVC023,0.00,VWS V14.01,2013-06-02 16:05:00,
2013-06-02 12:06:00,80.9,67.6,29.97,SSW,202,3.8,3.8,64,0.00,,OVC023,0.00,VWS V14.01,2013-06-02 16:06:00,
2013-06-02 12:07:00,81.5,67.7,29.97,SSW,202,11.0,11.0,63,0.00,,OVC023,0.00,VWS V14.01,2013-06-02 16:07:00,
2013-06-02 12:08:00,80.8,67.5,29.97,SSW,202,5.8,5.8,64,0.00,,BKN030,0.00,VWS V14.01,2013-06-02 16:08:00,
2013-06-02 12:09:00,80.8,67.5,29.97,SSW,202,10.5,10.5,64,0.00,,OVC023,0.00,VWS V14.01,2013-06-02 16:09:00,
2013-06-02 12:10:00,80.8,67.5,29.97,SSW,202,5.8,5.8,64,0.00,,OVC023,0.00,VWS V14.01,2013-06-02 16:10:00,
2013-06-02 12:11:00,80.0,67.2,29.97,WSW,248,5.6,5.6,65,0.00,,OVC023,0.00,VWS V14.01,2013-06-02 16:11:00,
2013-06-02 12:12:00,80.2,67.4,29.97,SW,225,7.6,7.6,65,0.00,,OVC023,0.00,VWS V14.01,2013-06-02 16:12:00,
2013-06-02 12:13:00,79.9,66.6,29.97,SSW,202,7.4,7.4,64,0.00,,BKN035,0.00,VWS V14.01,2013-06-02 16:13:00,
2013-06-02 12:14:00,79.9,66.6,29.97,SSW,202,6.3,6.3,64,0.00,,OVC023,0.00,VWS V14.01,2013-06-02 16:14:00,
2013-06-02 12:15:00,79.9,66.6,29.97,SSW,202,7.4,7.4,64,0.00,,OVC023,0.00,VWS V14.01,2013-06-02 16:15:00,
2013-06-02 12:16:00,80.0,67.2,29.97,SW,225,4.3,4.3,65,0.00,,OVC023,0.00,VWS V14.01,2013-06-02 16:16:00,
2013-06-02 12:17:00,80.0,67.2,29.97,SSW,202,5.6,5.6,65,0.00,,OVC023,0.00,VWS V14.01,2013-06-02 16:17:00,
2013-06-02 12:18:00,80.8,67.0,29.97,SSW,202,7.4,7.4,63,0.00,,BKN035,0.00,VWS V14.01,2013-06-02 16:18:00,
2013-06-02 12:19:00,80.9,68.1,29.97,SSW,202,6.3,6.3,65,0.00,,OVC023,0.00,VWS V14.01,2013-06-02 16:19:00,
2013-06-02 12:20:00,80.8,67.0,29.97,SSW,202,7.4,7.4,63,0.00,,OVC023,0.00,VWS V14.01,2013-06-02 16:20:00,
2013-06-02 12:21:00,81.1,68.2,29.97,SSE,158,5.8,5.8,65,0.00,,OVC023,0.00,VWS V14.01,2013-06-02 16:21:00,
2013-06-02 12:22:00,81.1,68.2,29.97,SE,135,7.8,7.8,65,0.00,,OVC023,0.00,VWS V14.01,2013-06-02 16:22:00,
2013-06-02 12:23:00,81.5,68.6,29.97,SSW,202,8.7,8.7,65,0.00,,BKN035,0.00,VWS V14.01,2013-06-02 16:23:00,
2013-06-02 12:24:00,81.1,68.2,29.97,SSW,202,8.5,8.5,65,0.00,,OVC023,0.00,VWS V14.01,2013-06-02 16:24:00,
2013-06-02 12:25:00,81.5,68.6,29.97,SSW,202,8.7,8.7,65,0.00,,OVC023,0.00,VWS V14.01,2013-06-02 16:25:00,
2013-06-02 12:26:00,81.5,68.1,29.97,South,180,6.5,6.5,64,0.00,,OVC023,0.00,VWS V14.01,2013-06-02 16:26:00,
2013-06-02 12:27:00,81.5,68.1,29.97,SW,225,7.6,7.6,64,0.00,,OVC023,0.00,VWS V14.01,2013-06-02 16:27:00,
2013-06-02 12:28:00,81.5,65.3,29.97,South,180,6.5,6.5,58,0.00,,BKN035,0.00,VWS V14.01,2013-06-02 16:28:00,
2013-06-02 12:29:00,82.0,69.1,29.97,South,180,8.7,8.7,65,0.00,,OVC023,0.00,VWS V14.01,2013-06-02 16:29:00,
2013-06-02 12:30:00,81.5,65.3,29.97,South,180,6.5,6.5,58,0.00,,OVC023,0.00,VWS V14.01,2013-06-02 16:30:00,
2013-06-02 12:31:00,81.5,66.3,29.97,SSW,202,8.5,8.5,60,0.00,,OVC023,0.00,VWS V14.01,2013-06-02 16:31:00,
2013-06-02 12:32:00,81.5,66.3,29.97,SSW,202,4.0,4.0,60,0.00,,OVC023,0.00,VWS V14.01,2013-06-02 16:32:00,
2013-06-02 12:33:00,81.8,65.6,0.00,SSW,202,6.3,6.3,58,0.00,,BKN035,0.00,VWS V14.01,2013-06-02 16:33:00,
2013-06-02 12:34:00,82.2,68.8,29.97,WSW,248,8.1,8.1,64,0.00,,OVC023,0.00,VWS V14.01,2013-06-02 16:34:00,
2013-06-02 12:35:00,81.8,65.6,0.00,SSW,202,6.3,6.3,58,0.00,,OVC023,0.00,VWS V14.01,2013-06-02 16:35:00,
2013-06-02 12:36:00,81.8,68.5,29.97,SW,225,3.1,3.1,64,0.00,,OVC023,0.00,VWS V14.01,2013-06-02 16:36:00,
2013-06-02 12:37:00,82.0,67.2,29.97,SE,135,7.8,7.8,61,0.00,,OVC023,0.00,VWS V14.01,2013-06-02 16:37:00,
2013-06-02 12:38:00,81.8,66.6,29.97,SSW,202,10.1,10.1,60,0.00,,BKN035,0.00,VWS V14.01,2013-06-02 16:38:00,
2013-06-02 12:39:00,82.0,67.2,29.97,SE,135,7.4,7.4,61,0.00,,OVC023,0.00,VWS V14.01,2013-06-02 16:39:00,
2013-06-02 12:40:00,81.8,66.6,29.97,SSW,202,10.1,10.1,60,0.00,,OVC023,0.00,VWS V14.01,2013-06-02 16:40:00,
2013-06-02 12:41:00,81.3,65.6,29.97,South,180,7.4,7.4,59,0.00,,OVC023,0.00,VWS V14.01,2013-06-02 16:41:00,
2013-06-02 12:42:00,81.3,65.6,29.97,South,180,7.2,7.2,59,0.00,,OVC023,0.00,VWS V14.01,2013-06-02 16:42:00,
2013-06-02 12:43:00,82.0,67.2,29.97,SSW,202,10.7,10.7,61,0.00,,BKN035,0.00,VWS V14.01,2013-06-02 16:43:00,
2013-06-02 12:44:00,81.7,66.4,29.97,SW,225,13.0,13.0,60,0.00,,OVC023,0.00,VWS V14.01,2013-06-02 16:44:00,
2013-06-02 12:45:00,82.0,67.2,29.97,SSW,202,10.7,10.7,61,0.00,,OVC023,0.00,VWS V14.01,2013-06-02 16:45:00,
2013-06-02 12:46:00,81.8,65.1,29.97,SW,225,11.9,11.9,57,0.00,,OVC023,0.00,VWS V14.01,2013-06-02 16:46:00,
2013-06-02 12:47:00,82.2,64.4,29.97,SSW,202,7.6,7.6,55,0.00,,OVC023,0.00,VWS V14.01,2013-06-02 16:47:00,
2013-06-02 12:48:00,82.4,66.1,29.97,SSE,158,4.3,4.3,58,0.00,,OVC033,0.00,VWS V14.01,2013-06-02 16:48:00,
2013-06-02 12:49:00,82.4,66.1,29.97,SSW,202,5.4,5.4,58,0.00,,OVC023,0.00,VWS V14.01,2013-06-02 16:49:00,
2013-06-02 12:50:00,82.4,66.1,29.97,SSE,158,4.3,4.3,58,0.00,,OVC023,0.00,VWS V14.01,2013-06-02 16:50:00,
2013-06-02 12:51:00,82.4,66.1,29.97,SSW,202,9.2,9.2,58,0.00,,OVC023,0.00,VWS V14.01,2013-06-02 16:51:00,
2013-06-02 12:52:00,82.2,66.0,29.97,South,180,3.6,3.6,58,0.00,,OVC023,0.00,VWS V14.01,2013-06-02 16:52:00,
2013-06-02 12:53:00,82.6,66.8,29.97,SW,225,9.4,9.4,59,0.00,,OVC033,0.00,VWS V14.01,2013-06-02 16:53:00,
2013-06-02 12:54:00,82.4,66.6,29.97,SSW,202,2.7,2.7,59,0.00,,OVC023,0.00,VWS V14.01,2013-06-02 16:54:00,
2013-06-02 12:55:00,82.6,66.8,29.97,SW,225,9.4,9.4,59,0.00,,OVC023,0.00,VWS V14.01,2013-06-02 16:55:00,
2013-06-02 12:56:00,81.3,64.1,29.97,SW,225,6.0,6.0,56,0.00,,OVC023,0.00,VWS V14.01,2013-06-02 16:56:00,
2013-06-02 12:57:00,81.5,65.3,29.97,SSE,158,3.6,3.6,58,0.00,,OVC023,0.00,VWS V14.01,2013-06-02 16:57:00,
2013-06-02 12:58:00,82.4,66.1,29.97,WSW,248,6.0,6.0,58,0.00,,OVC033,0.00,VWS V14.01,2013-06-02 16:58:00,
2013-06-02 12:59:00,81.7,65.5,29.97,WSW,248,6.3,6.3,58,0.00,,OVC023,0.00,VWS V14.01,2013-06-02 16:59:00,
2013-06-02 13:00:00,82.4,66.1,29.97,SW,225,7.4,7.4,58,0.00,,OVC023,0.00,VWS V14.01,2013-06-02 17:00:00,
2013-06-02 13:01:00,82.0,65.3,29.97,WSW,248,6.5,6.5,57,0.00,,OVC023,0.00,VWS V14.01,2013-06-02 17:01:00,
2013-06-02 13:02:00,82.4,65.6,29.97,WSW,248,6.5,6.5,57,0.00,,OVC023,0.00,VWS V14.01,2013-06-02 17:02:00,
2013-06-02 13:03:00,82.4,65.6,29.97,SW,225,4.3,4.3,57,0.00,,OVC033,0.00,VWS V14.01,2013-06-02 17:03:00,
2013-06-02 13:04:00,82.0,65.8,29.97,WSW,248,5.8,5.8,58,0.00,,OVC023,0.00,VWS V14.01,2013-06-02 17:04:00,
2013-06-02 13:05:00,82.4,65.6,29.97,SW,225,4.3,4.3,57,0.00,,OVC023,0.00,VWS V14.01,2013-06-02 17:05:00,
2013-06-02 13:06:00,82.6,66.3,29.97,SSW,202,3.6,3.6,58,0.00,,OVC023,0.00,VWS V14.01,2013-06-02 17:06:00,
2013-06-02 13:07:00,82.7,66.5,29.97,SSW,202,6.0,6.0,58,0.00,,OVC023,0.00,VWS V14.01,2013-06-02 17:07:00,
2013-06-02 13:08:00,82.2,64.4,29.97,South,180,2.9,2.9,55,0.00,,OVC033,0.00,VWS V14.01,2013-06-02 17:08:00,
2013-06-02 13:09:00,82.4,65.1,29.97,SW,225,3.8,3.8,56,0.00,,OVC023,0.00,VWS V14.01,2013-06-02 17:09:00,
2013-06-02 13:10:00,82.2,64.4,29.97,WSW,248,2.9,2.9,55,0.00,,OVC023,0.00,VWS V14.01,2013-06-02 17:10:00,
2013-06-02 13:11:00,82.6,65.3,29.97,SW,225,6.9,6.9,56,0.00,,OVC023,0.00,VWS V14.01,2013-06-02 17:11:00,
2013-06-02 13:12:00,82.9,68.6,29.97,SW,225,4.0,4.0,62,0.00,,OVC023,0.00,VWS V14.01,2013-06-02 17:12:00,
2013-06-02 13:13:00,81.5,64.8,29.97,SW,225,5.8,5.8,57,0.00,,OVC033,0.00,VWS V14.01,2013-06-02 17:13:00,
2013-06-02 13:14:00,82.0,66.3,29.97,SW,225,7.2,7.2,59,0.00,,OVC023,0.00,VWS V14.01,2013-06-02 17:14:00,
2013-06-02 13:15:00,81.5,64.8,29.97,SW,225,10.3,10.3,57,0.00,,OVC023,0.00,VWS V14.01,2013-06-02 17:15:00,
2013-06-02 13:16:00,81.3,65.1,29.97,SW,225,7.4,7.4,58,0.00,,OVC023,0.00,VWS V14.01,2013-06-02 17:16:00,
2013-06-02 13:17:00,81.3,65.1,29.97,SW,225,7.2,7.2,58,0.00,,OVC023,0.00,VWS V14.01,2013-06-02 17:17:00,
2013-06-02 13:18:00,82.4,66.1,29.97,WSW,248,6.0,6.0,58,0.00,,OVC033,0.00,VWS V14.01,2013-06-02 17:18:00,
2013-06-02 13:19:00,82.4,66.1,29.97,WSW,248,5.6,5.6,58,0.00,,OVC023,0.00,VWS V14.01,2013-06-02 17:19:00,
2013-06-02 13:20:00,82.4,66.1,29.97,WSW,248,6.0,6.0,58,0.00,,OVC023,0.00,VWS V14.01,2013-06-02 17:20:00,
2013-06-02 13:21:00,82.9,66.1,29.97,WSW,248,5.4,5.4,57,0.00,,OVC023,0.00,VWS V14.01,2013-06-02 17:21:00,
2013-06-02 13:22:00,83.1,66.8,29.97,WSW,248,6.0,6.0,58,0.00,,OVC023,0.00,VWS V14.01,2013-06-02 17:22:00,
2013-06-02 13:23:00,82.9,67.6,29.97,SW,225,5.8,5.8,60,0.00,,OVC033,0.00,VWS V14.01,2013-06-02 17:23:00,
2013-06-02 13:24:00,82.2,64.4,29.97,SW,225,5.8,5.8,55,0.00,,OVC023,0.00,VWS V14.01,2013-06-02 17:24:00,
2013-06-02 13:25:00,82.2,64.4,29.97,SW,225,6.5,6.5,55,0.00,,OVC023,0.00,VWS V14.01,2013-06-02 17:25:00,
2013-06-02 13:26:00,82.9,67.6,29.97,WSW,248,8.5,8.5,60,0.00,,OVC023,0.00,VWS V14.01,2013-06-02 17:26:00,
2013-06-02 13:27:00,82.0,64.8,29.97,SW,225,7.6,7.6,56,0.00,,OVC023,0.00,VWS V14.01,2013-06-02 17:27:00,
2013-06-02 13:28:00,81.5,65.3,29.97,SSW,202,6.0,6.0,58,0.00,,OVC033,0.00,VWS V14.01,2013-06-02 17:28:00,
2013-06-02 13:29:00,81.7,64.5,29.97,WSW,248,7.4,7.4,56,0.00,,OVC023,0.00,VWS V14.01,2013-06-02 17:29:00,
2013-06-02 13:30:00,81.5,65.3,29.97,WSW,248,8.5,8.5,58,0.00,,OVC023,0.00,VWS V14.01,2013-06-02 17:30:00,
2013-06-02 13:31:00,81.5,65.3,29.97,SSW,202,6.3,6.3,58,0.00,,OVC023,0.00,VWS V14.01,2013-06-02 17:31:00,
2013-06-02 13:32:00,82.2,67.9,29.97,SSW,202,4.7,4.7,62,0.00,,OVC023,0.00,VWS V14.01,2013-06-02 17:32:00,
2013-06-02 13:33:00,82.9,66.1,29.97,WSW,248,5.8,5.8,57,0.00,,OVC033,0.00,VWS V14.01,2013-06-02 17:33:00,
2013-06-02 13:34:00,82.6,66.3,29.97,SSW,202,9.6,9.6,58,0.00,,OVC023,0.00,VWS V14.01,2013-06-02 17:34:00,
2013-06-02 13:35:00,82.9,66.1,29.97,SSW,202,6.5,6.5,57,0.00,,OVC023,0.00,VWS V14.01,2013-06-02 17:35:00,
2013-06-02 13:36:00,82.6,65.3,29.97,WSW,248,6.5,6.5,56,0.00,,OVC023,0.00,VWS V14.01,2013-06-02 17:36:00,
2013-06-02 13:37:00,82.9,67.1,29.97,ESE,112,2.9,2.9,59,0.00,,OVC023,0.00,VWS V14.01,2013-06-02 17:37:00,
2013-06-02 13:38:00,83.1,66.8,29.97,South,180,4.7,4.7,58,0.00,,OVC023,0.00,VWS V14.01,2013-06-02 17:38:00,
2013-06-02 13:39:00,83.3,68.0,29.97,SSW,202,5.6,5.6,60,0.00,,OVC033,0.00,VWS V14.01,2013-06-02 17:39:00,
2013-06-02 13:40:00,83.3,68.0,29.97,SSW,202,4.3,4.3,60,0.00,,OVC023,0.00,VWS V14.01,2013-06-02 17:40:00,
2013-06-02 13:41:00,83.3,68.0,29.97,South,180,3.6,3.6,60,0.00,,OVC023,0.00,VWS V14.01,2013-06-02 17:41:00,
2013-06-02 13:42:00,83.1,66.3,29.97,South,180,5.8,5.8,57,0.00,,OVC023,0.00,VWS V14.01,2013-06-02 17:42:00,
2013-06-02 13:43:00,82.9,65.6,29.97,South,180,4.3,4.3,56,0.00,,OVC023,0.00,VWS V14.01,2013-06-02 17:43:00,
2013-06-02 13:44:00,83.1,65.8,29.97,SSW,202,7.2,7.2,56,0.00,,OVC033,0.00,VWS V14.01,2013-06-02 17:44:00,
2013-06-02 13:45:00,83.1,65.8,29.97,South,180,4.0,4.0,56,0.00,,OVC023,0.00,VWS V14.01,2013-06-02 17:45:00,
2013-06-02 13:46:00,83.1,65.8,29.97,South,180,4.9,4.9,56,0.00,,OVC023,0.00,VWS V14.01,2013-06-02 17:46:00,
2013-06-02 13:47:00,83.3,66.0,29.97,SW,225,7.8,7.8,56,0.00,,OVC023,0.00,VWS V14.01,2013-06-02 17:47:00,
2013-06-02 13:48:00,83.3,64.9,29.97,SSW,202,7.6,7.6,54,0.00,,OVC023,0.00,VWS V14.01,2013-06-02 17:48:00,
2013-06-02 13:49:00,83.3,64.9,29.97,SSE,158,5.6,5.6,54,0.00,,SCT047,0.00,VWS V14.01,2013-06-02 17:49:00,
2013-06-02 13:50:00,83.3,64.9,29.97,SSE,158,2.7,2.7,54,0.00,,OVC023,0.00,VWS V14.01,2013-06-02 17:50:00,
2013-06-02 13:51:00,83.3,64.9,29.97,SSW,202,3.4,3.4,54,0.00,,OVC023,0.00,VWS V14.01,2013-06-02 17:51:00,
2013-06-02 13:52:00,83.8,65.4,29.97,SSW,202,5.6,5.6,54,0.00,,OVC023,0.00,VWS V14.01,2013-06-02 17:52:00,
2013-06-02 13:53:00,83.8,65.9,29.97,SW,225,5.8,5.8,55,0.00,,OVC023,0.00,VWS V14.01,2013-06-02 17:53:00,
2013-06-02 13:54:00,84.5,67.1,29.97,South,180,6.0,6.0,56,0.00,,SCT047,0.00,VWS V14.01,2013-06-02 17:54:00,
2013-06-02 13:55:00,84.2,66.3,29.97,SSW,202,4.3,4.3,55,0.00,,OVC023,0.00,VWS V14.01,2013-06-02 17:55:00,
2013-06-02 13:56:00,84.5,67.1,29.97,South,180,6.0,6.0,56,0.00,,OVC023,0.00,VWS V14.01,2013-06-02 17:56:00,
2013-06-02 13:57:00,84.2,65.2,29.97,SSW,202,7.6,7.6,53,0.00,,OVC023,0.00,VWS V14.01,2013-06-02 17:57:00,
2013-06-02 13:58:00,84.0,65.6,29.97,SSW,202,5.6,5.6,54,0.00,,OVC023,0.00,VWS V14.01,2013-06-02 17:58:00,
2013-06-02 13:59:00,84.5,66.1,29.97,SSE,158,4.3,4.3,54,0.00,,SCT047,0.00,VWS V14.01,2013-06-02 17:59:00,
2013-06-02 14:00:00,84.2,65.2,29.97,SSW,202,4.0,4.0,53,0.00,,OVC023,0.00,VWS V14.01,2013-06-02 18:00:00,
2013-06-02 14:01:00,84.5,66.1,29.97,SSE,158,4.3,4.3,54,0.00,,OVC023,0.00,VWS V14.01,2013-06-02 18:01:00,
2013-06-02 14:02:00,84.5,66.1,29.94,SSW,202,8.5,8.5,54,0.00,,OVC023,0.00,VWS V14.01,2013-06-02 18:02:00,
2013-06-02 14:03:00,84.5,66.1,29.94,South,180,6.5,6.5,54,0.00,,OVC023,0.00,VWS V14.01,2013-06-02 18:03:00,
2013-06-02 14:04:00,84.4,65.4,29.94,SSW,202,4.3,4.3,53,0.00,,SCT047,0.00,VWS V14.01,2013-06-02 18:04:00,
2013-06-02 14:05:00,84.4,64.3,29.94,South,180,6.0,6.0,51,0.00,,OVC023,0.00,VWS V14.01,2013-06-02 18:05:00,
2013-06-02 14:06:00,84.4,65.4,29.94,SSW,202,4.3,4.3,53,0.00,,OVC023,0.00,VWS V14.01,2013-06-02 18:06:00,
2013-06-02 14:07:00,84.4,62.5,29.94,SSW,202,5.6,5.6,48,0.00,,OVC023,0.00,VWS V14.01,2013-06-02 18:07:00,
2013-06-02 14:08:00,84.4,61.3,29.94,South,180,4.3,4.3,46,0.00,,OVC023,0.00,VWS V14.01,2013-06-02 18:08:00,
2013-06-02 14:09:00,84.9,63.0,29.94,West,270,5.6,5.6,48,0.00,,SCT047,0.00,VWS V14.01,2013-06-02 18:09:00,
2013-06-02 14:10:00,84.5,61.5,29.94,SW,225,7.4,7.4,46,0.00,,OVC023,0.00,VWS V14.01,2013-06-02 18:10:00,
2013-06-02 14:11:00,84.9,63.0,29.94,West,270,5.6,5.6,48,0.00,,OVC023,0.00,VWS V14.01,2013-06-02 18:11:00,
2013-06-02 14:12:00,85.1,66.0,29.94,SW,225,5.4,5.4,53,0.00,,OVC023,0.00,VWS V14.01,2013-06-02 18:12:00,
2013-06-02 14:13:00,84.7,66.2,29.94,West,270,5.4,5.4,54,0.00,,OVC023,0.00,VWS V14.01,2013-06-02 18:13:00,
2013-06-02 14:14:00,84.0,63.9,29.94,WSW,248,3.1,3.1,51,0.00,,SCT047,0.00,VWS V14.01,2013-06-02 18:14:00,
2013-06-02 14:15:00,84.4,65.4,29.94,SSW,202,4.3,4.3,53,0.00,,OVC023,0.00,VWS V14.01,2013-06-02 18:15:00,
2013-06-02 14:16:00,84.0,63.9,29.94,WSW,248,3.1,3.1,51,0.00,,OVC023,0.00,VWS V14.01,2013-06-02 18:16:00,
2013-06-02 14:17:00,84.5,66.1,29.94,SSE,158,2.7,2.7,54,0.00,,OVC023,0.00,VWS V14.01,2013-06-02 18:17:00,
2013-06-02 14:18:00,84.5,61.5,29.94,SW,225,8.1,8.1,46,0.00,,OVC023,0.00,VWS V14.01,2013-06-02 18:18:00,
2013-06-02 14:19:00,84.9,63.0,29.94,SSW,202,3.8,3.8,48,0.00,,SCT047,0.00,VWS V14.01,2013-06-02 18:19:00,
2013-06-02 14:20:00,84.9,61.8,29.94,SW,225,5.8,5.8,46,0.00,,OVC023,0.00,VWS V14.01,2013-06-02 18:20:00,
2013-06-02 14:21:00,84.9,63.0,29.94,SSW,202,3.8,3.8,48,0.00,,OVC023,0.00,VWS V14.01,2013-06-02 18:21:00,
2013-06-02 14:22:00,85.1,64.9,29.94,SSW,202,4.3,4.3,51,0.00,,OVC023,0.00,VWS V14.01,2013-06-02 18:22:00,
2013-06-02 14:23:00,84.7,59.8,29.94,SSW,202,4.3,4.3,43,0.00,,OVC023,0.00,VWS V14.01,2013-06-02 18:23:00,
2013-06-02 14:24:00,84.5,67.1,29.94,WSW,248,5.8,5.8,56,0.00,,SCT047,0.00,VWS V14.01,2013-06-02 18:24:00,
2013-06-02 14:25:00,84.0,61.0,29.94,WSW,248,3.6,3.6,46,0.00,,OVC023,0.00,VWS V14.01,2013-06-02 18:25:00,
2013-06-02 14:26:00,84.5,67.1,29.94,WSW,248,5.8,5.8,56,0.00,,OVC023,0.00,VWS V14.01,2013-06-02 18:26:00,
2013-06-02 14:27:00,85.1,66.6,29.94,SW,225,5.8,5.8,54,0.00,,OVC023,0.00,VWS V14.01,2013-06-02 18:27:00,
2013-06-02 14:28:00,84.5,65.5,29.94,West,270,6.5,6.5,53,0.00,,OVC023,0.00,VWS V14.01,2013-06-02 18:28:00,
2013-06-02 14:29:00,84.9,65.9,29.94,SSW,202,6.3,6.3,53,0.00,,SCT047,0.00,VWS V14.01,2013-06-02 18:29:00,
2013-06-02 14:30:00,84.9,66.4,29.94,SSW,202,7.8,7.8,54,0.00,,OVC023,0.00,VWS V14.01,2013-06-02 18:30:00,
2013-06-02 14:31:00,84.9,65.9,29.94,SSW,202,6.3,6.3,53,0.00,,OVC023,0.00,VWS V14.01,2013-06-02 18:31:00,
2013-06-02 14:32:00,84.2,61.2,29.91,WSW,248,4.3,4.3,46,0.00,,OVC023,0.00,VWS V14.01,2013-06-02 18:32:00,
2013-06-02 14:33:00,84.2,61.2,29.91,South,180,4.3,4.3,46,0.00,,OVC023,0.00,VWS V14.01,2013-06-02 18:33:00,
2013-06-02 14:34:00,84.9,58.6,29.91,WSW,248,5.8,5.8,41,0.00,,SCT047,0.00,VWS V14.01,2013-06-02 18:34:00,
2013-06-02 14:35:00,85.3,58.9,29.91,SW,225,5.8,5.8,41,0.00,,OVC023,0.00,VWS V14.01,2013-06-02 18:35:00,
2013-06-02 14:36:00,84.9,58.6,29.91,WSW,248,5.8,5.8,41,0.00,,OVC023,0.00,VWS V14.01,2013-06-02 18:36:00,
2013-06-02 14:37:00,85.6,66.5,29.91,West,270,6.3,6.3,53,0.00,,OVC023,0.00,VWS V14.01,2013-06-02 18:37:00,
2013-06-02 14:38:00,85.8,63.9,29.91,SW,225,5.8,5.8,48,0.00,,OVC023,0.00,VWS V14.01,2013-06-02 18:38:00,
2013-06-02 14:39:00,86.0,62.2,29.91,WSW,248,2.7,2.7,45,0.00,,SCT047,0.00,VWS V14.01,2013-06-02 18:39:00,
2013-06-02 14:40:00,85.6,57.1,29.91,SW,225,6.5,6.5,38,0.00,,OVC023,0.00,VWS V14.01,2013-06-02 18:40:00,
2013-06-02 14:41:00,85.6,57.1,29.91,SW,225,4.9,4.9,38,0.00,,OVC023,0.00,VWS V14.01,2013-06-02 18:41:00,
2013-06-02 14:42:00,86.2,67.0,29.91,SSW,202,3.6,3.6,53,0.00,,OVC023,0.00,VWS V14.01,2013-06-02 18:42:00,
2013-06-02 14:43:00,85.3,56.8,29.91,West,270,8.1,8.1,38,0.00,,OVC023,0.00,VWS V14.01,2013-06-02 18:43:00,
2013-06-02 14:44:00,84.2,58.0,29.91,SSW,202,6.0,6.0,41,0.00,,FEW041,0.00,VWS V14.01,2013-06-02 18:44:00,
2013-06-02 14:45:00,84.7,58.4,29.91,WSW,248,5.6,5.6,41,0.00,,OVC023,0.00,VWS V14.01,2013-06-02 18:45:00,
2013-06-02 14:46:00,84.2,58.0,29.91,WSW,248,5.8,5.8,41,0.00,,OVC023,0.00,VWS V14.01,2013-06-02 18:46:00,
2013-06-02 14:47:00,84.5,61.5,29.91,SW,225,8.5,8.5,46,0.00,,OVC023,0.00,VWS V14.01,2013-06-02 18:47:00,
2013-06-02 14:48:00,84.5,61.5,29.91,SSW,202,4.0,4.0,46,0.00,,OVC023,0.00,VWS V14.01,2013-06-02 18:48:00,
2013-06-02 14:49:00,85.4,56.2,29.91,SSW,202,4.3,4.3,37,0.00,,FEW041,0.00,VWS V14.01,2013-06-02 18:49:00,
2013-06-02 14:50:00,85.3,60.3,29.91,SSE,158,3.8,3.8,43,0.00,,OVC023,0.00,VWS V14.01,2013-06-02 18:50:00,
2013-06-02 14:51:00,85.4,56.2,29.91,WSW,248,4.3,4.3,37,0.00,,OVC023,0.00,VWS V14.01,2013-06-02 18:51:00,
2013-06-02 14:52:00,85.8,60.7,29.91,SSE,158,7.2,7.2,43,0.00,,OVC023,0.00,VWS V14.01,2013-06-02 18:52:00,
2013-06-02 14:53:00,85.6,59.2,29.91,SSE,158,8.1,8.1,41,0.00,,OVC023,0.00,VWS V14.01,2013-06-02 18:53:00,
2013-06-02 14:54:00,85.4,57.0,29.91,West,270,7.6,7.6,38,0.00,,OVC023,0.00,VWS V14.01,2013-06-02 18:54:00,
2013-06-02 14:55:00,85.3,56.8,29.91,SSW,202,7.6,7.6,38,0.00,,FEW041,0.00,VWS V14.01,2013-06-02 18:55:00,
2013-06-02 14:56:00,85.3,56.8,29.91,SSW,202,7.6,7.6,38,0.00,,OVC023,0.00,VWS V14.01,2013-06-02 18:56:00,
2013-06-02 14:57:00,85.6,57.1,29.91,South,180,5.8,5.8,38,0.00,,OVC023,0.00,VWS V14.01,2013-06-02 18:57:00,
2013-06-02 14:58:00,85.6,56.4,29.91,South,180,4.7,4.7,37,0.00,,OVC023,0.00,VWS V14.01,2013-06-02 18:58:00,
2013-06-02 14:59:00,85.6,57.1,29.91,SSE,158,2.9,2.9,38,0.00,,OVC023,0.00,VWS V14.01,2013-06-02 18:59:00,
2013-06-02 15:00:00,85.8,56.5,29.91,WSW,248,3.4,3.4,37,0.00,,FEW041,0.00,VWS V14.01,2013-06-02 19:00:00,
2013-06-02 15:01:00,86.3,67.8,29.91,SW,225,3.4,3.4,54,0.00,,OVC023,0.00,VWS V14.01,2013-06-02 19:01:00,
2013-06-02 15:02:00,85.8,56.5,29.91,WSW,248,3.4,3.4,37,0.00,,OVC023,0.00,VWS V14.01,2013-06-02 19:02:00,
2013-06-02 15:03:00,85.8,57.3,29.91,West,270,3.1,3.1,38,0.00,,OVC023,0.00,VWS V14.01,2013-06-02 19:03:00,
2013-06-02 15:04:00,86.2,61.1,29.91,WNW,292,7.2,7.2,43,0.00,,OVC023,0.00,VWS V14.01,2013-06-02 19:04:00,
2013-06-02 15:05:00,85.8,56.5,29.91,SSW,202,7.8,7.8,37,0.00,,FEW041,0.00,VWS V14.01,2013-06-02 19:05:00,
2013-06-02 15:06:00,85.8,60.7,29.91,SSW,202,6.3,6.3,43,0.00,,OVC023,0.00,VWS V14.01,2013-06-02 19:06:00,
2013-06-02 15:07:00,85.8,56.5,29.91,SSW,202,7.6,7.6,37,0.00,,OVC023,0.00,VWS V14.01,2013-06-02 19:07:00,
2013-06-02 15:08:00,85.8,56.5,29.91,WSW,248,7.6,7.6,37,0.00,,OVC023,0.00,VWS V14.01,2013-06-02 19:08:00,
2013-06-02 15:09:00,86.2,56.9,29.91,West,270,6.0,6.0,37,0.00,,OVC023,0.00,VWS V14.01,2013-06-02 19:09:00,
2013-06-02 15:10:00,86.7,65.9,29.91,SSW,202,2.5,2.5,50,0.00,,FEW041,0.00,VWS V14.01,2013-06-02 19:10:00,
2013-06-02 15:11:00,86.2,56.9,29.91,SSW,202,3.8,3.8,37,0.00,,OVC023,0.00,VWS V14.01,2013-06-02 19:11:00,
2013-06-02 15:12:00,86.3,59.2,29.91,SSW,202,2.5,2.5,40,0.00,,OVC023,0.00,VWS V14.01,2013-06-02 19:12:00,
2013-06-02 15:13:00,86.7,65.9,29.91,West,270,4.3,4.3,50,0.00,,OVC023,0.00,VWS V14.01,2013-06-02 19:13:00,
2013-06-02 15:14:00,86.7,65.9,29.91,SW,225,3.6,3.6,50,0.00,,OVC023,0.00,VWS V14.01,2013-06-02 19:14:00,
2013-06-02 15:15:00,86.5,57.9,29.91,SSE,158,5.4,5.4,38,0.00,,FEW041,0.00,VWS V14.01,2013-06-02 19:15:00,
2013-06-02 15:16:00,86.3,57.0,29.91,SSW,202,5.4,5.4,37,0.00,,OVC023,0.00,VWS V14.01,2013-06-02 19:16:00,
2013-06-02 15:17:00,86.3,57.0,29.91,South,180,4.9,4.9,37,0.00,,OVC023,0.00,VWS V14.01,2013-06-02 19:17:00,
2013-06-02 15:18:00,86.5,57.9,29.91,SE,135,11.0,11.0,38,0.00,,OVC023,0.00,VWS V14.01,2013-06-02 19:18:00,
2013-06-02 15:19:00,86.3,57.0,29.91,SSE,158,6.5,6.5,37,0.00,,OVC023,0.00,VWS V14.01,2013-06-02 19:19:00,
2013-06-02 15:20:00,86.7,61.5,29.91,SW,225,3.6,3.6,43,0.00,,FEW041,0.00,VWS V14.01,2013-06-02 19:20:00,
2013-06-02 15:21:00,86.3,62.5,29.91,SW,225,6.0,6.0,45,0.00,,OVC023,0.00,VWS V14.01,2013-06-02 19:21:00,
2013-06-02 15:22:00,86.7,61.5,29.91,WSW,248,5.8,5.8,43,0.00,,OVC023,0.00,VWS V14.01,2013-06-02 19:22:00,
2013-06-02 15:23:00,86.7,59.5,29.91,SSE,158,4.0,4.0,40,0.00,,OVC023,0.00,VWS V14.01,2013-06-02 19:23:00,
2013-06-02 15:24:00,86.7,57.3,29.91,SSE,158,5.8,5.8,37,0.00,,OVC023,0.00,VWS V14.01,2013-06-02 19:24:00,
2013-06-02 15:25:00,86.7,57.3,29.91,South,180,3.6,3.6,37,0.00,,OVC023,0.00,VWS V14.01,2013-06-02 19:25:00,
2013-06-02 15:26:00,86.2,56.9,29.91,SSW,202,8.5,8.5,37,0.00,,FEW041,0.00,VWS V14.01,2013-06-02 19:26:00,
2013-06-02 15:27:00,86.5,57.2,29.91,South,180,5.6,5.6,37,0.00,,OVC023,0.00,VWS V14.01,2013-06-02 19:27:00,
2013-06-02 15:28:00,86.2,56.9,29.91,SW,225,10.5,10.5,37,0.00,,OVC023,0.00,VWS V14.01,2013-06-02 19:28:00,
2013-06-02 15:29:00,86.2,56.9,29.91,SW,225,5.8,5.8,37,0.00,,OVC023,0.00,VWS V14.01,2013-06-02 19:29:00,
2013-06-02 15:30:00,86.0,57.4,29.91,South,180,5.4,5.4,38,0.00,,OVC023,0.00,VWS V14.01,2013-06-02 19:30:00,
2013-06-02 15:31:00,86.7,67.5,29.91,SSW,202,4.0,4.0,53,0.00,,FEW041,0.00,VWS V14.01,2013-06-02 19:31:00,
2013-06-02 15:32:00,86.3,57.0,29.91,SW,225,4.9,4.9,37,0.00,,OVC023,0.00,VWS V14.01,2013-06-02 19:32:00,
2013-06-02 15:33:00,86.7,67.5,29.91,SSW,202,4.9,4.9,53,0.00,,OVC023,0.00,VWS V14.01,2013-06-02 19:33:00,
2013-06-02 15:34:00,86.3,57.0,29.91,WSW,248,4.9,4.9,37,0.00,,OVC023,0.00,VWS V14.01,2013-06-02 19:34:00,
2013-06-02 15:35:00,86.5,57.2,29.91,SSW,202,7.6,7.6,37,0.00,,OVC023,0.00,VWS V14.01,2013-06-02 19:35:00,
2013-06-02 15:36:00,86.7,57.3,29.91,SW,225,6.3,6.3,37,0.00,,FEW041,0.00,VWS V14.01,2013-06-02 19:36:00,
2013-06-02 15:37:00,86.7,57.3,29.91,WSW,248,5.4,5.4,37,0.00,,OVC023,0.00,VWS V14.01,2013-06-02 19:37:00,
2013-06-02 15:38:00,86.7,57.3,29.91,SW,225,6.3,6.3,37,0.00,,OVC023,0.00,VWS V14.01,2013-06-02 19:38:00,
2013-06-02 15:39:00,86.7,57.3,29.91,SW,225,4.3,4.3,37,0.00,,OVC023,0.00,VWS V14.01,2013-06-02 19:39:00,
2013-06-02 15:40:00,86.3,57.0,29.91,SW,225,4.0,4.0,37,0.00,,OVC023,0.00,VWS V14.01,2013-06-02 19:40:00,
2013-06-02 15:41:00,86.9,58.2,29.91,SSW,202,3.1,3.1,38,0.00,,FEW041,0.00,VWS V14.01,2013-06-02 19:41:00,
2013-06-02 15:42:00,86.7,57.3,29.91,SW,225,3.4,3.4,37,0.00,,OVC023,0.00,VWS V14.01,2013-06-02 19:42:00,
2013-06-02 15:43:00,86.9,58.2,29.91,SSW,202,3.1,3.1,38,0.00,,OVC023,0.00,VWS V14.01,2013-06-02 19:43:00,
2013-06-02 15:44:00,86.9,57.5,29.91,SSW,202,5.4,5.4,37,0.00,,OVC023,0.00,VWS V14.01,2013-06-02 19:44:00,
2013-06-02 15:45:00,86.9,58.2,29.91,South,180,5.4,5.4,38,0.00,,OVC023,0.00,VWS V14.01,2013-06-02 19:45:00,
2013-06-02 15:46:00,86.5,57.2,29.91,South,180,5.6,5.6,37,0.00,,FEW050,0.00,VWS V14.01,2013-06-02 19:46:00,
2013-06-02 15:47:00,86.3,57.0,29.91,SW,225,9.8,9.8,37,0.00,,OVC023,0.00,VWS V14.01,2013-06-02 19:47:00,
2013-06-02 15:48:00,86.5,57.2,29.91,South,180,5.6,5.6,37,0.00,,OVC023,0.00,VWS V14.01,2013-06-02 19:48:00,
2013-06-02 15:49:00,86.3,57.0,29.91,SSW,202,4.0,4.0,37,0.00,,OVC023,0.00,VWS V14.01,2013-06-02 19:49:00,
2013-06-02 15:50:00,86.3,57.0,29.91,SSW,202,7.4,7.4,37,0.00,,OVC023,0.00,VWS V14.01,2013-06-02 19:50:00,
2013-06-02 15:51:00,86.0,56.7,29.91,SSE,158,4.9,4.9,37,0.00,,FEW050,0.00,VWS V14.01,2013-06-02 19:51:00,
2013-06-02 15:52:00,86.0,56.7,29.91,SSW,202,4.9,4.9,37,0.00,,OVC023,0.00,VWS V14.01,2013-06-02 19:52:00,
2013-06-02 15:53:00,86.0,56.7,29.91,SSE,158,4.9,4.9,37,0.00,,OVC023,0.00,VWS V14.01,2013-06-02 19:53:00,
2013-06-02 15:54:00,86.0,56.7,29.91,South,180,3.4,3.4,37,0.00,,OVC023,0.00,VWS V14.01,2013-06-02 19:54:00,
2013-06-02 15:55:00,86.0,56.7,29.91,SSW,202,2.9,2.9,37,0.00,,OVC023,0.00,VWS V14.01,2013-06-02 19:55:00,
2013-06-02 15:56:00,85.6,57.1,29.91,SW,225,3.1,3.1,38,0.00,,FEW050,0.00,VWS V14.01,2013-06-02 19:56:00,
2013-06-02 15:57:00,85.8,56.5,29.91,SSW,202,2.7,2.7,37,0.00,,OVC023,0.00,VWS V14.01,2013-06-02 19:57:00,
2013-06-02 15:58:00,85.6,57.1,29.91,SW,225,3.1,3.1,38,0.00,,OVC023,0.00,VWS V14.01,2013-06-02 19:58:00,
2013-06-02 15:59:00,85.6,56.4,29.91,SSW,202,2.7,2.7,37,0.00,,OVC023,0.00,VWS V14.01,2013-06-02 19:59:00,
2013-06-02 16:00:00,85.6,56.4,29.91,SSE,158,3.8,3.8,37,0.00,,OVC023,0.00,VWS V14.01,2013-06-02 20:00:00,
2013-06-02 16:01:00,85.4,56.2,29.88,SW,225,2.5,2.5,37,0.00,,FEW050,0.00,VWS V14.01,2013-06-02 20:01:00,
2013-06-02 16:02:00,85.3,56.1,29.88,SSE,158,2.9,2.9,37,0.00,,OVC023,0.00,VWS V14.01,2013-06-02 20:02:00,
2013-06-02 16:03:00,85.4,56.2,29.88,SSW,202,2.7,2.7,37,0.00,,OVC023,0.00,VWS V14.01,2013-06-02 20:03:00,
2013-06-02 16:04:00,85.4,57.0,29.88,SW,225,5.8,5.8,38,0.00,,OVC023,0.00,VWS V14.01,2013-06-02 20:04:00,
2013-06-02 16:05:00,85.3,56.1,29.88,SSW,202,5.6,5.6,37,0.00,,OVC023,0.00,VWS V14.01,2013-06-02 20:05:00,
2013-06-02 16:06:00,85.3,62.2,29.88,SSW,202,1.6,1.6,46,0.00,,FEW050,0.00,VWS V14.01,2013-06-02 20:06:00,
2013-06-02 16:07:00,85.4,60.4,29.88,SSW,202,3.6,3.6,43,0.00,,OVC023,0.00,VWS V14.01,2013-06-02 20:07:00,
2013-06-02 16:08:00,85.3,62.2,29.88,SSW,202,1.6,1.6,46,0.00,,OVC023,0.00,VWS V14.01,2013-06-02 20:08:00,
2013-06-02 16:09:00,85.3,62.2,29.88,SSW,202,2.5,2.5,46,0.00,,OVC023,0.00,VWS V14.01,2013-06-02 20:09:00,
2013-06-02 16:10:00,85.4,57.0,29.88,SSW,202,2.5,2.5,38,0.00,,OVC023,0.00,VWS V14.01,2013-06-02 20:10:00,
2013-06-02 16:11:00,85.4,57.0,29.88,SE,135,1.1,1.1,38,0.00,,FEW050,0.00,VWS V14.01,2013-06-02 20:11:00,
2013-06-02 16:12:00,85.4,56.2,29.88,ESE,112,3.4,3.4,37,0.00,,OVC023,0.00,VWS V14.01,2013-06-02 20:12:00,
2013-06-02 16:13:00,85.4,57.0,29.88,SE,135,1.1,1.1,38,0.00,,OVC023,0.00,VWS V14.01,2013-06-02 20:13:00,
2013-06-02 16:14:00,85.6,59.2,29.88,South,180,2.5,2.5,41,0.00,,OVC023,0.00,VWS V14.01,2013-06-02 20:14:00,
2013-06-02 16:15:00,85.8,60.7,29.88,SSW,202,3.1,3.1,43,0.00,,OVC023,0.00,VWS V14.01,2013-06-02 20:15:00,
2013-06-02 16:16:00,85.6,57.1,29.85,SSW,202,4.0,4.0,38,0.00,,FEW050,0.00,VWS V14.01,2013-06-02 20:16:00,
2013-06-02 16:17:00,85.6,57.1,29.85,SSW,202,4.0,4.0,38,0.00,,OVC023,0.00,VWS V14.01,2013-06-02 20:17:00,
2013-06-02 16:18:00,85.6,57.1,29.85,SSW,202,4.0,4.0,38,0.00,,OVC023,0.00,VWS V14.01,2013-06-02 20:18:00,
2013-06-02 16:19:00,85.8,58.7,29.85,SSW,202,2.7,2.7,40,0.00,,OVC023,0.00,VWS V14.01,2013-06-02 20:19:00,
2013-06-02 16:20:00,85.8,57.3,29.85,SSW,202,6.3,6.3,38,0.00,,OVC023,0.00,VWS V14.01,2013-06-02 20:20:00,
2013-06-02 16:21:00,86.2,59.0,29.85,SW,225,4.7,4.7,40,0.00,,FEW050,0.00,VWS V14.01,2013-06-02 20:21:00,
2013-06-02 16:22:00,86.2,59.0,29.85,SSW,202,2.9,2.9,40,0.00,,OVC023,0.00,VWS V14.01,2013-06-02 20:22:00,
2013-06-02 16:23:00,86.2,59.0,29.85,SW,225,4.7,4.7,40,0.00,,OVC023,0.00,VWS V14.01,2013-06-02 20:23:00,
2013-06-02 16:24:00,86.2,57.6,29.85,South,180,4.3,4.3,38,0.00,,OVC023,0.00,VWS V14.01,2013-06-02 20:24:00,
2013-06-02 16:25:00,86.2,57.6,29.85,WSW,248,3.6,3.6,38,0.00,,OVC023,0.00,VWS V14.01,2013-06-02 20:25:00,
2013-06-02 16:26:00,86.7,59.5,29.85,South,180,2.9,2.9,40,0.00,,FEW050,0.00,VWS V14.01,2013-06-02 20:26:00,
2013-06-02 16:27:00,86.7,65.9,29.85,SW,225,4.3,4.3,50,0.00,,OVC023,0.00,VWS V14.01,2013-06-02 20:27:00,
2013-06-02 16:28:00,86.7,59.5,29.85,South,180,2.9,2.9,40,0.00,,OVC023,0.00,VWS V14.01,2013-06-02 20:28:00,
2013-06-02 16:29:00,86.7,59.5,29.85,South,180,5.6,5.6,40,0.00,,OVC023,0.00,VWS V14.01,2013-06-02 20:29:00,
2013-06-02 16:30:00,86.5,57.9,29.85,SSW,202,4.5,4.5,38,0.00,,OVC023,0.00,VWS V14.01,2013-06-02 20:30:00,
2013-06-02 16:31:00,86.0,56.7,29.85,SSW,202,5.6,5.6,37,0.00,,FEW050,0.00,VWS V14.01,2013-06-02 20:31:00,
2013-06-02 16:32:00,86.2,56.9,29.85,SSE,158,7.6,7.6,37,0.00,,OVC023,0.00,VWS V14.01,2013-06-02 20:32:00,
2013-06-02 16:33:00,86.0,56.7,29.85,SSW,202,6.0,6.0,37,0.00,,OVC023,0.00,VWS V14.01,2013-06-02 20:33:00,
2013-06-02 16:34:00,86.0,56.7,29.85,SSW,202,5.4,5.4,37,0.00,,OVC023,0.00,VWS V14.01,2013-06-02 20:34:00,
2013-06-02 16:35:00,85.8,56.5,29.85,South,180,3.4,3.4,37,0.00,,OVC023,0.00,VWS V14.01,2013-06-02 20:35:00,
2013-06-02 16:36:00,86.3,57.8,29.85,South,180,4.3,4.3,38,0.00,,FEW050,0.00,VWS V14.01,2013-06-02 20:36:00,
2013-06-02 16:37:00,86.3,57.8,29.85,SSW,202,2.9,2.9,38,0.00,,OVC023,0.00,VWS V14.01,2013-06-02 20:37:00,
2013-06-02 16:38:00,86.3,57.8,29.85,SSW,202,4.9,4.9,38,0.00,,OVC023,0.00,VWS V14.01,2013-06-02 20:38:00,
2013-06-02 16:39:00,86.5,57.9,29.85,SSW,202,4.0,4.0,38,0.00,,OVC023,0.00,VWS V14.01,2013-06-02 20:39:00,
2013-06-02 16:40:00,86.9,58.2,29.85,SW,225,7.6,7.6,38,0.00,,OVC023,0.00,VWS V14.01,2013-06-02 20:40:00,
2013-06-02 16:41:00,86.7,57.3,29.85,South,180,4.3,4.3,37,0.00,,FEW050,0.00,VWS V14.01,2013-06-02 20:41:00,
2013-06-02 16:42:00,86.7,57.3,29.85,South,180,5.6,5.6,37,0.00,,OVC023,0.00,VWS V14.01,2013-06-02 20:42:00,
2013-06-02 16:43:00,86.7,57.3,29.85,SSW,202,3.4,3.4,37,0.00,,OVC023,0.00,VWS V14.01,2013-06-02 20:43:00,
2013-06-02 16:44:00,86.9,57.5,29.85,SW,225,4.0,4.0,37,0.00,,OVC023,0.00,VWS V14.01,2013-06-02 20:44:00,
2013-06-02 16:45:00,87.1,63.2,29.85,SW,225,5.4,5.4,45,0.00,,OVC023,0.00,VWS V14.01,2013-06-02 20:45:00,
2013-06-02 16:46:00,87.1,57.7,29.85,SSW,202,4.7,4.7,37,0.00,,OVC023,0.00,VWS V14.01,2013-06-02 20:46:00,
2013-06-02 16:47:00,87.1,57.7,29.85,SE,135,7.8,7.8,37,0.00,,CLR,0.00,VWS V14.01,2013-06-02 20:47:00,
2013-06-02 16:48:00,87.1,57.7,29.85,SSW,202,5.6,5.6,37,0.00,,OVC023,0.00,VWS V14.01,2013-06-02 20:48:00,
2013-06-02 16:49:00,87.1,57.7,29.85,South,180,7.8,7.8,37,0.00,,OVC023,0.00,VWS V14.01,2013-06-02 20:49:00,
2013-06-02 16:50:00,87.1,57.7,29.85,SSW,202,6.3,6.3,37,0.00,,OVC023,0.00,VWS V14.01,2013-06-02 20:50:00,
2013-06-02 16:51:00,86.9,57.5,29.85,SSW,202,6.0,6.0,37,0.00,,OVC023,0.00,VWS V14.01,2013-06-02 20:51:00,
2013-06-02 16:52:00,86.9,58.2,29.85,SSW,202,4.3,4.3,38,0.00,,CLR,0.00,VWS V14.01,2013-06-02 20:52:00,
2013-06-02 16:53:00,86.9,57.5,29.85,SSW,202,5.8,5.8,37,0.00,,OVC023,0.00,VWS V14.01,2013-06-02 20:53:00,
2013-06-02 16:54:00,86.9,58.2,29.85,SSW,202,4.0,4.0,38,0.00,,OVC023,0.00,VWS V14.01,2013-06-02 20:54:00,
2013-06-02 16:55:00,87.1,59.8,29.85,SSW,202,7.4,7.4,40,0.00,,OVC023,0.00,VWS V14.01,2013-06-02 20:55:00,
2013-06-02 16:56:00,87.1,58.4,29.85,SSW,202,8.1,8.1,38,0.00,,OVC023,0.00,VWS V14.01,2013-06-02 20:56:00,
2013-06-02 16:57:00,87.2,65.2,29.85,SSW,202,7.2,7.2,48,0.00,,CLR,0.00,VWS V14.01,2013-06-02 20:57:00,
2013-06-02 16:58:00,87.1,57.7,29.85,SSE,158,6.5,6.5,37,0.00,,OVC023,0.00,VWS V14.01,2013-06-02 20:58:00,
2013-06-02 16:59:00,87.2,65.2,29.85,SSW,202,7.2,7.2,48,0.00,,OVC023,0.00,VWS V14.01,2013-06-02 20:59:00,
2013-06-02 17:00:00,87.2,65.2,29.85,SSW,202,4.3,4.3,48,0.00,,OVC023,0.00,VWS V14.01,2013-06-02 21:00:00,
2013-06-02 17:01:00,87.2,65.2,29.85,SSW,202,4.9,4.9,48,0.00,,OVC023,0.00,VWS V14.01,2013-06-02 21:01:00,
2013-06-02 17:02:00,87.2,57.8,29.85,SSW,202,6.3,6.3,37,0.00,,CLR,0.00,VWS V14.01,2013-06-02 21:02:00,
2013-06-02 17:03:00,87.2,57.8,29.85,SSW,202,5.4,5.4,37,0.00,,OVC023,0.00,VWS V14.01,2013-06-02 21:03:00,
2013-06-02 17:04:00,87.2,57.8,29.85,SSW,202,6.3,6.3,37,0.00,,OVC023,0.00,VWS V14.01,2013-06-02 21:04:00,
2013-06-02 17:05:00,87.2,57.8,29.85,SSW,202,2.5,2.5,37,0.00,,OVC023,0.00,VWS V14.01,2013-06-02 21:05:00,
2013-06-02 17:06:00,86.9,57.5,29.85,SSE,158,2.0,2.0,37,0.00,,OVC023,0.00,VWS V14.01,2013-06-02 21:06:00,
2013-06-02 17:07:00,87.1,57.7,29.85,SSW,202,7.8,7.8,37,0.00,,CLR,0.00,VWS V14.01,2013-06-02 21:07:00,
2013-06-02 17:08:00,87.1,57.7,29.85,SW,225,2.5,2.5,37,0.00,,OVC023,0.00,VWS V14.01,2013-06-02 21:08:00,
2013-06-02 17:09:00,87.1,57.7,29.85,SSW,202,6.0,6.0,37,0.00,,OVC023,0.00,VWS V14.01,2013-06-02 21:09:00,
2013-06-02 17:10:00,87.1,57.7,29.85,SSW,202,6.3,6.3,37,0.00,,OVC023,0.00,VWS V14.01,2013-06-02 21:10:00,
2013-06-02 17:11:00,86.9,57.5,29.85,SSW,202,5.6,5.6,37,0.00,,OVC023,0.00,VWS V14.01,2013-06-02 21:11:00,
2013-06-02 17:12:00,86.9,57.5,29.85,SSW,202,4.9,4.9,37,0.00,,CLR,0.00,VWS V14.01,2013-06-02 21:12:00,
2013-06-02 17:13:00,86.7,57.3,29.85,ESE,112,6.5,6.5,37,0.00,,OVC023,0.00,VWS V14.01,2013-06-02 21:13:00,
2013-06-02 17:14:00,86.9,57.5,29.85,SSW,202,4.9,4.9,37,0.00,,OVC023,0.00,VWS V14.01,2013-06-02 21:14:00,
2013-06-02 17:15:00,87.1,57.7,29.85,South,180,3.6,3.6,37,0.00,,OVC023,0.00,VWS V14.01,2013-06-02 21:15:00,
2013-06-02 17:16:00,87.1,57.7,29.85,SW,225,3.6,3.6,37,0.00,,OVC023,0.00,VWS V14.01,2013-06-02 21:16:00,
2013-06-02 17:17:00,86.7,57.3,29.85,SSW,202,4.9,4.9,37,0.00,,CLR,0.00,VWS V14.01,2013-06-02 21:17:00,
2013-06-02 17:18:00,87.1,57.7,29.85,SSW,202,6.5,6.5,37,0.00,,OVC023,0.00,VWS V14.01,2013-06-02 21:18:00,
2013-06-02 17:19:00,86.9,57.5,29.85,SSW,202,8.5,8.5,37,0.00,,OVC023,0.00,VWS V14.01,2013-06-02 21:19:00,
2013-06-02 17:20:00,86.7,57.3,29.85,SSW,202,7.4,7.4,37,0.00,,OVC023,0.00,VWS V14.01,2013-06-02 21:20:00,
2013-06-02 17:21:00,86.5,57.2,29.85,SSW,202,4.9,4.9,37,0.00,,OVC023,0.00,VWS V14.01,2013-06-02 21:21:00,
2013-06-02 17:22:00,86.7,57.3,29.85,SSW,202,3.8,3.8,37,0.00,,CLR,0.00,VWS V14.01,2013-06-02 21:22:00,
2013-06-02 17:23:00,86.7,57.3,29.85,SSW,202,4.9,4.9,37,0.00,,OVC023,0.00,VWS V14.01,2013-06-02 21:23:00,
2013-06-02 17:24:00,86.7,57.3,29.85,SSW,202,6.5,6.5,37,0.00,,OVC023,0.00,VWS V14.01,2013-06-02 21:24:00,
2013-06-02 17:25:00,86.7,57.3,29.85,SSW,202,6.0,6.0,37,0.00,,OVC023,0.00,VWS V14.01,2013-06-02 21:25:00,
2013-06-02 17:26:00,86.7,57.3,29.85,SSW,202,6.3,6.3,37,0.00,,OVC023,0.00,VWS V14.01,2013-06-02 21:26:00,
2013-06-02 17:27:00,86.7,57.3,29.85,SSW,202,9.2,9.2,37,0.00,,OVC023,0.00,VWS V14.01,2013-06-02 21:27:00,
2013-06-02 17:28:00,86.3,57.0,29.85,SSW,202,5.4,5.4,37,0.00,,CLR,0.00,VWS V14.01,2013-06-02 21:28:00,
2013-06-02 17:29:00,86.3,57.0,29.85,SW,225,8.1,8.1,37,0.00,,OVC023,0.00,VWS V14.01,2013-06-02 21:29:00,
2013-06-02 17:30:00,86.5,57.2,29.85,SSW,202,5.6,5.6,37,0.00,,OVC023,0.00,VWS V14.01,2013-06-02 21:30:00,
2013-06-02 17:31:00,86.5,57.2,29.85,SSW,202,5.8,5.8,37,0.00,,OVC023,0.00,VWS V14.01,2013-06-02 21:31:00,
2013-06-02 17:32:00,86.5,57.2,29.82,SSW,202,3.8,3.8,37,0.00,,OVC023,0.00,VWS V14.01,2013-06-02 21:32:00,
2013-06-02 17:33:00,86.5,57.2,29.82,SE,135,3.4,3.4,37,0.00,,CLR,0.00,VWS V14.01,2013-06-02 21:33:00,
2013-06-02 17:34:00,86.3,57.0,29.82,SSE,158,5.6,5.6,37,0.00,,OVC023,0.00,VWS V14.01,2013-06-02 21:34:00,
2013-06-02 17:35:00,86.5,57.2,29.82,SW,225,4.7,4.7,37,0.00,,OVC023,0.00,VWS V14.01,2013-06-02 21:35:00,
2013-06-02 17:36:00,86.3,57.0,29.82,SSW,202,2.5,2.5,37,0.00,,OVC023,0.00,VWS V14.01,2013-06-02 21:36:00,
2013-06-02 17:37:00,86.3,57.0,29.82,South,180,3.6,3.6,37,0.00,,OVC023,0.00,VWS V14.01,2013-06-02 21:37:00,
2013-06-02 17:38:00,86.3,57.0,29.82,SSW,202,4.0,4.0,37,0.00,,CLR,0.00,VWS V14.01,2013-06-02 21:38:00,
2013-06-02 17:39:00,86.2,56.9,29.82,SW,225,4.7,4.7,37,0.00,,OVC023,0.00,VWS V14.01,2013-06-02 21:39:00,
2013-06-02 17:40:00,86.3,57.0,29.82,SSW,202,4.0,4.0,37,0.00,,OVC023,0.00,VWS V14.01,2013-06-02 21:40:00,
2013-06-02 17:41:00,86.3,57.0,29.82,SSW,202,3.4,3.4,37,0.00,,OVC023,0.00,VWS V14.01,2013-06-02 21:41:00,
2013-06-02 17:42:00,86.3,57.0,29.82,WSW,248,3.8,3.8,37,0.00,,OVC023,0.00,VWS V14.01,2013-06-02 21:42:00,
2013-06-02 17:43:00,86.2,56.9,29.82,SSW,202,3.8,3.8,37,0.00,,CLR,0.00,VWS V14.01,2013-06-02 21:43:00,
2013-06-02 17:44:00,86.5,57.2,29.82,SW,225,4.7,4.7,37,0.00,,OVC023,0.00,VWS V14.01,2013-06-02 21:44:00,
2013-06-02 17:45:00,86.2,56.9,29.82,SSW,202,3.8,3.8,37,0.00,,OVC023,0.00,VWS V14.01,2013-06-02 21:45:00,
2013-06-02 17:46:00,86.3,57.0,29.82,South,180,3.6,3.6,37,0.00,,OVC023,0.00,VWS V14.01,2013-06-02 21:46:00,
2013-06-02 17:47:00,86.2,56.9,29.85,SW,225,5.4,5.4,37,0.00,,OVC023,0.00,VWS V14.01,2013-06-02 21:47:00,
2013-06-02 17:48:00,86.2,56.9,29.85,South,180,5.4,5.4,37,0.00,,CLR,0.00,VWS V14.01,2013-06-02 21:48:00,
2013-06-02 17:49:00,86.2,56.9,29.85,SSE,158,5.6,5.6,37,0.00,,OVC023,0.00,VWS V14.01,2013-06-02 21:49:00,
2013-06-02 17:50:00,86.2,56.9,29.85,South,180,5.4,5.4,37,0.00,,OVC023,0.00,VWS V14.01,2013-06-02 21:50:00,
2013-06-02 17:51:00,86.0,56.7,29.85,SSW,202,2.2,2.2,37,0.00,,OVC023,0.00,VWS V14.01,2013-06-02 21:51:00,
2013-06-02 17:52:00,86.0,56.7,29.85,SSW,202,2.5,2.5,37,0.00,,OVC023,0.00,VWS V14.01,2013-06-02 21:52:00,
2013-06-02 17:53:00,85.6,56.4,29.85,SSW,202,4.3,4.3,37,0.00,,CLR,0.00,VWS V14.01,2013-06-02 21:53:00,
2013-06-02 17:54:00,85.8,56.5,29.85,SSW,202,2.7,2.7,37,0.00,,OVC023,0.00,VWS V14.01,2013-06-02 21:54:00,
2013-06-02 17:55:00,85.6,56.4,29.85,SSW,202,4.3,4.3,37,0.00,,OVC023,0.00,VWS V14.01,2013-06-02 21:55:00,
2013-06-02 17:56:00,85.6,57.1,29.85,SSW,202,2.7,2.7,38,0.00,,OVC023,0.00,VWS V14.01,2013-06-02 21:56:00,
2013-06-02 17:57:00,85.6,56.4,29.85,SSW,202,3.1,3.1,37,0.00,,OVC023,0.00,VWS V14.01,2013-06-02 21:57:00,
2013-06-02 17:58:00,85.4,57.0,29.85,SSW,202,2.5,2.5,38,0.00,,CLR,0.00,VWS V14.01,2013-06-02 21:58:00,
2013-06-02 17:59:00,85.4,57.0,29.85,South,180,2.9,2.9,38,0.00,,OVC023,0.00,VWS V14.01,2013-06-02 21:59:00,
2013-06-02 18:00:00,85.4,57.0,29.85,SSW,202,2.5,2.5,38,0.00,,OVC023,0.00,VWS V14.01,2013-06-02 22:00:00,
2013-06-02 18:01:00,85.3,56.8,29.85,South,180,3.6,3.6,38,0.00,,OVC023,0.00,VWS V14.01,2013-06-02 22:01:00,
2013-06-02 18:02:00,85.3,58.9,29.85,South,180,2.5,2.5,41,0.00,,OVC023,0.00,VWS V14.01,2013-06-02 22:02:00,
2013-06-02 18:03:00,85.1,60.1,29.85,SSE,158,2.9,2.9,43,0.00,,CLR,0.00,VWS V14.01,2013-06-02 22:03:00,
2013-06-02 18:04:00,85.3,56.8,29.85,SSW,202,1.6,1.6,38,0.00,,OVC023,0.00,VWS V14.01,2013-06-02 22:04:00,
2013-06-02 18:05:00,85.1,60.1,29.85,SSE,158,2.9,2.9,43,0.00,,OVC023,0.00,VWS V14.01,2013-06-02 22:05:00,
2013-06-02 18:06:00,85.1,60.1,29.85,SSW,202,2.7,2.7,43,0.00,,OVC023,0.00,VWS V14.01,2013-06-02 22:06:00,
2013-06-02 18:07:00,85.1,58.8,29.85,SSW,202,3.1,3.1,41,0.00,,OVC023,0.00,VWS V14.01,2013-06-02 22:07:00,
2013-06-02 18:08:00,85.1,60.1,29.85,SSW,202,1.1,1.1,43,0.00,,CLR,0.00,VWS V14.01,2013-06-02 22:08:00,
2013-06-02 18:09:00,85.1,60.1,29.85,SSW,202,2.9,2.9,43,0.00,,OVC023,0.00,VWS V14.01,2013-06-02 22:09:00,
2013-06-02 18:10:00,85.1,60.1,29.85,SSW,202,1.1,1.1,43,0.00,,OVC023,0.00,VWS V14.01,2013-06-02 22:10:00,
2013-06-02 18:11:00,85.1,60.1,29.85,SSW,202,2.5,2.5,43,0.00,,OVC023,0.00,VWS V14.01,2013-06-02 22:11:00,
2013-06-02 18:12:00,85.1,62.0,29.85,SE,135,2.9,2.9,46,0.00,,OVC023,0.00,VWS V14.01,2013-06-02 22:12:00,
2013-06-02 18:13:00,85.1,64.9,29.85,SSW,202,2.2,2.2,51,0.00,,CLR,0.00,VWS V14.01,2013-06-02 22:13:00,
2013-06-02 18:14:00,85.1,63.2,29.85,SSW,202,2.5,2.5,48,0.00,,OVC023,0.00,VWS V14.01,2013-06-02 22:14:00,
2013-06-02 18:15:00,85.1,64.9,29.85,SSW,202,2.2,2.2,51,0.00,,OVC023,0.00,VWS V14.01,2013-06-02 22:15:00,
2013-06-02 18:16:00,85.1,66.0,29.85,South,180,2.5,2.5,53,0.00,,OVC023,0.00,VWS V14.01,2013-06-02 22:16:00,
2013-06-02 18:17:00,85.1,66.0,29.85,SSW,202,2.5,2.5,53,0.00,,OVC023,0.00,VWS V14.01,2013-06-02 22:17:00,
2013-06-02 18:18:00,84.9,66.4,29.85,SW,225,2.5,2.5,54,0.00,,CLR,0.00,VWS V14.01,2013-06-02 22:18:00,
2013-06-02 18:19:00,84.9,66.4,29.85,WSW,248,2.2,2.2,54,0.00,,OVC023,0.00,VWS V14.01,2013-06-02 22:19:00,
2013-06-02 18:20:00,84.9,66.4,29.85,SW,225,2.5,2.5,54,0.00,,OVC023,0.00,VWS V14.01,2013-06-02 22:20:00,
2013-06-02 18:21:00,84.9,66.4,29.85,SW,225,2.9,2.9,54,0.00,,OVC023,0.00,VWS V14.01,2013-06-02 22:21:00,
2013-06-02 18:22:00,84.9,67.5,29.85,SSW,202,1.6,1.6,56,0.00,,OVC023,0.00,VWS V14.01,2013-06-02 22:22:00,
2013-06-02 18:23:00,84.9,66.4,29.85,South,180,2.2,2.2,54,0.00,,CLR,0.00,VWS V14.01,2013-06-02 22:23:00,
2013-06-02 18:24:00,84.9,66.4,29.85,SSW,202,2.7,2.7,54,0.00,,OVC023,0.00,VWS V14.01,2013-06-02 22:24:00,
2013-06-02 18:25:00,84.9,66.4,29.85,South,180,2.2,2.2,54,0.00,,OVC023,0.00,VWS V14.01,2013-06-02 22:25:00,
2013-06-02 18:26:00,84.9,66.4,29.85,SSW,202,1.6,1.6,54,0.00,,OVC023,0.00,VWS V14.01,2013-06-02 22:26:00,
2013-06-02 18:27:00,84.9,66.4,29.85,WSW,248,2.0,2.0,54,0.00,,OVC023,0.00,VWS V14.01,2013-06-02 22:27:00,
2013-06-02 18:28:00,84.7,66.8,29.85,SW,225,1.1,1.1,55,0.00,,CLR,0.00,VWS V14.01,2013-06-02 22:28:00,
2013-06-02 18:29:00,84.7,66.2,29.85,SW,225,2.5,2.5,54,0.00,,OVC023,0.00,VWS V14.01,2013-06-02 22:29:00,
2013-06-02 18:30:00,84.7,66.8,29.85,SW,225,1.1,1.1,55,0.00,,OVC023,0.00,VWS V14.01,2013-06-02 22:30:00,
2013-06-02 18:31:00,84.5,66.6,29.85,WSW,248,2.0,2.0,55,0.00,,OVC023,0.00,VWS V14.01,2013-06-02 22:31:00,
2013-06-02 18:32:00,84.5,66.6,29.85,SSW,202,2.5,2.5,55,0.00,,OVC023,0.00,VWS V14.01,2013-06-02 22:32:00,
2013-06-02 18:33:00,84.5,66.6,29.85,South,180,1.1,1.1,55,0.00,,CLR,0.00,VWS V14.01,2013-06-02 22:33:00,
2013-06-02 18:34:00,84.5,66.6,29.85,SW,225,1.6,1.6,55,0.00,,OVC023,0.00,VWS V14.01,2013-06-02 22:34:00,
2013-06-02 18:35:00,84.5,66.6,29.85,SW,225,1.3,1.3,55,0.00,,OVC023,0.00,VWS V14.01,2013-06-02 22:35:00,
2013-06-02 18:36:00,84.4,65.9,29.85,SSW,202,1.1,1.1,54,0.00,,OVC023,0.00,VWS V14.01,2013-06-02 22:36:00,
2013-06-02 18:37:00,84.4,66.4,29.85,SSW,202,1.1,1.1,55,0.00,,OVC023,0.00,VWS V14.01,2013-06-02 22:37:00,
2013-06-02 18:38:00,84.2,65.8,29.85,SSW,202,0.9,0.9,54,0.00,,CLR,0.00,VWS V14.01,2013-06-02 22:38:00,
2013-06-02 18:39:00,84.4,65.9,29.85,SSW,202,0.0,0.0,54,0.00,,OVC023,0.00,VWS V14.01,2013-06-02 22:39:00,
2013-06-02 18:40:00,84.2,65.8,29.85,SSW,202,0.9,0.9,54,0.00,,OVC023,0.00,VWS V14.01,2013-06-02 22:40:00,
2013-06-02 18:41:00,84.2,65.8,29.85,SSW,202,0.0,0.0,54,0.00,,OVC023,0.00,VWS V14.01,2013-06-02 22:41:00,
2013-06-02 18:42:00,84.2,65.8,29.85,SW,225,2.0,2.0,54,0.00,,OVC023,0.00,VWS V14.01,2013-06-02 22:42:00,
2013-06-02 18:43:00,84.0,65.6,29.85,SSW,202,0.0,0.0,54,0.00,,CLR,0.00,VWS V14.01,2013-06-02 22:43:00,
2013-06-02 18:44:00,84.0,65.6,29.85,SSW,202,0.0,0.0,54,0.00,,OVC023,0.00,VWS V14.01,2013-06-02 22:44:00,
2013-06-02 18:45:00,84.0,65.6,29.85,SSW,202,0.0,0.0,54,0.00,,OVC023,0.00,VWS V14.01,2013-06-02 22:45:00,
2013-06-02 18:46:00,83.8,65.9,29.85,SSW,202,1.1,1.1,55,0.00,,OVC023,0.00,VWS V14.01,2013-06-02 22:46:00,
2013-06-02 18:47:00,83.8,65.9,29.85,SSW,202,0.0,0.0,55,0.00,,OVC023,0.00,VWS V14.01,2013-06-02 22:47:00,
2013-06-02 18:48:00,83.6,66.3,29.85,WSW,248,0.0,0.0,56,0.00,,CLR,0.00,VWS V14.01,2013-06-02 22:48:00,
2013-06-02 18:49:00,83.8,65.9,29.85,SSW,202,0.0,0.0,55,0.00,,OVC023,0.00,VWS V14.01,2013-06-02 22:49:00,
2013-06-02 18:50:00,83.6,65.8,29.85,SW,225,0.0,0.0,55,0.00,,OVC023,0.00,VWS V14.01,2013-06-02 22:50:00,
2013-06-02 18:51:00,83.6,66.3,29.85,SW,225,0.0,0.0,56,0.00,,OVC023,0.00,VWS V14.01,2013-06-02 22:51:00,
2013-06-02 18:52:00,83.6,66.3,29.85,SW,225,0.0,0.0,56,0.00,,OVC023,0.00,VWS V14.01,2013-06-02 22:52:00,
2013-06-02 18:53:00,83.5,66.1,29.85,SW,225,0.0,0.0,56,0.00,,CLR,0.00,VWS V14.01,2013-06-02 22:53:00,
2013-06-02 18:54:00,83.6,66.3,29.85,SW,225,0.0,0.0,56,0.00,,OVC023,0.00,VWS V14.01,2013-06-02 22:54:00,
2013-06-02 18:55:00,83.5,66.1,29.85,SW,225,0.0,0.0,56,0.00,,OVC023,0.00,VWS V14.01,2013-06-02 22:55:00,
2013-06-02 18:56:00,83.5,67.1,29.85,SW,225,1.6,1.6,58,0.00,,OVC023,0.00,VWS V14.01,2013-06-02 22:56:00,
2013-06-02 18:57:00,83.3,67.0,29.85,SW,225,1.1,1.1,58,0.00,,OVC023,0.00,VWS V14.01,2013-06-02 22:57:00,
2013-06-02 18:58:00,83.3,67.5,29.85,SW,225,2.2,2.2,59,0.00,,OVC023,0.00,VWS V14.01,2013-06-02 22:58:00,
2013-06-02 18:59:00,83.1,67.8,29.85,WSW,248,0.0,0.0,60,0.00,,CLR,0.00,VWS V14.01,2013-06-02 22:59:00,
2013-06-02 19:00:00,83.1,67.8,29.85,SW,225,2.5,2.5,60,0.00,,OVC023,0.00,VWS V14.01,2013-06-02 23:00:00,
2013-06-02 19:01:00,83.1,67.8,29.85,WSW,248,0.0,0.0,60,0.00,,OVC023,0.00,VWS V14.01,2013-06-02 23:01:00,
2013-06-02 19:02:00,82.9,67.6,29.82,WSW,248,1.1,1.1,60,0.00,,OVC023,0.00,VWS V14.01,2013-06-02 23:02:00,
2013-06-02 19:03:00,83.1,69.7,29.82,WSW,248,1.1,1.1,64,0.00,,OVC023,0.00,VWS V14.01,2013-06-02 23:03:00,
2013-06-02 19:04:00,82.7,69.3,29.82,West,270,0.0,0.0,64,0.00,,CLR,0.00,VWS V14.01,2013-06-02 23:04:00,
2013-06-02 19:05:00,82.9,69.5,29.82,West,270,0.0,0.0,64,0.00,,OVC023,0.00,VWS V14.01,2013-06-02 23:05:00,
2013-06-02 19:06:00,82.7,69.3,29.82,West,270,0.0,0.0,64,0.00,,OVC023,0.00,VWS V14.01,2013-06-02 23:06:00,
2013-06-02 19:07:00,82.7,69.3,29.82,West,270,0.0,0.0,64,0.00,,OVC023,0.00,VWS V14.01,2013-06-02 23:07:00,
2013-06-02 19:08:00,82.7,69.3,29.82,West,270,0.0,0.0,64,0.00,,OVC023,0.00,VWS V14.01,2013-06-02 23:08:00,
2013-06-02 19:09:00,82.6,69.2,29.82,WNW,292,0.0,0.0,64,0.00,,CLR,0.00,VWS V14.01,2013-06-02 23:09:00,
2013-06-02 19:10:00,82.6,69.2,29.82,WSW,248,0.0,0.0,64,0.00,,OVC023,0.00,VWS V14.01,2013-06-02 23:10:00,
2013-06-02 19:11:00,82.6,69.2,29.82,WNW,292,0.0,0.0,64,0.00,,OVC023,0.00,VWS V14.01,2013-06-02 23:11:00,
2013-06-02 19:12:00,82.6,69.2,29.82,WSW,248,0.0,0.0,64,0.00,,OVC023,0.00,VWS V14.01,2013-06-02 23:12:00,
2013-06-02 19:13:00,82.6,69.2,29.82,WSW,248,0.0,0.0,64,0.00,,OVC023,0.00,VWS V14.01,2013-06-02 23:13:00,
2013-06-02 19:14:00,82.4,69.0,29.82,WSW,248,0.0,0.0,64,0.00,,CLR,0.00,VWS V14.01,2013-06-02 23:14:00,
2013-06-02 19:15:00,82.4,69.0,29.82,WSW,248,0.0,0.0,64,0.00,,OVC023,0.00,VWS V14.01,2013-06-02 23:15:00,
2013-06-02 19:16:00,82.4,69.0,29.82,WSW,248,0.0,0.0,64,0.00,,OVC023,0.00,VWS V14.01,2013-06-02 23:16:00,
2013-06-02 19:17:00,82.4,69.0,29.85,WSW,248,0.0,0.0,64,0.00,,OVC023,0.00,VWS V14.01,2013-06-02 23:17:00,
2013-06-02 19:18:00,82.4,69.0,29.85,WSW,248,0.0,0.0,64,0.00,,OVC023,0.00,VWS V14.01,2013-06-02 23:18:00,
2013-06-02 19:19:00,82.2,68.8,29.85,WSW,248,0.0,0.0,64,0.00,,CLR,0.00,VWS V14.01,2013-06-02 23:19:00,
2013-06-02 19:20:00,82.2,68.8,29.85,WSW,248,0.0,0.0,64,0.00,,OVC023,0.00,VWS V14.01,2013-06-02 23:20:00,
2013-06-02 19:21:00,82.2,68.8,29.85,WSW,248,0.0,0.0,64,0.00,,OVC023,0.00,VWS V14.01,2013-06-02 23:21:00,
2013-06-02 19:22:00,82.2,68.8,29.85,WSW,248,0.0,0.0,64,0.00,,OVC023,0.00,VWS V14.01,2013-06-02 23:22:00,
2013-06-02 19:23:00,82.0,68.7,29.85,WSW,248,0.0,0.0,64,0.00,,OVC023,0.00,VWS V14.01,2013-06-02 23:23:00,
2013-06-02 19:24:00,82.0,68.7,29.85,WSW,248,0.0,0.0,64,0.00,,CLR,0.00,VWS V14.01,2013-06-02 23:24:00,
2013-06-02 19:25:00,82.0,68.7,29.85,WSW,248,0.0,0.0,64,0.00,,OVC023,0.00,VWS V14.01,2013-06-02 23:25:00,
2013-06-02 19:26:00,82.0,68.7,29.85,WSW,248,0.0,0.0,64,0.00,,OVC023,0.00,VWS V14.01,2013-06-02 23:26:00,
2013-06-02 19:27:00,82.0,68.7,29.85,SW,225,0.0,0.0,64,0.00,,OVC023,0.00,VWS V14.01,2013-06-02 23:27:00,
2013-06-02 19:28:00,82.0,68.7,29.85,South,180,0.0,0.0,64,0.00,,OVC023,0.00,VWS V14.01,2013-06-02 23:28:00,
2013-06-02 19:29:00,81.8,68.5,29.85,SSE,158,2.2,2.2,64,0.00,,CLR,0.00,VWS V14.01,2013-06-02 23:29:00,
2013-06-02 19:30:00,81.8,68.5,29.85,South,180,2.5,2.5,64,0.00,,OVC023,0.00,VWS V14.01,2013-06-02 23:30:00,
2013-06-02 19:31:00,81.8,68.5,29.85,SSE,158,2.2,2.2,64,0.00,,OVC023,0.00,VWS V14.01,2013-06-02 23:31:00,
2013-06-02 19:32:00,81.8,68.5,29.85,SE,135,2.5,2.5,64,0.00,,OVC023,0.00,VWS V14.01,2013-06-02 23:32:00,
2013-06-02 19:33:00,81.8,68.5,29.85,SSE,158,1.6,1.6,64,0.00,,OVC023,0.00,VWS V14.01,2013-06-02 23:33:00,
2013-06-02 19:34:00,81.8,68.5,29.85,SSE,158,2.0,2.0,64,0.00,,CLR,0.00,VWS V14.01,2013-06-02 23:34:00,
2013-06-02 19:35:00,81.8,68.5,29.85,South,180,1.6,1.6,64,0.00,,OVC023,0.00,VWS V14.01,2013-06-02 23:35:00,
2013-06-02 19:36:00,81.8,68.5,29.85,SSE,158,2.0,2.0,64,0.00,,OVC023,0.00,VWS V14.01,2013-06-02 23:36:00,
2013-06-02 19:37:00,81.8,68.5,29.85,SE,135,2.7,2.7,64,0.00,,OVC023,0.00,VWS V14.01,2013-06-02 23:37:00,
2013-06-02 19:38:00,81.8,68.5,29.85,ESE,112,2.2,2.2,64,0.00,,OVC023,0.00,VWS V14.01,2013-06-02 23:38:00,
2013-06-02 19:39:00,81.7,68.3,29.85,SSW,202,3.4,3.4,64,0.00,,CLR,0.00,VWS V14.01,2013-06-02 23:39:00,
2013-06-02 19:40:00,81.7,68.8,29.85,South,180,3.1,3.1,65,0.00,,OVC043,0.00,VWS V14.01,2013-06-02 23:40:00,
2013-06-02 19:41:00,81.7,68.3,29.85,SSW,202,4.0,4.0,64,0.00,,OVC043,0.00,VWS V14.01,2013-06-02 23:41:00,
2013-06-02 19:42:00,81.7,68.3,29.85,SSW,202,3.8,3.8,64,0.00,,OVC043,0.00,VWS V14.01,2013-06-02 23:42:00,
2013-06-02 19:43:00,81.8,68.5,29.85,SSE,158,4.0,4.0,64,0.00,,OVC043,0.00,VWS V14.01,2013-06-02 23:43:00,
2013-06-02 19:44:00,81.8,68.5,29.85,SW,225,3.4,3.4,64,0.00,,CLR,0.00,VWS V14.01,2013-06-02 23:44:00,
2013-06-02 19:45:00,81.8,68.5,29.85,South,180,4.0,4.0,64,0.00,,OVC043,0.00,VWS V14.01,2013-06-02 23:45:00,
2013-06-02 19:46:00,81.8,68.5,29.85,WSW,248,3.8,3.8,64,0.00,,OVC043,0.00,VWS V14.01,2013-06-02 23:46:00,
2013-06-02 19:47:00,81.8,68.5,29.85,South,180,2.5,2.5,64,0.00,,OVC043,0.00,VWS V14.01,2013-06-02 23:47:00,
2013-06-02 19:48:00,81.8,68.5,29.85,South,180,5.8,5.8,64,0.00,,OVC043,0.00,VWS V14.01,2013-06-02 23:48:00,
2013-06-02 19:49:00,81.7,68.3,29.85,SSW,202,2.5,2.5,64,0.00,,CLR,0.00,VWS V14.01,2013-06-02 23:49:00,
2013-06-02 19:50:00,81.8,68.9,29.85,South,180,2.9,2.9,65,0.00,,OVC043,0.00,VWS V14.01,2013-06-02 23:50:00,
2013-06-02 19:51:00,81.8,68.5,29.85,SSW,202,2.5,2.5,64,0.00,,OVC043,0.00,VWS V14.01,2013-06-02 23:51:00,
2013-06-02 19:52:00,81.7,68.3,29.85,SE,135,4.9,4.9,64,0.00,,OVC043,0.00,VWS V14.01,2013-06-02 23:52:00,
2013-06-02 19:53:00,81.7,68.8,29.85,South,180,2.9,2.9,65,0.00,,OVC043,0.00,VWS V14.01,2013-06-02 23:53:00,
2013-06-02 19:54:00,81.5,68.1,29.85,South,180,3.1,3.1,64,0.00,,CLR,0.00,VWS V14.01,2013-06-02 23:54:00,
2013-06-02 19:55:00,81.5,68.1,29.85,South,180,4.0,4.0,64,0.00,,OVC043,0.00,VWS V14.01,2013-06-02 23:55:00,
2013-06-02 19:56:00,81.5,68.1,29.85,SSW,202,2.9,2.9,64,0.00,,OVC043,0.00,VWS V14.01,2013-06-02 23:56:00,
2013-06-02 19:57:00,81.5,68.1,29.85,SSW,202,2.5,2.5,64,0.00,,OVC043,0.00,VWS V14.01,2013-06-02 23:57:00,
2013-06-02 19:58:00,81.5,68.6,29.85,SSW,202,3.4,3.4,65,0.00,,OVC043,0.00,VWS V14.01,2013-06-02 23:58:00,
2013-06-02 19:59:00,81.3,68.4,29.85,SSW,202,3.1,3.1,65,0.00,,OVC043,0.00,VWS V14.01,2013-06-02 23:59:00,
2013-06-02 20:00:00,81.3,68.4,29.85,SSE,158,3.4,3.4,65,0.00,,CLR,0.00,VWS V14.01,2013-06-03 00:00:00,
2013-06-02 20:01:00,81.3,68.4,29.85,ESE,112,4.3,4.3,65,0.00,,OVC043,0.00,VWS V14.01,2013-06-03 00:01:00,
2013-06-02 20:02:00,81.3,68.4,29.85,SSW,202,4.0,4.0,65,0.00,,OVC043,0.00,VWS V14.01,2013-06-03 00:02:00,
2013-06-02 20:03:00,81.3,68.4,29.85,South,180,3.6,3.6,65,0.00,,OVC043,0.00,VWS V14.01,2013-06-03 00:03:00,
2013-06-02 20:04:00,81.3,68.4,29.85,SSE,158,3.6,3.6,65,0.00,,OVC043,0.00,VWS V14.01,2013-06-03 00:04:00,
2013-06-02 20:05:00,81.1,68.2,29.85,SSW,202,2.2,2.2,65,0.00,,CLR,0.00,VWS V14.01,2013-06-03 00:05:00,
2013-06-02 20:06:00,81.1,68.2,29.85,South,180,2.7,2.7,65,0.00,,OVC043,0.00,VWS V14.01,2013-06-03 00:06:00,
2013-06-02 20:07:00,81.1,68.2,29.85,SSE,158,2.0,2.0,65,0.00,,OVC043,0.00,VWS V14.01,2013-06-03 00:07:00,
2013-06-02 20:08:00,81.1,68.2,29.85,ESE,112,2.0,2.0,65,0.00,,OVC043,0.00,VWS V14.01,2013-06-03 00:08:00,
2013-06-02 20:09:00,81.1,68.2,29.85,SSE,158,2.9,2.9,65,0.00,,OVC043,0.00,VWS V14.01,2013-06-03 00:09:00,
2013-06-02 20:10:00,80.9,68.1,29.85,SSW,202,3.1,3.1,65,0.00,,CLR,0.00,VWS V14.01,2013-06-03 00:10:00,
2013-06-02 20:11:00,80.9,68.1,29.85,NW,315,2.0,2.0,65,0.00,,OVC043,0.00,VWS V14.01,2013-06-03 00:11:00,
2013-06-02 20:12:00,80.9,68.1,29.85,South,180,2.5,2.5,65,0.00,,OVC043,0.00,VWS V14.01,2013-06-03 00:12:00,
2013-06-02 20:13:00,80.9,68.1,29.85,SW,225,3.8,3.8,65,0.00,,OVC043,0.00,VWS V14.01,2013-06-03 00:13:00,
2013-06-02 20:14:00,80.8,67.9,29.85,WSW,248,1.3,1.3,65,0.00,,OVC043,0.00,VWS V14.01,2013-06-03 00:14:00,
2013-06-02 20:15:00,80.8,67.9,29.85,SSW,202,2.2,2.2,65,0.00,,CLR,0.00,VWS V14.01,2013-06-03 00:15:00,
2013-06-02 20:16:00,80.8,67.9,29.85,SSE,158,1.6,1.6,65,0.00,,OVC043,0.00,VWS V14.01,2013-06-03 00:16:00,
2013-06-02 20:17:00,80.8,67.9,29.85,SW,225,2.0,2.0,65,0.00,,OVC043,0.00,VWS V14.01,2013-06-03 00:17:00,
2013-06-02 20:18:00,80.8,67.9,29.85,South,180,6.3,6.3,65,0.00,,OVC043,0.00,VWS V14.01,2013-06-03 00:18:00,
2013-06-02 20:19:00,80.8,67.9,29.85,SSE,158,2.2,2.2,65,0.00,,OVC043,0.00,VWS V14.01,2013-06-03 00:19:00,
2013-06-02 20:20:00,80.6,67.7,29.85,SSE,158,3.1,3.1,65,0.00,,CLR,0.00,VWS V14.01,2013-06-03 00:20:00,
2013-06-02 20:21:00,80.6,67.7,29.85,NW,315,1.6,1.6,65,0.00,,OVC043,0.00,VWS V14.01,2013-06-03 00:21:00,
2013-06-02 20:22:00,80.6,67.7,29.85,SSE,158,4.0,4.0,65,0.00,,OVC043,0.00,VWS V14.01,2013-06-03 00:22:00,
2013-06-02 20:23:00,80.6,67.7,29.85,SSE,158,2.5,2.5,65,0.00,,OVC043,0.00,VWS V14.01,2013-06-03 00:23:00,
2013-06-02 20:24:00,80.6,67.7,29.85,SSW,202,1.3,1.3,65,0.00,,OVC043,0.00,VWS V14.01,2013-06-03 00:24:00,
2013-06-02 20:25:00,80.4,68.0,29.85,SE,135,2.5,2.5,66,0.00,,CLR,0.00,VWS V14.01,2013-06-03 00:25:00,
2013-06-02 20:26:00,80.4,67.6,29.85,SW,225,2.0,2.0,65,0.00,,OVC043,0.00,VWS V14.01,2013-06-03 00:26:00,
2013-06-02 20:27:00,80.4,68.0,29.85,SE,135,2.5,2.5,66,0.00,,OVC043,0.00,VWS V14.01,2013-06-03 00:27:00,
2013-06-02 20:28:00,80.4,68.0,29.85,SSW,202,3.6,3.6,66,0.00,,OVC043,0.00,VWS V14.01,2013-06-03 00:28:00,
2013-06-02 20:29:00,80.2,67.8,29.85,South,180,2.9,2.9,66,0.00,,OVC043,0.00,VWS V14.01,2013-06-03 00:29:00,
2013-06-02 20:30:00,79.7,67.8,29.85,SSE,158,3.6,3.6,67,0.00,,CLR,0.00,VWS V14.01,2013-06-03 00:30:00,
2013-06-02 20:31:00,79.9,68.4,29.85,SSW,202,2.5,2.5,68,0.00,,OVC043,0.00,VWS V14.01,2013-06-03 00:31:00,
2013-06-02 20:32:00,79.7,67.8,29.85,SSE,158,3.6,3.6,67,0.00,,OVC043,0.00,VWS V14.01,2013-06-03 00:32:00,
2013-06-02 20:33:00,79.7,67.8,29.85,South,180,3.1,3.1,67,0.00,,OVC043,0.00,VWS V14.01,2013-06-03 00:33:00,
2013-06-02 20:34:00,79.5,67.6,29.85,SSE,158,4.3,4.3,67,0.00,,OVC043,0.00,VWS V14.01,2013-06-03 00:34:00,
2013-06-02 20:35:00,79.3,67.4,29.85,SSE,158,2.5,2.5,67,0.00,,CLR,0.00,VWS V14.01,2013-06-03 00:35:00,
2013-06-02 20:36:00,79.3,67.4,29.85,SSW,202,1.3,1.3,67,0.00,,OVC043,0.00,VWS V14.01,2013-06-03 00:36:00,
2013-06-02 20:37:00,79.3,67.4,29.85,SSE,158,2.5,2.5,67,0.00,,OVC043,0.00,VWS V14.01,2013-06-03 00:37:00,
2013-06-02 20:38:00,79.0,67.1,29.85,ESE,112,2.7,2.7,67,0.00,,OVC043,0.00,VWS V14.01,2013-06-03 00:38:00,
2013-06-02 20:39:00,79.0,67.5,29.85,SW,225,0.0,0.0,68,0.00,,OVC043,0.00,VWS V14.01,2013-06-03 00:39:00,
2013-06-02 20:40:00,78.4,68.7,29.85,SW,225,2.5,2.5,72,0.00,,CLR,0.00,VWS V14.01,2013-06-03 00:40:00,
2013-06-02 20:41:00,78.6,67.6,29.85,WSW,248,1.6,1.6,69,0.00,,OVC043,0.00,VWS V14.01,2013-06-03 00:41:00,
2013-06-02 20:42:00,78.4,68.7,29.85,SW,225,2.5,2.5,72,0.00,,OVC043,0.00,VWS V14.01,2013-06-03 00:42:00,
2013-06-02 20:43:00,78.1,69.1,29.85,SW,225,2.7,2.7,74,0.00,,OVC043,0.00,VWS V14.01,2013-06-03 00:43:00,
2013-06-02 20:44:00,78.1,69.1,29.85,South,180,1.6,1.6,74,0.00,,OVC043,0.00,VWS V14.01,2013-06-03 00:44:00,
2013-06-02 20:45:00,77.7,68.4,29.85,SSW,202,2.2,2.2,73,0.00,,CLR,0.00,VWS V14.01,2013-06-03 00:45:00,
2013-06-02 20:46:00,77.9,68.1,29.85,SSW,202,1.3,1.3,72,0.00,,OVC043,0.00,VWS V14.01,2013-06-03 00:46:00,
2013-06-02 20:47:00,77.7,68.4,29.85,SSW,202,2.5,2.5,73,0.00,,OVC043,0.00,VWS V14.01,2013-06-03 00:47:00,
2013-06-02 20:48:00,77.7,68.4,29.85,SSW,202,1.3,1.3,73,0.00,,OVC043,0.00,VWS V14.01,2013-06-03 00:48:00,
2013-06-02 20:49:00,77.5,69.0,29.85,SSW,202,2.5,2.5,75,0.00,,OVC043,0.00,VWS V14.01,2013-06-03 00:49:00,
2013-06-02 20:50:00,77.3,68.8,29.85,SSW,202,2.5,2.5,75,0.00,,CLR,0.00,VWS V14.01,2013-06-03 00:50:00,
2013-06-02 20:51:00,77.5,69.0,29.85,SW,225,1.3,1.3,75,0.00,,OVC043,0.00,VWS V14.01,2013-06-03 00:51:00,
2013-06-02 20:52:00,77.3,68.8,29.85,SSW,202,2.9,2.9,75,0.00,,OVC043,0.00,VWS V14.01,2013-06-03 00:52:00,
2013-06-02 20:53:00,77.3,68.8,29.85,SW,225,0.9,0.9,75,0.00,,OVC043,0.00,VWS V14.01,2013-06-03 00:53:00,
2013-06-02 20:54:00,77.2,69.0,29.85,SW,225,2.0,2.0,76,0.00,,OVC043,0.00,VWS V14.01,2013-06-03 00:54:00,
2013-06-02 20:55:00,77.0,68.5,29.85,SSW,202,2.7,2.7,75,0.00,,,0.00,VWS V14.01,2013-06-03 00:55:00,
2013-06-02 20:56:00,77.0,68.8,29.85,SSW,202,2.7,2.7,76,0.00,,OVC043,0.00,VWS V14.01,2013-06-03 00:56:00,
2013-06-02 20:57:00,77.0,68.5,29.85,SSW,202,2.5,2.5,75,0.00,,OVC043,0.00,VWS V14.01,2013-06-03 00:57:00,
2013-06-02 20:58:00,76.8,68.7,29.85,SSW,202,2.7,2.7,76,0.00,,OVC043,0.00,VWS V14.01,2013-06-03 00:58:00,
2013-06-02 20:59:00,76.8,68.3,29.85,South,180,4.3,4.3,75,0.00,,OVC043,0.00,VWS V14.01,2013-06-03 00:59:00,
2013-06-02 21:00:00,76.4,68.7,29.85,SSW,202,3.4,3.4,77,0.00,,,0.00,VWS V14.01,2013-06-03 01:00:00,
2013-06-02 21:01:00,76.6,68.5,29.85,SSW,202,2.7,2.7,76,0.00,,OVC043,0.00,VWS V14.01,2013-06-03 01:01:00,
2013-06-02 21:02:00,76.4,68.7,29.85,SSW,202,4.0,4.0,77,0.00,,OVC043,0.00,VWS V14.01,2013-06-03 01:02:00,
2013-06-02 21:03:00,76.4,68.7,29.85,SSW,202,4.9,4.9,77,0.00,,OVC043,0.00,VWS V14.01,2013-06-03 01:03:00,
2013-06-02 21:04:00,76.4,68.7,29.85,SSW,202,3.1,3.1,77,0.00,,OVC043,0.00,VWS V14.01,2013-06-03 01:04:00,
2013-06-02 21:05:00,76.6,68.5,29.85,South,180,2.0,2.0,76,0.00,,,0.00,VWS V14.01,2013-06-03 01:05:00,
2013-06-02 21:06:00,76.6,68.9,29.85,SW,225,2.7,2.7,77,0.00,,OVC043,0.00,VWS V14.01,2013-06-03 01:06:00,
2013-06-02 21:07:00,76.6,68.9,29.85,SSW,202,2.9,2.9,77,0.00,,OVC043,0.00,VWS V14.01,2013-06-03 01:07:00,
2013-06-02 21:08:00,76.6,68.5,29.85,SSW,202,3.1,3.1,76,0.00,,OVC043,0.00,VWS V14.01,2013-06-03 01:08:00,
2013-06-02 21:09:00,76.4,68.3,29.85,SSW,202,2.5,2.5,76,0.00,,OVC043,0.00,VWS V14.01,2013-06-03 01:09:00,
2013-06-02 21:10:00,76.4,68.3,29.85,SE,135,4.0,4.0,76,0.00,,,0.00,VWS V14.01,2013-06-03 01:10:00,
2013-06-02 21:11:00,76.4,68.3,29.85,ESE,112,2.9,2.9,76,0.00,,OVC043,0.00,VWS V14.01,2013-06-03 01:11:00,
2013-06-02 21:12:00,76.4,68.3,29.85,SSE,158,2.7,2.7,76,0.00,,OVC043,0.00,VWS V14.01,2013-06-03 01:12:00,
2013-06-02 21:13:00,76.4,68.3,29.85,South,180,2.7,2.7,76,0.00,,OVC043,0.00,VWS V14.01,2013-06-03 01:13:00,
2013-06-02 21:14:00,76.4,68.3,29.85,NW,315,0.0,0.0,76,0.00,,OVC043,0.00,VWS V14.01,2013-06-03 01:14:00,
2013-06-02 21:15:00,76.4,68.3,29.85,SSW,202,2.7,2.7,76,0.00,,OVC043,0.00,VWS V14.01,2013-06-03 01:15:00,
2013-06-02 21:16:00,76.4,68.7,29.85,SE,135,3.8,3.8,77,0.00,,,0.00,VWS V14.01,2013-06-03 01:16:00,
2013-06-02 21:17:00,76.4,68.7,29.85,SSW,202,1.1,1.1,77,0.00,,OVC043,0.00,VWS V14.01,2013-06-03 01:17:00,
2013-06-02 21:18:00,76.4,68.7,29.85,SSE,158,4.0,4.0,77,0.00,,OVC043,0.00,VWS V14.01,2013-06-03 01:18:00,
2013-06-02 21:19:00,76.4,68.7,29.85,SSW,202,3.4,3.4,77,0.00,,OVC043,0.00,VWS V14.01,2013-06-03 01:19:00,
2013-06-02 21:20:00,76.4,68.3,29.85,SSW,202,1.6,1.6,76,0.00,,OVC043,0.00,VWS V14.01,2013-06-03 01:20:00,
2013-06-02 21:21:00,76.4,68.3,29.85,SSW,202,2.5,2.5,76,0.00,,,0.00,VWS V14.01,2013-06-03 01:21:00,
2013-06-02 21:22:00,76.4,68.3,29.85,South,180,3.8,3.8,76,0.00,,OVC043,0.00,VWS V14.01,2013-06-03 01:22:00,
2013-06-02 21:23:00,76.4,68.3,29.85,SSW,202,2.5,2.5,76,0.00,,OVC043,0.00,VWS V14.01,2013-06-03 01:23:00,
2013-06-02 21:24:00,76.4,68.7,29.85,SW,225,2.5,2.5,77,0.00,,OVC043,0.00,VWS V14.01,2013-06-03 01:24:00,
2013-06-02 21:25:00,76.3,68.5,29.85,SSW,202,3.1,3.1,77,0.00,,OVC043,0.00,VWS V14.01,2013-06-03 01:25:00,
2013-06-02 21:26:00,76.1,68.7,29.85,SW,225,3.8,3.8,78,0.00,,,0.00,VWS V14.01,2013-06-03 01:26:00,
2013-06-02 21:27:00,76.1,68.7,29.85,SSW,202,4.3,4.3,78,0.00,,OVC043,0.00,VWS V14.01,2013-06-03 01:27:00,
2013-06-02 21:28:00,76.1,68.7,29.85,SW,225,3.8,3.8,78,0.00,,OVC043,0.00,VWS V14.01,2013-06-03 01:28:00,
2013-06-02 21:29:00,76.1,68.7,29.85,SW,225,3.1,3.1,78,0.00,,OVC043,0.00,VWS V14.01,2013-06-03 01:29:00,
2013-06-02 21:30:00,76.1,69.1,29.85,West,270,2.7,2.7,79,0.00,,OVC043,0.00,VWS V14.01,2013-06-03 01:30:00,
2013-06-02 21:31:00,75.7,69.5,29.88,West,270,3.6,3.6,81,0.00,,,0.00,VWS V14.01,2013-06-03 01:31:00,
2013-06-02 21:32:00,75.7,69.1,29.88,WSW,248,3.1,3.1,80,0.00,,OVC043,0.00,VWS V14.01,2013-06-03 01:32:00,
2013-06-02 21:33:00,75.7,69.5,29.88,West,270,3.6,3.6,81,0.00,,OVC043,0.00,VWS V14.01,2013-06-03 01:33:00,
2013-06-02 21:34:00,75.5,69.7,29.88,West,270,4.3,4.3,82,0.00,,OVC043,0.00,VWS V14.01,2013-06-03 01:34:00,
2013-06-02 21:35:00,75.5,69.7,29.88,WNW,292,4.9,4.9,82,0.00,,OVC043,0.00,VWS V14.01,2013-06-03 01:35:00,
2013-06-02 21:36:00,73.9,69.8,29.88,WSW,248,7.4,7.4,87,0.00,,,0.00,VWS V14.01,2013-06-03 01:36:00,
2013-06-02 21:37:00,75.2,70.4,29.88,West,270,13.0,13.0,85,0.00,,OVC043,0.00,VWS V14.01,2013-06-03 01:37:00,
2013-06-02 21:38:00,74.1,69.7,29.88,West,270,8.5,8.5,86,0.00,,OVC043,0.00,VWS V14.01,2013-06-03 01:38:00,
2013-06-02 21:39:00,73.4,68.6,29.88,WNW,292,4.3,4.3,85,0.00,,OVC043,0.00,VWS V14.01,2013-06-03 01:39:00,
2013-06-02 21:40:00,73.2,68.4,29.88,WSW,248,4.3,4.3,85,0.05,,OVC043,0.05,VWS V14.01,2013-06-03 01:40:00,
2013-06-02 21:41:00,72.3,68.6,29.88,WSW,248,7.8,7.8,88,0.05,,,0.05,VWS V14.01,2013-06-03 01:41:00,
2013-06-02 21:42:00,72.5,68.7,29.88,West,270,10.1,10.1,88,0.05,,OVC043,0.05,VWS V14.01,2013-06-03 01:42:00,
2013-06-02 21:43:00,72.3,68.6,29.88,WNW,292,14.8,14.8,88,0.05,,OVC043,0.05,VWS V14.01,2013-06-03 01:43:00,
2013-06-02 21:44:00,72.3,68.6,29.88,West,270,7.6,7.6,88,0.05,,OVC043,0.05,VWS V14.01,2013-06-03 01:44:00,
2013-06-02 21:45:00,71.6,68.5,29.88,WSW,248,13.0,13.0,90,0.05,,OVC043,0.05,VWS V14.01,2013-06-03 01:45:00,
2013-06-02 21:46:00,70.7,69.8,29.91,WSW,248,3.1,3.1,97,0.17,,OVC085,0.17,VWS V14.01,2013-06-03 01:46:00,
2013-06-02 21:47:00,70.9,69.1,29.91,West,270,8.5,8.5,94,0.13,,OVC043,0.13,VWS V14.01,2013-06-03 01:47:00,
2013-06-02 21:48:00,70.7,69.8,29.91,SSW,202,3.1,3.1,97,0.17,,OVC043,0.17,VWS V14.01,2013-06-03 01:48:00,
2013-06-02 21:49:00,70.9,70.0,29.91,West,270,6.0,6.0,97,0.17,,OVC043,0.17,VWS V14.01,2013-06-03 01:49:00,
2013-06-02 21:50:00,70.5,69.9,29.91,WNW,292,5.8,5.8,98,0.21,,OVC043,0.21,VWS V14.01,2013-06-03 01:50:00,
2013-06-02 21:51:00,70.3,70.3,29.91,WSW,248,7.6,7.6,100,0.26,,OVC085,0.26,VWS V14.01,2013-06-03 01:51:00,
2013-06-02 21:52:00,70.5,70.5,29.91,WSW,248,7.6,7.6,100,0.26,,OVC043,0.26,VWS V14.01,2013-06-03 01:52:00,
2013-06-02 21:53:00,70.3,70.3,29.91,WNW,292,6.3,6.3,100,0.26,,OVC043,0.26,VWS V14.01,2013-06-03 01:53:00,
2013-06-02 21:54:00,70.3,70.3,29.91,WNW,292,7.2,7.2,100,0.26,,OVC043,0.26,VWS V14.01,2013-06-03 01:54:00,
2013-06-02 21:55:00,70.1,70.1,29.91,SSW,202,2.9,2.9,100,0.26,,OVC043,0.26,VWS V14.01,2013-06-03 01:55:00,
2013-06-02 21:56:00,70.0,69.4,29.91,North,0,2.5,2.5,98,0.34,,OVC085,0.34,VWS V14.01,2013-06-03 01:56:00,
2013-06-02 21:57:00,70.1,70.1,29.91,West,270,4.9,4.9,100,0.29,,OVC043,0.29,VWS V14.01,2013-06-03 01:57:00,
2013-06-02 21:58:00,70.0,69.4,29.91,North,0,2.5,2.5,98,0.34,,OVC043,0.34,VWS V14.01,2013-06-03 01:58:00,
2013-06-02 21:59:00,70.0,69.4,29.91,SSW,202,5.4,5.4,98,0.34,,OVC043,0.34,VWS V14.01,2013-06-03 01:59:00,
2013-06-02 22:00:00,70.0,69.4,29.91,North,0,4.3,4.3,98,0.34,,OVC043,0.34,VWS V14.01,2013-06-03 02:00:00,
2013-06-02 22:01:00,69.6,69.0,29.91,West,270,3.4,3.4,98,0.34,,OVC085,0.34,VWS V14.01,2013-06-03 02:01:00,
2013-06-02 22:02:00,69.4,68.8,29.91,West,270,3.1,3.1,98,0.34,,OVC043,0.34,VWS V14.01,2013-06-03 02:02:00,
2013-06-02 22:03:00,69.6,69.0,29.91,WSW,248,1.3,1.3,98,0.34,,OVC043,0.34,VWS V14.01,2013-06-03 02:03:00,
2013-06-02 22:04:00,69.4,69.1,29.91,West,270,7.2,7.2,99,0.34,,OVC043,0.34,VWS V14.01,2013-06-03 02:04:00,
2013-06-02 22:05:00,69.2,69.2,29.91,WNW,292,5.6,5.6,100,0.34,,OVC043,0.34,VWS V14.01,2013-06-03 02:05:00,
2013-06-02 22:06:00,69.4,69.4,29.91,West,270,2.5,2.5,100,0.38,,,0.38,VWS V14.01,2013-06-03 02:06:00,
2013-06-02 22:07:00,69.4,69.4,29.91,NW,315,5.6,5.6,100,0.34,,OVC043,0.34,VWS V14.01,2013-06-03 02:07:00,
2013-06-02 22:08:00,69.4,69.4,29.91,NNW,338,1.3,1.3,100,0.34,,OVC043,0.34,VWS V14.01,2013-06-03 02:08:00,
2013-06-02 22:09:00,69.4,69.4,29.91,West,270,6.5,6.5,100,0.38,,OVC043,0.38,VWS V14.01,2013-06-03 02:09:00,
2013-06-02 22:10:00,69.1,69.1,29.91,WSW,248,5.4,5.4,100,0.38,,OVC043,0.38,VWS V14.01,2013-06-03 02:10:00,
2013-06-02 22:11:00,68.9,68.9,29.91,West,270,3.4,3.4,100,0.42,,,0.42,VWS V14.01,2013-06-03 02:11:00,
2013-06-02 22:12:00,68.9,68.9,29.91,SW,225,1.6,1.6,100,0.42,,OVC043,0.42,VWS V14.01,2013-06-03 02:12:00,
2013-06-02 22:13:00,68.9,68.9,29.91,WSW,248,4.9,4.9,100,0.42,,OVC043,0.42,VWS V14.01,2013-06-03 02:13:00,
2013-06-02 22:14:00,68.7,68.7,29.91,NNW,338,2.5,2.5,100,0.42,,OVC043,0.42,VWS V14.01,2013-06-03 02:14:00,
2013-06-02 22:15:00,68.7,68.7,29.91,WSW,248,2.5,2.5,100,0.42,,OVC043,0.42,VWS V14.01,2013-06-03 02:15:00,
2013-06-02 22:16:00,68.5,68.5,29.91,SW,225,7.2,7.2,100,0.46,,,0.46,VWS V14.01,2013-06-03 02:16:00,
2013-06-02 22:17:00,68.7,68.7,29.91,SW,225,2.7,2.7,100,0.46,,OVC043,0.46,VWS V14.01,2013-06-03 02:17:00,
2013-06-02 22:18:00,68.5,68.5,29.91,West,270,6.7,6.7,100,0.46,,OVC043,0.46,VWS V14.01,2013-06-03 02:18:00,
2013-06-02 22:19:00,68.7,68.4,29.91,SSW,202,6.5,6.5,99,0.46,,OVC043,0.46,VWS V14.01,2013-06-03 02:19:00,
2013-06-02 22:20:00,68.5,68.2,29.91,West,270,3.1,3.1,99,0.46,,OVC043,0.46,VWS V14.01,2013-06-03 02:20:00,
2013-06-02 22:21:00,68.7,68.4,29.91,WSW,248,3.8,3.8,99,0.46,,OVC043,0.46,VWS V14.01,2013-06-03 02:21:00,
2013-06-02 22:22:00,68.7,68.4,29.91,SW,225,2.0,2.0,99,0.46,,,0.46,VWS V14.01,2013-06-03 02:22:00,
2013-06-02 22:23:00,68.7,68.4,29.91,SSW,202,3.4,3.4,99,0.46,,OVC043,0.46,VWS V14.01,2013-06-03 02:23:00,
2013-06-02 22:24:00,68.5,68.5,29.91,SSW,202,2.5,2.5,100,0.46,,OVC043,0.46,VWS V14.01,2013-06-03 02:24:00,
2013-06-02 22:25:00,68.5,68.5,29.91,SE,135,0.9,0.9,100,0.46,,OVC043,0.46,VWS V14.01,2013-06-03 02:25:00,
2013-06-02 22:26:00,68.5,68.5,29.91,ESE,112,2.5,2.5,100,0.46,,OVC043,0.46,VWS V14.01,2013-06-03 02:26:00,
2013-06-02 22:27:00,68.5,68.5,29.91,ESE,112,3.4,3.4,100,0.46,,,0.46,VWS V14.01,2013-06-03 02:27:00,
2013-06-02 22:28:00,68.5,68.5,29.91,East,90,2.9,2.9,100,0.46,,OVC043,0.46,VWS V14.01,2013-06-03 02:28:00,
2013-06-02 22:29:00,68.5,68.5,29.91,ESE,112,3.4,3.4,100,0.46,,OVC043,0.46,VWS V14.01,2013-06-03 02:29:00,
2013-06-02 22:30:00,68.5,68.5,29.91,ESE,112,3.4,3.4,100,0.46,,OVC043,0.46,VWS V14.01,2013-06-03 02:30:00,
2013-06-02 22:31:00,68.5,68.5,29.91,ESE,112,3.8,3.8,100,0.46,,OVC043,0.46,VWS V14.01,2013-06-03 02:31:00,
2013-06-02 22:32:00,68.5,68.5,29.91,ESE,112,3.4,3.4,100,0.46,,,0.46,VWS V14.01,2013-06-03 02:32:00,
2013-06-02 22:33:00,68.5,68.5,29.91,East,90,3.4,3.4,100,0.46,,OVC043,0.46,VWS V14.01,2013-06-03 02:33:00,
2013-06-02 22:34:00,68.5,68.5,29.91,ESE,112,3.4,3.4,100,0.46,,OVC043,0.46,VWS V14.01,2013-06-03 02:34:00,
2013-06-02 22:35:00,68.5,68.5,29.91,ESE,112,2.9,2.9,100,0.46,,OVC043,0.46,VWS V14.01,2013-06-03 02:35:00,
2013-06-02 22:36:00,68.5,68.5,29.91,East,90,3.4,3.4,100,0.46,,OVC043,0.46,VWS V14.01,2013-06-03 02:36:00,
2013-06-02 22:37:00,68.5,68.5,29.91,SE,135,2.9,2.9,100,0.46,,,0.46,VWS V14.01,2013-06-03 02:37:00,
2013-06-02 22:38:00,68.5,68.5,29.91,East,90,2.7,2.7,100,0.46,,OVC043,0.46,VWS V14.01,2013-06-03 02:38:00,
2013-06-02 22:39:00,68.5,68.5,29.91,SE,135,2.9,2.9,100,0.46,,OVC043,0.46,VWS V14.01,2013-06-03 02:39:00,
2013-06-02 22:40:00,68.5,68.5,29.91,SE,135,3.1,3.1,100,0.46,,OVC043,0.46,VWS V14.01,2013-06-03 02:40:00,
2013-06-02 22:41:00,68.5,68.5,29.91,SE,135,2.5,2.5,100,0.41,,OVC043,0.46,VWS V14.01,2013-06-03 02:41:00,
2013-06-02 22:42:00,68.5,68.5,29.91,SSW,202,2.2,2.2,100,0.41,,,0.46,VWS V14.01,2013-06-03 02:42:00,
2013-06-02 22:43:00,68.5,68.5,29.91,SE,135,3.1,3.1,100,0.41,,OVC043,0.46,VWS V14.01,2013-06-03 02:43:00,
2013-06-02 22:44:00,68.5,68.5,29.91,South,180,3.4,3.4,100,0.41,,OVC043,0.46,VWS V14.01,2013-06-03 02:44:00,
2013-06-02 22:45:00,68.7,68.4,29.91,SSW,202,2.0,2.0,99,0.41,,OVC043,0.46,VWS V14.01,2013-06-03 02:45:00,
2013-06-02 22:46:00,68.7,68.7,29.91,SSE,158,1.6,1.6,100,0.41,,OVC043,0.46,VWS V14.01,2013-06-03 02:46:00,
2013-06-02 22:47:00,68.7,68.7,29.91,South,180,2.0,2.0,100,0.29,,,0.46,VWS V14.01,2013-06-03 02:47:00,
2013-06-02 22:48:00,68.7,68.7,29.91,South,180,2.0,2.0,100,0.33,,OVC043,0.46,VWS V14.01,2013-06-03 02:48:00,
2013-06-02 22:49:00,68.7,68.7,29.91,SSE,158,2.0,2.0,100,0.29,,OVC043,0.46,VWS V14.01,2013-06-03 02:49:00,
2013-06-02 22:50:00,68.7,68.7,29.91,South,180,3.8,3.8,100,0.29,,OVC043,0.46,VWS V14.01,2013-06-03 02:50:00,
2013-06-02 22:51:00,68.7,68.7,29.91,SSE,158,2.5,2.5,100,0.25,,OVC043,0.46,VWS V14.01,2013-06-03 02:51:00,
2013-06-02 22:52:00,68.7,68.4,29.91,SSE,158,2.7,2.7,99,0.20,,,0.46,VWS V14.01,2013-06-03 02:52:00,
2013-06-02 22:53:00,68.7,68.7,29.91,SE,135,3.1,3.1,100,0.20,,OVC043,0.46,VWS V14.01,2013-06-03 02:53:00,
2013-06-02 22:54:00,68.7,68.7,29.91,ESE,112,2.9,2.9,100,0.20,,OVC043,0.46,VWS V14.01,2013-06-03 02:54:00,
2013-06-02 22:55:00,68.7,68.7,29.91,WNW,292,0.0,0.0,100,0.20,,OVC043,0.46,VWS V14.01,2013-06-03 02:55:00,
2013-06-02 22:56:00,68.7,68.7,29.91,WNW,292,0.0,0.0,100,0.20,,OVC043,0.46,VWS V14.01,2013-06-03 02:56:00,
2013-06-02 22:57:00,69.1,69.1,29.91,SW,225,2.9,2.9,100,0.12,,,0.46,VWS V14.01,2013-06-03 02:57:00,
2013-06-02 22:58:00,69.1,69.1,29.91,SW,225,2.9,2.9,100,0.17,,OVC043,0.46,VWS V14.01,2013-06-03 02:58:00,
2013-06-02 22:59:00,69.2,69.2,29.91,SSW,202,3.1,3.1,100,0.12,,OVC043,0.46,VWS V14.01,2013-06-03 02:59:00,
2013-06-02 23:00:00,69.1,69.1,29.91,SSW,202,2.7,2.7,100,0.12,,OVC043,0.46,VWS V14.01,2013-06-03 03:00:00,
2013-06-02 23:01:00,69.1,69.1,29.91,South,180,3.6,3.6,100,0.12,,OVC043,0.46,VWS V14.01,2013-06-03 03:01:00,
2013-06-02 23:02:00,68.9,68.9,29.91,SSW,202,2.7,2.7,100,0.12,,,0.46,VWS V14.01,2013-06-03 03:02:00,
2013-06-02 23:03:00,68.9,68.9,29.91,SSW,202,2.5,2.5,100,0.12,,OVC043,0.46,VWS V14.01,2013-06-03 03:03:00,
2013-06-02 23:04:00,68.9,68.9,29.91,SSE,158,3.1,3.1,100,0.12,,OVC043,0.46,VWS V14.01,2013-06-03 03:04:00,
2013-06-02 23:05:00,68.9,68.9,29.91,SSE,158,1.6,1.6,100,0.12,,OVC043,0.46,VWS V14.01,2013-06-03 03:05:00,
2013-06-02 23:06:00,68.9,68.9,29.91,South,180,2.5,2.5,100,0.12,,OVC043,0.46,VWS V14.01,2013-06-03 03:06:00,
2013-06-02 23:07:00,68.7,68.7,29.91,SE,135,2.0,2.0,100,0.08,,,0.46,VWS V14.01,2013-06-03 03:07:00,
2013-06-02 23:08:00,68.9,68.9,29.91,SE,135,1.1,1.1,100,0.12,,OVC043,0.46,VWS V14.01,2013-06-03 03:08:00,
2013-06-02 23:09:00,68.7,68.7,29.91,ESE,112,1.3,1.3,100,0.12,,OVC043,0.46,VWS V14.01,2013-06-03 03:09:00,
2013-06-02 23:10:00,68.7,68.7,29.91,SE,135,2.2,2.2,100,0.08,,OVC043,0.46,VWS V14.01,2013-06-03 03:10:00,
2013-06-02 23:11:00,68.7,68.7,29.91,SE,135,2.0,2.0,100,0.08,,OVC043,0.46,VWS V14.01,2013-06-03 03:11:00,
2013-06-02 23:12:00,68.7,68.7,29.91,SE,135,2.0,2.0,100,0.08,,OVC043,0.46,VWS V14.01,2013-06-03 03:12:00,
2013-06-02 23:13:00,68.9,68.9,29.91,SSE,158,0.0,0.0,100,0.04,,,0.46,VWS V14.01,2013-06-03 03:13:00,
2013-06-02 23:14:00,68.9,68.9,29.91,SSE,158,0.0,0.0,100,0.04,,OVC043,0.46,VWS V14.01,2013-06-03 03:14:00,
2013-06-02 23:15:00,68.9,68.9,29.91,SSE,158,0.0,0.0,100,0.04,,OVC043,0.46,VWS V14.01,2013-06-03 03:15:00,
2013-06-02 23:16:00,68.9,68.9,29.91,South,180,0.0,0.0,100,0.04,,OVC043,0.46,VWS V14.01,2013-06-03 03:16:00,
2013-06-02 23:17:00,68.9,68.9,29.91,ESE,112,0.0,0.0,100,0.00,,OVC043,0.46,VWS V14.01,2013-06-03 03:17:00,
2013-06-02 23:18:00,69.1,69.1,29.91,SSW,202,2.5,2.5,100,0.00,,,0.46,VWS V14.01,2013-06-03 03:18:00,
2013-06-02 23:19:00,68.9,68.9,29.91,SSW,202,0.9,0.9,100,0.00,,OVC043,0.46,VWS V14.01,2013-06-03 03:19:00,
2013-06-02 23:20:00,69.1,69.1,29.91,South,180,1.1,1.1,100,0.00,,OVC043,0.46,VWS V14.01,2013-06-03 03:20:00,
2013-06-02 23:21:00,69.1,69.1,29.91,SE,135,0.0,0.0,100,0.00,,OVC043,0.46,VWS V14.01,2013-06-03 03:21:00,
2013-06-02 23:22:00,68.9,68.9,29.91,South,180,0.0,0.0,100,0.00,,OVC043,0.46,VWS V14.01,2013-06-03 03:22:00,
2013-06-02 23:23:00,68.9,68.9,29.91,SE,135,2.9,2.9,100,0.00,,,0.46,VWS V14.01,2013-06-03 03:23:00,
2013-06-02 23:24:00,68.9,68.9,29.91,SE,135,2.9,2.9,100,0.00,,OVC043,0.46,VWS V14.01,2013-06-03 03:24:00,
2013-06-02 23:25:00,68.9,68.9,29.91,ESE,112,2.7,2.7,100,0.00,,OVC043,0.46,VWS V14.01,2013-06-03 03:25:00,
2013-06-02 23:26:00,68.9,68.9,29.91,SE,135,2.5,2.5,100,0.00,,OVC043,0.46,VWS V14.01,2013-06-03 03:26:00,
2013-06-02 23:27:00,68.9,68.9,29.91,SSE,158,2.5,2.5,100,0.00,,OVC043,0.46,VWS V14.01,2013-06-03 03:27:00,
2013-06-02 23:28:00,69.4,69.4,29.91,SSW,202,4.0,4.0,100,0.00,,,0.46,VWS V14.01,2013-06-03 03:28:00,
2013-06-02 23:29:00,69.2,69.2,29.91,SSW,202,1.3,1.3,100,0.00,,OVC043,0.46,VWS V14.01,2013-06-03 03:29:00,
2013-06-02 23:30:00,69.4,69.4,29.91,South,180,2.5,2.5,100,0.00,,OVC043,0.46,VWS V14.01,2013-06-03 03:30:00,
2013-06-02 23:31:00,69.2,69.2,29.91,SW,225,2.0,2.0,100,0.00,,OVC043,0.46,VWS V14.01,2013-06-03 03:31:00,
2013-06-02 23:32:00,69.2,69.2,29.91,South,180,1.6,1.6,100,0.00,,OVC043,0.46,VWS V14.01,2013-06-03 03:32:00,
2013-06-02 23:33:00,69.1,69.1,29.91,SE,135,3.1,3.1,100,0.00,,,0.46,VWS V14.01,2013-06-03 03:33:00,
2013-06-02 23:34:00,69.1,69.1,29.91,SE,135,3.6,3.6,100,0.00,,OVC043,0.46,VWS V14.01,2013-06-03 03:34:00,
2013-06-02 23:35:00,69.1,69.1,29.91,South,180,2.5,2.5,100,0.00,,OVC043,0.46,VWS V14.01,2013-06-03 03:35:00,
2013-06-02 23:36:00,69.1,69.1,29.91,SSE,158,2.2,2.2,100,0.00,,OVC043,0.46,VWS V14.01,2013-06-03 03:36:00,
2013-06-02 23:37:00,69.1,69.1,29.91,WSW,248,2.5,2.5,100,0.00,,OVC043,0.46,VWS V14.01,2013-06-03 03:37:00,
2013-06-02 23:38:00,69.2,69.2,29.91,SSW,202,1.1,1.1,100,0.00,,,0.46,VWS V14.01,2013-06-03 03:38:00,
2013-06-02 23:39:00,69.2,69.2,29.91,SSW,202,0.0,0.0,100,0.00,,OVC043,0.46,VWS V14.01,2013-06-03 03:39:00,
2013-06-02 23:40:00,69.2,69.2,29.91,SSW,202,1.1,1.1,100,0.00,,OVC043,0.46,VWS V14.01,2013-06-03 03:40:00,
2013-06-02 23:41:00,69.4,69.4,29.91,SW,225,2.5,2.5,100,0.00,,OVC043,0.46,VWS V14.01,2013-06-03 03:41:00,
2013-06-02 23:42:00,69.4,69.4,29.91,South,180,2.5,2.5,100,0.00,,OVC043,0.46,VWS V14.01,2013-06-03 03:42:00,
2013-06-02 23:43:00,69.6,69.6,29.91,South,180,3.8,3.8,100,0.00,,,0.46,VWS V14.01,2013-06-03 03:43:00,
2013-06-02 23:44:00,69.4,69.4,29.91,SSE,158,3.4,3.4,100,0.00,,OVC043,0.46,VWS V14.01,2013-06-03 03:44:00,
2013-06-02 23:45:00,69.6,69.6,29.91,South,180,3.8,3.8,100,0.00,,OVC043,0.46,VWS V14.01,2013-06-03 03:45:00,
2013-06-02 23:46:00,69.6,69.6,29.91,SW,225,1.1,1.1,100,0.00,,OVC043,0.46,VWS V14.01,2013-06-03 03:46:00,
2013-06-02 23:47:00,69.6,69.6,29.91,South,180,2.9,2.9,100,0.00,,OVC043,0.46,VWS V14.01,2013-06-03 03:47:00,
2013-06-02 23:48:00,69.6,69.6,29.91,SE,135,1.1,1.1,100,0.00,,,0.46,VWS V14.01,2013-06-03 03:48:00,
2013-06-02 23:49:00,69.6,69.6,29.91,WSW,248,1.1,1.1,100,0.00,,OVC043,0.46,VWS V14.01,2013-06-03 03:49:00,
2013-06-02 23:50:00,69.6,69.6,29.91,SE,135,1.1,1.1,100,0.00,,OVC043,0.46,VWS V14.01,2013-06-03 03:50:00,
2013-06-02 23:51:00,69.6,69.6,29.91,South,180,2.5,2.5,100,0.00,,OVC043,0.46,VWS V14.01,2013-06-03 03:51:00,
2013-06-02 23:52:00,69.6,69.6,29.91,WSW,248,1.3,1.3,100,0.00,,OVC043,0.46,VWS V14.01,2013-06-03 03:52:00,
2013-06-02 23:53:00,69.6,69.6,29.91,ESE,112,3.4,3.4,100,0.00,,SCT110,0.46,VWS V14.01,2013-06-03 03:53:00,
2013-06-02 23:54:00,69.6,69.6,29.91,SSW,202,2.0,2.0,100,0.00,,OVC043,0.46,VWS V14.01,2013-06-03 03:54:00,
2013-06-02 23:55:00,69.6,69.6,29.91,ESE,112,3.4,3.4,100,0.00,,OVC043,0.46,VWS V14.01,2013-06-03 03:55:00,
2013-06-02 23:56:00,69.6,69.6,29.91,SSE,158,0.0,0.0,100,0.00,,OVC043,0.46,VWS V14.01,2013-06-03 03:56:00,
2013-06-02 23:57:00,69.6,69.6,29.91,SE,135,1.1,1.1,100,0.00,,OVC043,0.46,VWS V14.01,2013-06-03 03:57:00,
2013-06-02 23:58:00,69.6,69.6,29.91,SE,135,2.7,2.7,100,0.00,,SCT110,0.00,VWS V14.01,2013-06-03 03:58:00,
2013-06-02 23:59:00,69.6,69.6,29.91,SE,135,2.2,2.2,100,0.00,,OVC043,0.46,VWS V14.01,2013-06-03 03:59:00,